[[{"header":{"parameterUnit":"m.s-1","parameterCategory":1,"la1":31.0,"la2":29.5877,"lo1":-88.7671,"lo2":-86.6584,"dy":0.0162,"dx":0.0185,"nx":115,"ny":88,"refTime":"2026-05-10T00:00:00:Z","depth":0,"parameterNumber":2,"parameterNumberName":"U-component_of_WINDS"},"data":[0.0,0.0,0.0,0.0,0.0,0.0,0.0,0.0,0.0,0.0,0.0,0.0,0.0,0.0,0.0,0.0,0.0,0.0,0.0,0.0,0.0,0.0,0.0,0.0,0.0,0.0,0.0,0.0,0.0,0.0,0.0,0.0,0.0,0.0,0.0,0.0,0.0,0.0,0.0,0.0,0.0,0.0,0.0,0.0,0.0,0.0,0.0,0.0,0.0,0.0,0.0,0.0,0.0,0.0,0.0,0.0,0.0,0.0,0.0,0.0,0.0,0.0,0.0,0.0,0.0,0.0,0.0,0.0,0.0,0.0,0.0,0.0,0.0,0.0,0.0,0.0,0.0,0.0,0.0,0.0,0.0,0.0,0.0,0.0,0.0,0.0,0.0,0.0,0.0,0.0,0.0,0.0,0.0,0.0,0.0,0.0,0.0,0.0,0.0,0.0,0.0,0.0,0.0,0.0,0.0,0.0,0.0,0.0,0.0,0.0,0.0,0.0,0.0,0.0,0.0,0.0,0.0,0.0,0.0,0.0,0.0,0.0,0.0,0.0,0.0,0.0,0.0,0.0,0.0,0.0,0.0,0.0,0.0,0.0,0.0,0.0,0.0,0.0,0.0,0.0,0.0,0.0,0.0,0.0,0.0,0.0,0.0,0.0,0.0,0.0,0.0,0.0,0.0,0.0,0.0,0.0,0.0,0.0,0.0,0.0,0.0,0.0,0.0,0.0,0.0,0.0,0.0,0.0,0.0,0.0,0.0,0.0,0.0,0.0,0.0,0.0,0.0,0.0,0.0,0.0,0.0,0.0,0.0,0.0,0.0,0.0,0.0,0.0,0.0,0.0,0.0,0.0,0.0,0.0,0.0,0.0,0.0,0.0,0.0,0.0,0.0,0.0,0.0,0.0,0.0,0.0,0.0,0.0,0.0,0.0,0.0,0.0,0.0,0.0,0.0,0.0,0.0,0.0,0.0,0.0,0.0,0.0,0.0,0.0,0.0,0.0,0.0,0.0,0.0,0.0,0.0,0.0,0.0,0.0,0.0,0.0,0.0,0.0,0.0,0.0,0.0,0.0,0.0,0.0,0.0,0.0,0.0,0.0,0.0,0.0,0.0,0.0,0.0,0.0,0.0,0.0,0.0,0.0,0.0,0.0,0.0,0.0,0.0,0.0,0.0,0.0,0.0,0.0,0.0,0.0,0.0,0.0,0.0,0.0,0.0,0.0,0.0,0.0,0.0,0.0,0.0,0.0,0.0,0.0,0.0,0.0,0.0,0.0,0.0,0.0,0.0,0.0,0.0,0.0,0.0,0.0,0.0,0.0,0.0,0.0,0.0,0.0,0.0,0.0,0.0,0.0,0.0,0.0,0.0,0.0,0.0,0.0,0.0,0.0,0.0,0.0,0.0,0.0,0.0,0.0,0.0,0.0,0.0,0.0,0.0,0.0,0.0,0.0,0.0,0.0,0.0,0.0,0.0,0.0,0.0,0.0,0.0,0.0,0.0,0.0,0.0,0.0,0.0,0.0,0.0,0.0,0.0,0.0,0.0,0.0,0.0,0.0,0.0,0.0,0.0,0.0,0.0,0.0,0.0,0.0,0.0,0.0,0.0,0.0,0.0,0.0,0.0,0.0,0.0,0.0,0.0,0.0,0.0,0.0,0.0,0.0,0.0,0.0,0.0,0.0,0.0,0.0,0.0,0.0,0.0,0.0,0.0,0.0,0.0,0.0,0.0,0.0,0.0,0.0,0.0,0.0,0.0,0.0,0.0,0.0,0.0,0.0,0.0,0.0,0.0,0.0,0.0,0.0,0.0,0.0,0.0,0.0,0.0,0.0,0.0,0.0,0.0,0.0,0.0,0.0,0.0,0.0,0.0,0.0,0.0,0.0,0.0,0.0,0.0,0.0,0.0,0.0,0.0,0.0,0.0,0.0,0.0,0.0,0.0,0.0,0.0,0.0,0.0,0.0,0.0,0.0,0.0,0.0,0.0,0.0,0.0,0.0,0.0,0.0,0.0,0.0,0.0,0.0,0.0,0.0,0.0,0.0,0.0,0.0,0.0,0.0,0.0,0.0,0.0,0.0,0.0,0.0,0.0,0.0,0.0,0.0,0.0,0.0,0.0,0.0,0.0,0.0,0.0,0.0,0.0,0.0,0.0,0.0,0.0,0.0,0.0,0.0,0.0,0.0,0.0,0.0,0.0,0.0,0.0,0.0,0.0,0.0,0.0,0.0,0.0,0.0,0.0,0.0,0.0,0.0,0.0,0.0,0.0,0.0,0.0,0.0,0.0,0.0,0.0,0.0,0.0,0.0,0.0,0.0,0.0,0.0,0.0,0.0,0.0,0.0,0.0,0.0,0.0,0.0,0.0,0.0,0.0,0.0,0.0,0.0,0.0,0.0,0.0,0.0,0.0,0.0,0.0,0.0,0.0,0.0,0.0,0.0,0.0,0.0,0.0,0.0,0.0,0.0,0.0,0.0,0.0,0.0,0.0,0.0,0.0,0.0,0.0,0.0,0.0,0.0,0.0,0.0,0.0,0.0,0.0,0.0,0.0,0.0,0.0,0.0,0.0,0.0,0.0,0.0,0.0,0.0,0.0,0.0,0.0,0.0,0.0,0.0,0.0,0.0,0.0,0.0,0.0,0.0,0.0,0.0,0.0,0.0,0.0,0.0,0.0,0.0,0.0,0.0,0.0,0.0,0.0,0.0,0.0,0.0,0.0,0.0,0.0,0.0,0.0,0.0,0.0,0.0,0.0,0.0,0.0,0.0,0.0,0.0,0.0,0.0,0.0,0.0,0.0,0.0,0.0,0.0,0.0,0.0,0.0,0.0,0.0,0.0,0.0,0.0,0.0,0.0,0.0,0.0,0.0,0.0,0.0,0.0,0.0,0.0,0.0,0.0,0.0,0.0,0.0,0.0,0.0,0.0,0.0,0.0,0.0,0.0,0.0,0.0,0.0,0.0,0.0,0.0,0.0,0.0,0.0,0.0,0.0,0.0,0.0,0.0,0.0,0.0,0.0,0.0,0.0,0.0,0.0,0.0,0.0,0.0,0.0,0.0,0.0,0.0,0.0,0.0,0.0,0.0,0.0,0.0,0.0,0.0,0.0,0.0,0.0,0.0,0.0,0.0,0.0,0.0,0.0,0.0,0.0,0.0,0.0,0.0,0.0,0.0,0.0,0.0,0.0,0.0,0.0,0.0,0.0,0.0,0.0,0.0,0.0,0.0,0.0,0.0,0.0,0.0,0.0,0.0,0.0,0.0,0.0,0.0,0.0,0.0,0.0,0.0,0.0,0.0,0.0,0.0,0.0,0.0,0.0,0.0,0.0,0.0,0.0,0.0,0.0,0.0,0.0,0.0,0.0,0.0,0.0,0.0,0.0,0.0,0.0,0.0,0.0,0.0,0.0,0.0,0.0,0.0,0.0,0.0,0.0,0.0,0.0,0.0,0.0,0.0,0.0,0.0,0.0,0.0,0.0,0.0,0.0,0.0,0.0,0.0,0.0,0.0,0.0,0.0,0.0,0.0,0.0,0.0,0.0,0.0,0.0,0.0,0.0,0.0,0.0,0.0,0.0,0.0,0.0,0.0,0.0,0.0,0.0,0.0,0.0,0.0,0.0,0.0,0.0,0.0,0.0,0.0,0.0,0.0,0.0,0.0,0.0,0.0,0.0,0.0,0.0,0.0,0.0,0.0,0.0,0.0,0.0,0.0,0.0,0.0,0.0,0.0,0.0,0.0,0.0,0.0,0.0,0.0,0.0,0.0,0.0,0.0,0.0,0.0,0.0,0.0,0.0,0.0,0.0,0.0,0.0,0.0,0.0,0.0,0.0,0.0,0.0,0.0,0.0,0.0,0.0,0.0,0.0,0.0,0.0,0.0,0.0,0.0,0.0,0.0,0.0,0.0,0.0,0.0,0.0,0.0,0.0,0.0,0.0,0.0,0.0,0.0,0.0,0.0,0.0,0.0,0.0,0.0,0.0,0.0,0.0,0.0,0.0,0.0,0.0,0.0,0.0,0.0,0.0,0.0,0.0,0.0,0.0,0.0,0.0,0.0,0.0,0.0,0.0,0.0,0.0,0.0,0.0,0.0,0.0,0.0,0.0,0.0,0.0,0.0,0.0,0.0,0.0,0.0,0.0,0.0,0.0,0.0,0.0,0.0,0.0,0.0,0.0,0.0,0.0,0.0,0.0,0.0,0.0,0.0,0.0,0.0,0.0,0.0,0.0,0.0,0.0,0.0,0.0,0.0,0.0,0.0,0.0,0.0,0.29,0.0,0.0,0.0,0.0,0.0,0.0,0.0,0.0,0.0,0.0,0.0,0.0,0.0,0.0,0.0,0.0,0.0,0.0,0.0,0.0,0.0,0.0,0.0,0.0,0.0,0.0,0.0,0.0,0.0,0.0,0.0,0.0,0.0,0.0,0.0,0.0,0.0,0.0,0.0,0.0,0.0,0.0,0.0,0.0,0.0,0.0,0.0,0.0,0.0,0.0,0.0,0.0,0.0,0.0,0.0,0.0,0.0,0.0,0.0,0.0,0.0,0.0,0.0,0.0,0.0,0.0,0.0,0.0,0.0,0.0,0.0,0.0,0.0,0.0,0.0,0.0,0.0,0.0,0.0,0.0,0.0,0.0,0.0,0.0,0.0,0.0,0.0,0.0,0.0,0.0,0.0,0.0,0.0,0.0,0.0,0.0,0.0,0.0,0.0,0.0,0.0,0.0,0.0,0.0,0.0,0.0,0.0,0.0,0.0,0.0,0.3546,0.3386,0.3438,0.326,0.2876,0.0,0.0,0.0,0.0,0.0,0.0,0.0,0.0,0.0,0.0,0.0,0.0,0.0,0.0,0.0,0.0,0.0,0.0,0.0,0.0,0.0,0.0,0.0,0.0,0.0,0.0,0.0,0.0,0.0,0.0,0.0,0.0,0.0,0.0,0.0,0.0,0.0,0.0,0.0,0.0,0.0,0.0,0.0,0.0,0.0,0.0,0.0,0.0,0.0,0.0,0.0,0.0,0.0,0.0,0.0,0.0,0.0,0.0,0.0,0.0,0.0,0.0,0.0,0.0,0.0,0.0,0.0,0.0,0.0,0.0,0.0,0.0,0.0,0.0,0.0,0.0,0.0,0.0,0.0,0.0,0.0,0.0,0.0,0.0,0.0,0.0,0.0,0.0,0.0,0.0,0.0,0.0,0.0,0.0,0.0,0.0,0.0,0.0,0.0,0.0,0.0,0.0,0.0,0.0,0.0,0.0,0.0,0.0,0.0,0.0,0.0,0.0,0.3897,0.3579,0.3044,0.0,0.0,0.0,0.0,0.0,0.0,0.0,0.0,0.0,0.0,0.0,0.0,0.0,0.0,0.0,0.0,0.0,0.0,0.0,0.0,0.0,0.0,0.0,0.0,0.0,0.0,0.0,0.0,0.0,0.0,0.0,0.0,0.0,0.0,0.0,0.0,0.0,0.0,0.0,0.0,0.0,0.0,0.0,0.0,0.0,0.0,0.0,0.0,0.0,0.0,0.0,0.0,0.0,0.0,0.0,0.0,0.0,0.0,0.0,0.0,0.0,0.0,0.0,0.0,0.0,0.0,0.0,0.0,0.0,0.0,0.0,0.0,0.0,0.0,0.0,0.0,0.0,0.0,0.0,0.0,0.0,0.0,0.0,0.0,0.0,0.0,0.0,0.0,0.0,0.0,0.0,0.0,0.0,0.0,0.0,0.0,0.0,0.0,0.0,0.0,0.0,0.0,0.0,0.0,0.0,0.0,0.0,0.0,0.0,0.0,0.3661,0.4669,0.4013,0.0,0.3616,0.0,0.0,0.0,0.0,0.0,0.0,0.0,0.0,0.0,0.0,0.0,0.0,0.0,0.0,0.0,0.0,0.0,0.0,0.0,0.0,0.0,0.0,0.0,0.0,0.0,0.0,0.0,0.0,0.0,0.0,0.0,0.0,0.0,0.0,0.0,0.0,0.0,0.0,0.0,0.0,0.0,0.0,0.0,0.0,0.0,0.0,0.0,0.0,0.0,0.0,0.0,0.0,0.0,0.0,0.0,0.0,0.0,0.0,0.0,0.0,0.0,0.0,0.0,0.0,0.0,0.0,0.0,0.0,0.0,0.0,0.0,0.0,0.0,0.0,0.0,0.0,0.0,0.0,0.0,0.0,0.0,0.0,0.0,0.0,0.0,0.0,0.0,0.0,0.0,0.0,0.0,0.0,0.0,0.0,0.0,0.0,0.0,0.0,0.0,0.0,0.0,0.0,0.0,0.0,0.0,0.0,0.0,0.0,0.0,0.0,0.3855,0.4311,0.3933,0.3607,0.0,0.0,0.0,0.0,0.0,0.0,0.0,0.0,0.0,0.0,0.0,0.0,0.0,0.0,0.0,0.0,0.0,0.0,0.0,0.0,0.0,0.0,0.0,0.0,0.0,0.0,0.0,0.0,0.0,0.0,0.0,0.0,0.0,0.0,0.0,0.0,0.0,0.0,0.0,0.0,0.0,0.0,0.0,0.0,0.0,0.0,0.0,0.0,0.0,0.0,0.0,0.0,0.0,0.0,0.0,0.0,0.0,0.0,0.0,0.0,0.0,0.0,0.0,0.0,0.0,0.0,0.0,0.0,0.0,0.0,0.0,0.0,0.0,0.0,0.0,0.0,0.0,0.0,0.0,0.0,0.0,0.0,0.0,0.0,0.0,0.0,0.0,0.0,0.0,0.0,0.0,0.0,0.0,0.0,0.0,0.0,0.0,0.0,0.0,0.0,0.0,0.0,0.0,0.0,0.0,0.0,0.0,0.0,0.0,0.0,0.3892,0.0,0.4085,0.3978,0.3723,0.3289,0.0,0.0,0.0,0.0,0.0,0.0,0.0,0.0,0.0,0.0,0.0,0.0,0.0,0.0,0.0,0.0,0.0,0.0,0.0,0.0,0.0,0.0,0.0,0.0,0.0,0.0,0.0,0.0,0.0,0.0,0.0,0.0,0.0,0.0,0.0,0.0,0.0,0.0,0.0,0.0,0.0,0.0,0.0,0.0,0.0,0.0,0.0,0.0,0.0,0.0,0.0,0.0,0.0,0.0,0.0,0.0,0.0,0.0,0.0,0.0,0.0,0.0,0.0,0.0,0.0,0.0,0.0,0.0,0.0,0.0,0.0,0.0,0.0,0.0,0.0,0.0,0.0,0.0,0.0,0.0,0.0,0.0,0.0,0.0,0.0,0.0,0.0,0.0,0.0,0.0,0.0,0.0,0.0,0.0,0.0,0.0,0.0,0.0,0.0,0.0,0.0,0.0,0.0,0.0,0.0,0.0,0.0,0.0,0.0,0.456,0.4196,0.4378,0.4246,0.3952,0.0,0.0,0.0,0.0,0.0,0.0,0.0,0.0,0.0,0.0,0.0,0.0,0.0,0.0,0.0,0.0,0.0,0.0,0.0,0.0,0.0,0.0,0.0,0.0,0.0,0.0,0.0,0.0,0.0,0.0,0.0,0.0,0.0,0.0,0.0,0.0,0.0,0.0,0.0,0.0,0.0,0.0,0.0,0.0,0.0,0.0,0.0,0.0,0.0,0.0,0.0,0.0,0.0,0.0,0.0,0.0,0.0,0.0,0.0,0.0,0.0,0.0,0.0,0.0,0.0,0.0,0.0,0.0,0.0,0.0,0.0,0.0,0.0,0.0,0.0,0.0,0.0,0.0,0.0,0.0,0.0,0.0,0.0,0.0,0.0,0.0,0.0,0.0,0.0,0.0,0.0,0.0,0.0,0.0,0.0,0.0,0.0,0.0,0.0,0.0,0.0,0.0,0.0,0.0,0.0,0.0,0.0,0.0,0.0,0.4094,0.4102,0.4353,0.4806,0.4259,0.3843,0.0,0.0,0.0,0.0,0.0,0.0,0.0,0.0,0.0,0.0,0.0,0.0,0.0,0.0,0.0,0.0,0.0,0.0,0.0,0.0,0.0,0.0,0.0,0.0,0.0,0.0,0.0,0.0,0.0,0.0,0.0,0.0,0.0,0.0,0.0,0.0,0.0,0.0,0.0,0.0,0.0,0.0,0.0,0.0,0.0,0.0,0.0,0.0,0.0,0.0,0.0,0.0,0.0,0.0,0.0,0.0,0.0,0.0,0.0,0.0,0.0,0.0,0.0,0.0,0.0,0.0,0.0,0.0,0.0,0.0,0.0,0.0,0.0,0.0,0.0,0.0,0.0,0.0,0.0,0.0,0.0,0.0,0.0,0.0,0.0,0.0,0.0,0.0,0.0,0.0,0.0,0.0,0.0,0.0,0.0,0.0,0.0,0.0,0.0,0.0,0.0,0.0,0.0,0.0,0.0,0.0,0.0,0.0,0.0,0.3849,0.0,0.4778,0.0,0.4334,0.3821,0.0,0.0,0.0,0.0,0.0,0.0,0.0,0.0,0.0,0.0,0.0,0.0,0.0,0.0,0.0,0.0,0.0,0.0,0.0,0.0,0.0,0.0,0.0,0.0,0.0,0.0,0.0,0.0,0.0,0.0,0.0,0.0,0.0,0.0,0.0,0.0,0.0,0.0,0.0,0.0,0.0,0.0,0.0,0.0,0.0,0.0,0.0,0.0,0.0,0.0,0.0,0.0,0.0,0.0,0.0,0.0,0.0,0.0,0.0,0.0,0.0,0.0,0.0,0.0,0.0,0.0,0.0,0.0,0.0,0.0,0.0,0.0,0.0,0.0,0.0,0.0,0.0,0.0,0.0,0.0,0.0,0.0,0.0,0.0,0.0,0.0,0.0,0.0,0.0,0.0,0.0,0.0,0.0,0.0,0.0,0.0,0.0,0.0,0.0,0.0,0.0,0.0,0.0,0.0,0.0,0.0,0.0,0.0,0.3869,0.494,0.5442,0.5381,0.4827,0.4516,0.3897,0.0,0.0,0.0,0.0,0.0,0.0,0.0,0.0,0.0,0.0,0.0,0.0,0.0,0.0,0.0,0.0,0.0,0.0,0.0,0.0,0.0,0.0,0.0,0.0,0.0,0.0,0.0,0.0,0.0,0.0,0.0,0.0,0.0,0.0,0.0,0.0,0.0,0.0,0.0,0.0,0.0,0.0,0.0,0.0,0.0,0.0,0.0,0.0,0.0,0.0,0.0,0.0,0.0,0.0,0.0,0.0,0.0,0.0,0.0,0.0,0.0,0.0,0.0,0.0,0.0,0.0,0.0,0.0,0.0,0.0,0.0,0.0,0.0,0.0,0.0,0.0,0.0,0.0,0.0,0.0,0.0,0.0,0.0,0.0,0.0,0.0,0.0,0.0,0.0,0.0,0.0,0.0,0.0,0.0,0.0,0.0,0.0,0.0,0.0,0.0,0.0,0.0,0.0,0.0,0.0,0.0,0.0,0.0,0.0,0.4728,0.4714,0.4702,0.4714,0.4332,0.4063,0.0,0.0,0.0,0.0,0.0,0.0,0.0,0.0,0.0,0.0,0.0,0.0,0.0,0.0,0.0,0.0,0.0,0.0,0.0,0.0,0.0,0.0,0.0,0.0,0.0,0.0,0.0,0.0,0.0,0.0,0.0,0.0,0.0,0.0,0.0,0.0,0.0,0.0,0.0,0.0,0.0,0.0,0.0,0.0,0.0,0.0,0.0,0.0,0.0,0.0,0.0,0.0,0.0,0.0,0.0,0.0,0.0,0.0,0.0,0.0,0.0,0.0,0.0,0.0,0.0,0.0,0.0,0.0,0.0,0.0,0.0,0.0,0.0,0.0,0.0,0.0,0.0,0.0,0.0,0.0,0.0,0.0,0.0,0.0,0.0,0.0,0.0,0.0,0.0,0.0,0.0,0.0,0.0,0.0,0.0,0.0,0.0,0.0,0.0,0.0,0.0,0.0,0.0,0.0,0.0,0.0,0.0,0.0,0.0,0.5297,0.5005,0.4905,0.5062,0.4591,0.4335,0.4304,0.0,0.0,0.0,0.0,0.0,0.0,0.0,0.0,0.0,0.0,0.0,0.0,0.0,0.0,0.0,0.0,0.0,0.0,0.0,0.0,0.0,0.0,0.0,0.0,0.0,0.0,0.0,0.0,0.0,0.0,0.0,0.0,0.0,0.0,0.0,0.0,0.0,0.0,0.0,0.0,0.0,0.0,0.0,0.0,0.0,0.0,0.0,0.0,0.0,0.0,0.0,0.0,0.0,0.0,0.0,0.0,0.0,0.0,0.0,0.0,0.0,0.0,0.0,0.0,0.0,0.0,0.0,0.0,0.0,0.0,0.0,0.0,0.0,0.0,0.0,0.0,0.0,0.0,0.0,0.0,0.0,0.0,0.0,0.0,0.0,0.0,0.0,0.0,0.0,0.0,0.0,0.0,0.0,0.0,0.0,0.0,0.0,0.0,0.0,0.0,0.0,0.0,0.0,0.0,0.0,0.0,0.0,0.0,0.654,0.6149,0.5846,0.57,0.5217,0.4656,0.0,0.0,0.0,0.0,0.0,0.0,0.0,0.0,0.0,0.0,0.0,0.0,0.0,0.0,0.0,0.0,0.0,0.0,0.0,0.0,0.0,0.0,0.0,0.0,0.0,0.0,0.0,0.0,0.0,0.0,0.0,0.0,0.0,0.0,0.0,0.0,0.0,0.0,0.0,0.0,0.0,0.0,0.0,0.0,0.0,0.0,0.0,0.0,0.0,0.0,0.0,0.0,0.0,0.0,0.0,0.0,0.0,0.0,0.0,0.0,0.0,0.0,0.0,0.0,0.0,0.0,0.0,0.0,0.0,0.0,0.0,0.0,0.0,0.0,0.0,0.0,0.0,0.0,0.0,0.0,0.0,0.0,0.0,0.0,0.0,0.0,0.0,0.0,0.0,0.0,0.0,0.0,0.0,0.0,0.0,0.0,0.0,0.0,0.0,0.0,0.0,0.0,0.0,0.0,0.0,0.0,0.0,0.0,0.0,0.705,0.6557,0.6118,0.5784,0.5633,0.5225,0.0,0.0,0.0,0.0,0.0,0.0,0.0,0.0,0.0,0.0,0.0,0.0,0.0,0.0,0.0,0.0,0.0,0.0,0.0,0.0,0.0,0.0,0.0,0.0,0.0,0.0,0.0,0.0,0.0,0.0,0.0,0.0,0.0,0.0,0.0,0.0,0.0,0.0,0.0,0.0,0.0,0.0,0.0,0.0,0.0,0.0,0.0,0.0,0.0,0.0,0.0,0.0,0.0,0.0,0.0,0.0,0.0,0.0,0.0,0.0,0.0,0.0,0.0,0.0,0.0,0.0,0.0,0.0,0.0,0.0,0.0,0.0,0.0,0.0,0.0,0.0,0.0,0.0,0.0,0.0,0.0,0.0,0.0,0.0,0.0,0.0,0.0,0.0,0.0,0.0,0.0,0.0,0.0,0.0,0.0,0.0,0.0,0.0,0.0,0.0,0.0,0.0,0.0,0.0,0.0,0.0,0.0,0.0,0.6975,0.732,0.7087,0.6745,0.636,0.5979,0.5541,0.0,0.0,0.0,0.0,0.0,0.0,0.0,0.0,0.0,0.0,0.0,0.0,0.0,0.0,0.0,0.0,0.0,0.0,0.0,0.0,0.0,0.0,0.0,0.0,0.0,0.0,0.0,0.0,0.0,0.0,0.0,0.0,0.0,0.0,0.0,0.0,0.0,0.0,0.0,0.0,0.0,0.0,0.0,0.0,0.0,0.0,0.0,0.0,0.0,0.0,0.0,0.0,0.0,0.0,0.0,0.0,0.0,0.0,0.0,0.0,0.0,0.0,0.0,0.0,0.0,0.0,0.0,0.0,0.0,0.0,0.0,0.0,0.0,0.0,0.0,0.0,0.0,0.0,0.0,0.0,0.0,0.0,0.0,0.0,0.0,0.0,0.0,0.0,0.0,0.0,0.0,0.0,0.0,0.0,0.0,0.0,0.0,0.0,0.0,0.0,0.0,0.0,0.0,0.0,0.0,0.0,0.0,0.0,0.7235,0.7442,0.7609,0.7506,0.71,0.629,0.5711,0.0,0.0,0.0,0.0,0.0,0.0,0.0,0.0,0.0,0.0,0.0,0.0,0.0,0.0,0.0,0.0,0.0,0.0,0.0,0.0,0.0,0.0,0.0,0.0,0.0,0.0,0.0,0.0,0.0,0.0,0.0,0.0,0.0,0.0,0.0,0.0,0.0,0.0,0.0,0.0,0.0,0.0,0.0,0.0,0.0,0.0,0.0,0.0,0.0,0.0,0.0,0.0,0.0,0.0,0.0,0.0,0.0,0.0,0.0,0.0,0.0,0.0,0.0,0.0,0.0,0.0,0.0,0.0,0.0,0.0,0.0,0.0,0.0,0.0,0.0,0.0,0.0,0.0,0.0,0.0,0.0,0.0,0.0,0.0,0.0,0.0,0.0,0.0,0.0,0.0,0.0,0.0,0.0,0.0,0.0,0.0,0.0,0.0,0.0,0.0,0.0,0.0,0.0,0.0,0.0,0.0,0.0,0.0,0.7128,0.763,0.7676,0.7506,0.7126,0.6611,0.5941,0.0,0.0,0.0,0.0,0.0,0.0,0.0,0.0,0.0,0.0,0.0,0.0,0.0,0.0,0.0,0.0,0.0,0.0,0.0,0.0,0.0,0.0,0.0,0.0,0.0,0.0,0.0,0.0,0.0,0.0,0.0,0.0,0.0,0.0,0.0,0.0,0.0,0.0,0.0,0.0,0.0,0.0,0.0,0.0,0.0,0.0,0.0,0.0,0.3981,0.0,0.0,0.0,0.0,0.0,0.0,0.0,0.0,0.0,0.0,0.0,0.0,0.0,0.0,0.0,0.0,0.0,0.0,0.0,0.0,0.0,0.0,0.0,0.0,0.0,0.0,0.0,0.0,0.0,0.0,0.0,0.0,0.0,0.0,0.0,0.0,0.0,0.0,0.0,0.0,0.0,0.0,0.0,0.0,0.0,0.0,0.0,0.0,0.0,0.0,0.0,0.0,0.0,0.0,0.0,0.0,0.0,0.0,0.0,0.7266,0.7681,0.7515,0.7305,0.7085,0.6541,0.5841,0.0,0.0,0.0,0.0,0.0,0.0,0.0,0.0,0.0,0.0,0.0,0.0,0.0,0.0,0.0,0.0,0.0,0.0,0.0,0.0,0.0,0.0,0.0,0.0,0.0,0.0,0.0,0.0,0.0,0.0,0.0,0.0,0.0,0.0,0.0,0.0,0.0,0.0,0.0,0.0,0.0,0.0,0.0,0.0,0.0,0.0,0.0,0.0,0.0,0.0,0.0,0.0,0.0,0.0,0.0,0.0,0.0,0.0,0.0,0.0,0.0,0.0,0.0,0.0,0.0,0.0,0.0,0.0,0.0,0.0,0.0,0.0,0.0,0.0,0.0,0.0,0.0,0.0,0.0,0.0,0.0,0.0,0.0,0.0,0.0,0.0,0.0,0.0,0.0,0.0,0.0,0.0,0.0,0.0,0.0,0.0,0.0,0.0,0.0,0.0,0.0,0.0,0.0,0.0,0.0,0.0,0.0,0.6848,0.7238,0.7506,0.7187,0.6975,0.6901,0.6259,0.5561,0.4875,0.0,0.0,0.0,0.0,0.0,0.0,0.0,0.0,0.0,0.0,0.0,0.0,0.0,0.0,0.0,0.0,0.0,0.0,0.0,0.0,0.0,0.0,0.0,0.0,0.0,0.0,0.0,0.0,0.0,0.0,0.0,0.0,0.0,0.0,0.0,0.0,0.0,0.0,0.5126,0.594,0.0,0.0,0.0,0.0,0.0,0.0,0.0,0.0,0.3312,0.0,0.0,0.0,0.0,0.0,0.0,0.0,0.0,0.0,0.0,0.0,0.0,0.0,0.0,0.0,0.0,0.0,0.0,0.0,0.0,0.0,0.0,0.0,0.0,0.0,0.0,0.0,0.0,0.0,0.0,0.0,0.0,0.0,0.0,0.0,0.0,0.0,0.0,0.0,0.0,0.0,0.0,0.0,0.0,0.0,0.0,0.0,0.0,0.0,0.0,0.0,0.0,0.0,0.0,0.0,0.0,0.6138,0.587,0.605,0.6683,0.6639,0.6442,0.6121,0.5975,0.5355,0.4256,0.0,0.0,0.0,0.0,0.0,0.0,0.0,0.0,0.0,0.0,0.0,0.0,0.0,0.0,0.0,0.0,0.0,0.0,0.0,0.0,0.0,0.0,0.0,0.0,0.0,0.0,0.0,0.0,0.0,0.0,0.0,0.0,0.0,0.0,0.0,0.0,0.0,0.0,0.0,0.6001,0.5881,0.0,0.0,0.0,0.0,0.0,0.0,0.0,0.0,0.4025,0.0,0.0,0.0,0.0,0.0,0.0,0.0,0.0,0.0,0.0,0.0,0.0,0.0,0.0,0.0,0.0,0.0,0.0,0.0,0.0,0.0,0.0,0.0,0.0,0.0,0.0,0.0,0.0,0.0,0.0,0.0,0.0,0.0,0.0,0.0,0.0,0.0,0.0,0.0,0.0,0.0,0.0,0.0,0.0,0.0,0.0,0.0,0.0,0.0,0.0,0.0,0.0,0.0,0.0,0.0,0.5712,0.5888,0.6141,0.6471,0.629,0.6098,0.5898,0.54,0.4757,0.0,0.0,0.0,0.0,0.0,0.0,0.0,0.0,0.0,0.0,0.0,0.0,0.0,0.0,0.0,0.0,0.0,0.0,0.0,0.0,0.0,0.0,0.0,0.0,0.0,0.0,0.0,0.0,0.0,0.0,0.0,0.0,0.0,0.0,0.0,0.0,0.0,0.0,0.0,0.0,0.6943,0.686,0.6075,0.0,0.0,0.0,0.0,0.0,0.0,0.5013,0.5487,0.0,0.0,0.0,0.0,0.0,0.0,0.0,0.0,0.0,0.0,0.0,0.0,0.0,0.0,0.0,0.0,0.0,0.0,0.0,0.0,0.0,0.0,0.0,0.0,0.0,0.0,0.0,0.0,0.0,0.0,0.0,0.0,0.0,0.0,0.0,0.0,0.0,0.0,0.0,0.0,0.0,0.0,0.0,0.0,0.0,0.0,0.0,0.0,0.0,0.0,0.0,0.0,0.0,0.0,0.0,0.5206,0.5823,0.6203,0.6244,0.5944,0.5781,0.5758,0.4909,0.4277,0.0,0.0,0.0,0.0,0.0,0.0,0.0,0.0,0.0,0.0,0.0,0.0,0.0,0.0,0.0,0.0,0.0,0.0,0.0,0.0,0.0,0.0,0.0,0.0,0.0,0.0,0.0,0.0,0.0,0.0,0.0,0.0,0.0,0.0,0.0,0.0,0.0,0.0,0.0,0.0,0.0,0.805,0.6841,0.5154,0.0,0.0,0.0,0.0,0.473,0.6138,0.0,0.0,0.0,0.0,0.0,0.0,0.0,0.0,0.0,0.0,0.0,0.0,0.0,0.0,0.0,0.0,0.0,0.0,0.0,0.0,0.0,0.0,0.0,0.0,0.0,0.0,0.0,0.0,0.0,0.0,0.0,0.0,0.0,0.0,0.0,0.0,0.0,0.0,0.0,0.0,0.0,0.0,0.0,0.0,0.0,0.0,0.0,0.0,0.0,0.0,0.0,0.0,0.0,0.0,0.0,0.0,0.4501,0.4829,0.5145,0.5414,0.5381,0.5356,0.5356,0.4853,0.4246,0.0,0.0,0.0,0.0,0.0,0.0,0.0,0.0,0.0,0.0,0.0,0.0,0.0,0.0,0.0,0.0,0.0,0.0,0.0,0.0,0.0,0.0,0.0,0.0,0.0,0.0,0.0,0.0,0.0,0.0,0.0,0.0,0.0,0.0,0.0,0.0,0.0,0.0,0.0,0.0,0.0,0.8749,0.7772,0.6534,0.554,0.0,0.0,0.6483,0.5909,0.5831,0.0,0.0,0.0,0.0,0.0,0.0,0.0,0.0,0.0,0.0,0.0,0.0,0.0,0.0,0.0,0.0,0.0,0.0,0.0,0.0,0.0,0.0,0.0,0.0,0.0,0.0,0.0,0.0,0.0,0.0,0.0,0.0,0.0,0.0,0.0,0.0,0.0,0.0,0.0,0.0,0.0,0.0,0.0,0.0,0.0,0.0,0.0,0.0,0.0,0.0,0.0,0.0,0.0,0.0,0.0,0.4288,0.4416,0.4856,0.5157,0.5286,0.5309,0.5166,0.489,0.4415,0.3843,0.0,0.0,0.0,0.0,0.0,0.0,0.0,0.0,0.0,0.0,0.0,0.0,0.0,0.0,0.0,0.0,0.0,0.0,0.0,0.0,0.0,0.0,0.0,0.0,0.0,0.0,0.0,0.0,0.0,0.0,0.0,0.0,0.0,0.0,0.0,0.0,0.0,0.0,0.0,0.0,0.0,0.0,0.8182,0.6791,0.0,0.0,0.0,0.5344,0.6369,0.0,0.0,0.0,0.0,0.0,0.0,0.0,0.0,0.0,0.0,0.0,0.0,0.0,0.0,0.0,0.0,0.0,0.0,0.0,0.0,0.0,0.0,0.0,0.0,0.0,0.0,0.0,0.0,0.0,0.0,0.0,0.0,0.0,0.0,0.0,0.0,0.0,0.0,0.0,0.0,0.0,0.0,0.0,0.0,0.0,0.0,0.0,0.0,0.0,0.0,0.0,0.0,0.0,0.0,0.0,0.0,0.0,0.4502,0.5032,0.5309,0.5309,0.5309,0.5135,0.4772,0.4184,0.0,0.0,0.0,0.0,0.0,0.0,0.0,0.0,0.0,0.0,0.0,0.0,0.0,0.0,0.0,0.0,0.0,0.0,0.0,0.0,0.0,0.0,0.0,0.0,0.0,0.0,0.0,0.32,0.0,0.0,0.0,0.0,0.0,0.0,0.0,0.0,0.0,0.0,0.0,0.0,0.0,0.0,0.8116,0.8448,0.7023,0.5837,0.0,0.0,0.4621,0.654,0.6323,0.5383,0.0,0.0,0.0,0.0,0.0,0.0,0.0,0.0,0.0,0.0,0.0,0.0,0.0,0.0,0.0,0.0,0.0,0.0,0.0,0.0,0.0,0.0,0.0,0.0,0.0,0.0,0.0,0.0,0.0,0.0,0.0,0.0,0.0,0.0,0.0,0.0,0.0,0.0,0.0,0.0,0.0,0.0,0.0,0.0,0.0,0.0,0.0,0.0,0.0,0.0,0.0,0.0,0.0,0.0,0.0,0.4781,0.5117,0.5309,0.5309,0.5309,0.5277,0.5246,0.4424,0.3822,0.0,0.0,0.0,0.0,0.0,0.0,0.0,0.0,0.0,0.0,0.0,0.0,0.0,0.0,0.0,0.0,0.0,0.0,0.0,0.0,0.0,0.0,0.0,0.0,0.0,0.0,0.0,0.0,0.0,0.0,0.0,0.0,0.0,0.0,0.0,0.0,0.0,0.0,0.0,0.0,0.0,0.7986,0.8681,0.7641,0.6646,0.0,0.0,0.5533,0.654,0.7172,0.674,0.4429,0.0,0.0,0.0,0.0,0.0,0.0,0.0,0.0,0.0,0.0,0.0,0.0,0.0,0.0,0.0,0.0,0.0,0.0,0.0,0.0,0.0,0.0,0.0,0.0,0.0,0.0,0.0,0.0,0.0,0.0,0.0,0.0,0.0,0.0,0.0,0.0,0.0,0.0,0.0,0.0,0.0,0.0,0.0,0.0,0.0,0.0,0.0,0.0,0.0,0.0,0.0,0.0,0.0,0.4365,0.4801,0.5115,0.5309,0.5309,0.5309,0.516,0.4868,0.4296,0.3812,0.0,0.0,0.0,0.0,0.0,0.0,0.0,0.0,0.0,0.0,0.0,0.0,0.0,0.0,0.0,0.0,0.0,0.0,0.0,0.0,0.0,0.0,0.0,0.0,0.0,0.0,0.0,0.0,0.4706,0.5007,0.4864,0.0,0.0,0.0,0.0,0.0,0.0,0.0,0.0,0.0,0.0,0.8243,0.8723,0.756,0.0,0.0,0.6707,0.6449,0.6783,0.6481,0.5669,0.3992,0.2139,0.0,0.0,0.0,0.0,0.0,0.0,0.0,0.0,0.0,0.0,0.0,0.0,0.0,0.0,0.0,0.0,0.0,0.0,0.0,0.0,0.0,0.0,0.0,0.0,0.0,0.0,0.0,0.0,0.0,0.0,0.0,0.0,0.0,0.0,0.0,0.0,0.0,0.0,0.0,0.0,0.0,0.0,0.0,0.0,0.0,0.0,0.0,0.0,0.0,0.0,0.0,0.0,0.4396,0.4955,0.5193,0.5309,0.5309,0.5309,0.5151,0.4826,0.4415,0.3992,0.0,0.0,0.0,0.0,0.0,0.0,0.0,0.0,0.0,0.0,0.0,0.0,0.0,0.0,0.0,0.0,0.0,0.0,0.0,0.0,0.0,0.0,0.0,0.0,0.0,0.0,0.0,0.0,0.5224,0.5173,0.4735,0.0,0.0,0.0,0.0,0.0,0.0,0.0,0.0,0.0,0.0,0.8428,0.8896,0.772,0.7032,0.7782,0.7397,0.699,0.6937,0.6,0.474,0.3106,0.0,0.0,0.0,0.0,0.0,0.0,0.0,0.0,0.0,0.0,0.0,0.0,0.0,0.0,0.0,0.0,0.0,0.0,0.0,0.0,0.0,0.0,0.0,0.0,0.0,0.0,0.0,0.4401,0.0,0.0,0.35,0.0,0.0,0.0,0.0,0.0,0.0,0.0,0.0,0.0,0.0,0.0,0.0,0.0,0.0,0.0,0.0,0.0,0.0,0.0,0.0,0.0,0.0,0.4675,0.5273,0.5286,0.5309,0.5309,0.5309,0.5293,0.5261,0.4826,0.4505,0.4366,0.0,0.0,0.0,0.0,0.0,0.0,0.0,0.0,0.0,0.0,0.0,0.0,0.0,0.0,0.0,0.0,0.0,0.0,0.0,0.0,0.0,0.0,0.0,0.0,0.0,0.0,0.6238,0.5759,0.5203,0.0,0.0,0.0,0.0,0.0,0.0,0.0,0.0,0.0,0.0,0.7669,0.8483,0.9256,0.8237,0.7586,0.8009,0.746,0.6972,0.7037,0.605,0.4387,0.0,0.0,0.0,0.0,0.0,0.0,0.0,0.0,0.0,0.0,0.0,0.0,0.0,0.0,0.0,0.0,0.0,0.0,0.0,0.0,0.0,0.0,0.0,0.0,0.0,0.0,0.0,0.456,0.4147,0.0,0.0,0.0,0.0,0.0,0.0,0.0,0.0,0.0,0.0,0.0,0.3539,0.3101,0.0,0.0,0.0,0.0,0.0,0.0,0.0,0.0,0.0,0.0,0.0,0.0,0.4435,0.5257,0.5309,0.5309,0.5309,0.5309,0.5309,0.5293,0.4848,0.4495,0.4287,0.0,0.0,0.0,0.0,0.0,0.0,0.0,0.0,0.0,0.0,0.0,0.0,0.0,0.0,0.0,0.0,0.0,0.0,0.0,0.0,0.0,0.0,0.0,0.0,0.0,0.5519,0.0,0.0,0.0,0.0,0.0,0.0,0.0,0.0,0.0,0.0,0.0,0.6797,0.7951,0.7885,0.8114,0.9108,0.9298,0.8884,0.0,0.0,0.0,0.0,0.0,0.0,0.0,0.0,0.0,0.0,0.0,0.0,0.0,0.0,0.0945,0.0156,0.0,0.024,0.1035,0.0,0.0,0.0,0.0,0.0,0.0,0.0,0.0,0.0,0.0,0.0,0.0,0.0,0.0,0.443,0.0,0.4098,0.0,0.0,0.0,0.0,0.0,0.0,0.0,0.0,0.3516,0.341,0.3613,0.3264,0.312,0.0,0.306,0.2847,0.0,0.0,0.0,0.0,0.0,0.0,0.0,0.0,0.452,0.5401,0.5447,0.5431,0.544,0.5347,0.5309,0.5293,0.5007,0.4704,0.442,0.4321,0.4241,0.0,0.0,0.0,0.0,0.0,0.0,0.0,0.0,0.0,0.0,0.0,0.0,0.0,0.0,0.0,0.0,0.0,0.0,0.0,0.0,0.0,0.0,0.0,0.5614,0.0,0.0,0.0,0.0,0.0,0.0,0.0,0.0,0.0,0.7324,0.6889,0.6977,0.8319,0.8059,0.8063,0.9028,0.0,0.0,0.0,0.0,0.0,0.0,0.0,0.4616,0.3385,0.2105,0.1192,0.107,0.047,0.0527,0.2144,0.0,0.0,0.0328,0.0231,0.0828,0.2182,0.1992,0.1697,0.1969,0.1805,0.1417,0.0,0.0,0.0,0.0,0.0,0.0,0.0,0.0,0.4582,0.4512,0.0,0.4235,0.0,0.0,0.0,0.0,0.0,0.3269,0.0,0.0,0.3347,0.3329,0.3323,0.3209,0.3135,0.3141,0.3256,0.3242,0.311,0.2713,0.0,0.0,0.0,0.0,0.0,0.0,0.4946,0.565,0.5673,0.5708,0.5688,0.5444,0.5322,0.5316,0.5309,0.5135,0.4826,0.4806,0.4681,0.4416,0.3869,0.0,0.0,0.0,0.0,0.0,0.0,0.0,0.0,0.0,0.0,0.0,0.0,0.0,0.0,0.0,0.0,0.0,0.0,0.0,0.0,0.605,0.0,0.0,0.0,0.0,0.0,0.0,0.0,0.0,0.0,0.0,0.6865,0.7104,0.7445,0.8075,0.0,0.0,0.0,0.0,0.9588,0.7759,0.5527,0.4194,0.4661,0.5009,0.4611,0.2776,0.0,0.0,0.0493,0.0067,0.0849,0.3166,0.3775,0.3191,0.0661,0.0768,0.1691,0.3187,0.2938,0.247,0.2445,0.247,0.2328,0.5627,0.0,0.0,0.0,0.0,0.487,0.4829,0.4926,0.4502,0.4239,0.4126,0.4082,0.0,0.0,0.0,0.0,0.0,0.0,0.3825,0.4081,0.3892,0.3802,0.3802,0.3762,0.3741,0.3738,0.3671,0.3588,0.3464,0.3208,0.2946,0.2707,0.0,0.0,0.0,0.0,0.4476,0.5371,0.5407,0.5515,0.5701,0.5631,0.5491,0.5316,0.5309,0.5237,0.5157,0.5166,0.5017,0.4694,0.4528,0.0,0.0,0.0,0.0,0.0,0.0,0.0,0.0,0.0,0.0,0.0,0.0,0.0,0.0,0.0,0.0,0.0,0.0,0.0,0.4947,0.5415,0.5377,0.0,0.0,0.0,0.0,0.0,0.0,0.0,0.0,0.0,0.6161,0.6943,0.7864,0.0,0.0,0.7673,0.868,0.905,0.8455,0.6266,0.5034,0.0,0.4202,0.4146,0.3962,0.3591,0.3375,0.2797,0.1512,0.1274,0.1844,0.3587,0.3961,0.3717,0.3024,0.2132,0.2159,0.3249,0.3396,0.3255,0.3255,0.3255,0.3203,0.5459,0.5354,0.5565,0.5514,0.5271,0.5006,0.4905,0.4926,0.4556,0.4372,0.426,0.4284,0.4087,0.3774,0.3713,0.0,0.0,0.0,0.4,0.4247,0.4077,0.3994,0.3994,0.3994,0.3994,0.3991,0.3924,0.3839,0.3751,0.3598,0.3384,0.3178,0.0,0.0,0.3682,0.3872,0.4337,0.5093,0.5156,0.5214,0.5401,0.5498,0.5578,0.5655,0.5534,0.5451,0.5467,0.5353,0.5197,0.5002,0.4882,0.4662,0.0,0.0,0.0,0.0,0.0,0.0,0.0,0.0,0.0,0.0,0.0,0.306,0.3089,0.0,0.0,0.0,0.4349,0.4775,0.4831,0.5155,0.0,0.0,0.0,0.0,0.0,0.0,0.0,0.6414,0.6834,0.6831,0.6272,0.6293,0.6851,0.8135,0.7761,0.7645,0.84,0.0,0.6727,0.568,0.4942,0.4399,0.4117,0.402,0.4017,0.4165,0.3783,0.3323,0.2795,0.267,0.3035,0.3904,0.4195,0.4132,0.4014,0.3363,0.3064,0.3799,0.3856,0.3744,0.373,0.375,0.3724,0.5315,0.5212,0.5901,0.5823,0.531,0.5449,0.5227,0.474,0.4707,0.4737,0.4711,0.4707,0.448,0.4062,0.3944,0.0,0.4065,0.4068,0.4072,0.4062,0.4055,0.4048,0.407,0.4038,0.4031,0.4056,0.4046,0.4011,0.4004,0.388,0.3764,0.3609,0.3331,0.3371,0.3757,0.402,0.4375,0.4862,0.4862,0.4893,0.4918,0.5154,0.5565,0.609,0.5848,0.5711,0.5698,0.5447,0.5309,0.5302,0.5002,0.4805,0.4736,0.0,0.0,0.0,0.0,0.0,0.0,0.0,0.0,0.0,0.0,0.0,0.0,0.0,0.0,0.0,0.4756,0.0,0.4877,0.5074,0.0,0.0,0.0,0.4781,0.5297,0.5885,0.6465,0.7003,0.0,0.0,0.6726,0.5376,0.5023,0.6509,0.7375,0.7918,0.8063,0.6065,0.4814,0.5607,0.5054,0.445,0.4259,0.4367,0.444,0.445,0.4259,0.4026,0.3981,0.3981,0.4146,0.4419,0.4487,0.4409,0.4078,0.421,0.4487,0.4433,0.4233,0.4022,0.3914,0.3944,0.3921,0.5674,0.5633,0.5829,0.5542,0.4991,0.5056,0.4984,0.4863,0.4867,0.4863,0.4863,0.4837,0.4806,0.4672,0.4638,0.4641,0.4675,0.4707,0.4704,0.4668,0.4582,0.4531,0.4524,0.4436,0.4385,0.4378,0.422,0.4169,0.4137,0.4014,0.3923,0.391,0.3839,0.3681,0.3501,0.3662,0.3995,0.4521,0.4517,0.4637,0.4898,0.5154,0.5378,0.5521,0.5636,0.5711,0.5705,0.5454,0.5309,0.5309,0.5226,0.494,0.4376,0.411,0.0,0.0,0.0,0.0,0.0,0.0,0.0,0.0,0.0,0.2991,0.2954,0.0,0.4199,0.0,0.425,0.4582,0.4541,0.4578,0.0,0.0,0.4498,0.4596,0.5715,0.5396,0.5764,0.7504,0.7819,0.7162,0.529,0.473,0.4812,0.5708,0.6791,0.7375,0.6993,0.5589,0.4574,0.4791,0.4649,0.4501,0.4426,0.4453,0.4498,0.4487,0.4429,0.4385,0.4382,0.4385,0.4412,0.4477,0.4491,0.446,0.4389,0.4447,0.4484,0.4487,0.4429,0.4307,0.4043,0.3984,0.3977,0.5864,0.58,0.58,0.561,0.5308,0.5243,0.522,0.5213,0.5145,0.5077,0.4978,0.4914,0.4924,0.4975,0.4948,0.4918,0.4918,0.4918,0.4918,0.4911,0.4762,0.4694,0.4713,0.4563,0.4491,0.4487,0.4382,0.4318,0.4334,0.4166,0.4099,0.4092,0.4028,0.3873,0.3663,0.3757,0.3899,0.4138,0.4087,0.4241,0.4661,0.4821,0.5044,0.53,0.532,0.5356,0.5332,0.5074,0.4854,0.4821,0.4798,0.4589,0.4126,0.3889,0.3574,0.0,0.0,0.0,0.0,0.0,0.0,0.0,0.0,0.0,0.0,0.0,0.3818,0.3888,0.4092,0.4282,0.4391,0.4546,0.4644,0.4713,0.4527,0.4738,0.5605,0.5495,0.5873,0.7159,0.7326,0.665,0.4933,0.4667,0.4808,0.5174,0.5857,0.636,0.6465,0.5391,0.4491,0.4491,0.4491,0.4491,0.4491,0.4607,0.4663,0.4667,0.4663,0.4626,0.4518,0.4491,0.4528,0.4626,0.4586,0.4491,0.4491,0.4491,0.4491,0.4491,0.4491,0.4426,0.4253,0.3951,0.377,0.5983,0.5861,0.5861,0.5861,0.585,0.5705,0.5633,0.561,0.5511,0.5332,0.5147,0.4881,0.4856,0.4925,0.4712,0.4633,0.463,0.4599,0.463,0.4621,0.4604,0.4595,0.4591,0.454,0.4522,0.4546,0.4501,0.4491,0.4484,0.4311,0.425,0.4217,0.4115,0.4051,0.4051,0.4048,0.3992,0.3822,0.3706,0.3843,0.4318,0.4381,0.4648,0.5142,0.5007,0.4913,0.4888,0.4587,0.435,0.4238,0.4228,0.4145,0.3985,0.3679,0.3438,0.0,0.3015,0.0,0.0,0.0,0.0,0.0,0.0,0.0,0.0,0.321,0.3399,0.4317,0.4195,0.4133,0.4337,0.4622,0.4618,0.4246,0.4534,0.4952,0.5284,0.5749,0.6113,0.6303,0.6346,0.5975,0.5104,0.4955,0.4935,0.4931,0.4981,0.5255,0.5832,0.5163,0.4505,0.4535,0.4549,0.46,0.4665,0.4819,0.4972,0.4975,0.4921,0.4826,0.4607,0.4566,0.4626,0.4874,0.4812,0.461,0.4518,0.4491,0.4405,0.4153,0.407,0.4095,0.4168,0.3795,0.3525,0.6238,0.6211,0.6214,0.6211,0.6201,0.6013,0.5874,0.5759,0.5732,0.5637,0.5426,0.4571,0.4164,0.4147,0.3434,0.313,0.313,0.313,0.313,0.3158,0.3707,0.3971,0.3989,0.4444,0.4646,0.464,0.4552,0.4491,0.4491,0.4464,0.445,0.445,0.4419,0.4406,0.4406,0.0,0.0,0.0,0.3829,0.3817,0.3929,0.4222,0.4456,0.4583,0.4779,0.0,0.4888,0.4568,0.4404,0.4361,0.4356,0.0,0.0,0.0,0.0,0.0,0.0,0.0,0.0,0.0,0.0,0.0,0.3306,0.3209,0.3201,0.3124,0.3438,0.431,0.4412,0.4319,0.4105,0.4126,0.4415,0.4973,0.462,0.4621,0.5327,0.5254,0.5011,0.4888,0.5025,0.5206,0.5285,0.5173,0.5009,0.4887,0.4921,0.462,0.4044,0.4285,0.4537,0.4772,0.4819,0.4918,0.5187,0.5255,0.5283,0.5286,0.5064,0.4918,0.485,0.4833,0.4931,0.5242,0.5266,0.504,0.46,0.4491,0.4128,0.2901,0.2676,0.276,0.3181,0.3347,0.3222,0.5252,0.4727,0.4724,0.4724,0.0,0.4624,0.4531,0.4505,0.5422,0.5474,0.4838,0.3823,0.3356,0.3347,0.2904,0.2678,0.2678,0.2678,0.2678,0.2708,0.3024,0.3398,0.3807,0.4044,0.438,0.4802,0.4728,0.4687,0.4687,0.4691,0.465,0.4604,0.46,0.4566,0.4491,0.4491,0.4382,0.4109,0.396,0.387,0.3815,0.3989,0.4089,0.4008,0.4165,0.0,0.0,0.0,0.0,0.0,0.0,0.0,0.0,0.0,0.0,0.3249,0.3187,0.3208,0.3334,0.3391,0.352,0.3673,0.3728,0.3648,0.347,0.352,0.3736,0.426,0.4423,0.4429,0.4256,0.4239,0.4457,0.4898,0.4611,0.4593,0.5062,0.4958,0.4791,0.4801,0.4877,0.5061,0.5354,0.5313,0.5,0.4565,0.4461,0.4214,0.3616,0.3623,0.4027,0.4938,0.4996,0.5026,0.5324,0.5395,0.5395,0.5371,0.5269,0.5184,0.5138,0.5138,0.5225,0.5368,0.5395,0.5148,0.4306,0.4289,0.4098,0.2845,0.1788,0.1229,0.1482,0.1927,0.2287,0.3985,0.3123,0.3108,0.3103,0.3103,0.313,0.3124,0.3191,0.0,0.0,0.0,0.2909,0.2475,0.2461,0.2284,0.2215,0.2228,0.2228,0.2221,0.2242,0.2257,0.2654,0.3354,0.3388,0.3779,0.4461,0.4436,0.4516,0.4671,0.4671,0.4703,0.4738,0.4733,0.4641,0.4501,0.4491,0.4406,0.426,0.4112,0.3974,0.3877,0.3846,0.3802,0.3682,0.3682,0.3682,0.3679,0.3679,0.3576,0.3433,0.3427,0.337,0.3266,0.328,0.3374,0.3632,0.3659,0.371,0.3826,0.3923,0.3978,0.3877,0.4102,0.4142,0.389,0.4012,0.4136,0.4287,0.4457,0.4573,0.4573,0.4569,0.4624,0.4718,0.4662,0.4696,0.4877,0.4931,0.4992,0.5071,0.5119,0.5204,0.5365,0.5223,0.4891,0.4115,0.3832,0.3613,0.3261,0.2925,0.3199,0.4183,0.4636,0.5101,0.532,0.5395,0.5395,0.5392,0.5388,0.5395,0.5395,0.5395,0.5395,0.5388,0.5193,0.4552,0.3827,0.3884,0.3826,0.2854,0.0,0.0,0.0,0.0476,0.109,0.3243,0.3104,0.3125,0.3099,0.3095,0.311,0.3124,0.3117,0.3264,0.3226,0.3035,0.1944,0.1487,0.1445,0.0724,0.0393,0.0384,0.0384,0.0379,0.0404,0.1136,0.1532,0.1695,0.2331,0.2714,0.2836,0.2677,0.3009,0.3717,0.3781,0.4138,0.4783,0.4755,0.4644,0.4501,0.4491,0.4477,0.4457,0.4264,0.4153,0.4156,0.4031,0.3954,0.3933,0.3927,0.3937,0.3933,0.393,0.3923,0.3903,0.3903,0.3893,0.3869,0.3856,0.389,0.393,0.3933,0.3944,0.3988,0.3987,0.4041,0.413,0.4338,0.4358,0.418,0.4317,0.4494,0.4613,0.4755,0.4857,0.4853,0.481,0.4847,0.4887,0.4972,0.5003,0.4948,0.516,0.5235,0.5126,0.5248,0.5347,0.5315,0.4722,0.4051,0.3651,0.308,0.2579,0.1907,0.1829,0.196,0.2322,0.3946,0.517,0.5282,0.5395,0.5395,0.5395,0.5395,0.5395,0.5395,0.5395,0.5395,0.5395,0.4156,0.3286,0.3317,0.3219,0.2635,0.1676,0.0588,0.0,0.0,0.0,0.0,0.2035,0.1468,0.1411,0.1436,0.1416,0.1423,0.1409,0.1408,0.1355,0.1657,0.2078,0.1067,0.0602,0.0558,0.0186,0.0,0.0,0.0,0.0,0.0,0.0406,0.0839,0.1306,0.1688,0.2105,0.2594,0.2496,0.2704,0.3061,0.3091,0.3512,0.4267,0.4561,0.4657,0.4614,0.4532,0.4491,0.4491,0.4399,0.4324,0.4223,0.4153,0.4078,0.3998,0.3994,0.3994,0.3994,0.3994,0.3994,0.3994,0.3994,0.3994,0.3994,0.3994,0.4031,0.4109,0.4119,0.4149,0.4256,0.4263,0.429,0.4362,0.4453,0.4464,0.4372,0.445,0.4546,0.4604,0.4914,0.5053,0.4833,0.487,0.4948,0.4995,0.5088,0.5119,0.5159,0.5296,0.5354,0.5247,0.4904,0.4855,0.5326,0.4181,0.3113,0.2648,0.1878,0.0,0.0,0.0,0.0969,0.138,0.2056,0.3074,0.4317,0.509,0.5359,0.5395,0.5395,0.5395,0.5395,0.5395,0.5395,0.5193,0.3217,0.1566,0.1692,0.2303,0.1936,0.0827,0.028,0.0,0.0,0.0,0.0,0.0866,0.0,0.0,0.0,0.0,0.0,0.0,0.0,0.0,0.0471,0.1058,0.0353,0.0,0.0,0.0,0.0,0.0,0.0,0.0,0.0,0.0,0.034,0.0948,0.101,0.1408,0.2044,0.2111,0.2178,0.2377,0.2376,0.2869,0.3741,0.4254,0.4578,0.4687,0.4604,0.4525,0.4491,0.4491,0.4409,0.4274,0.4271,0.4239,0.4131,0.4121,0.4121,0.4117,0.4117,0.4121,0.4121,0.4121,0.4117,0.4121,0.4095,0.4172,0.4257,0.4271,0.4341,0.4477,0.4491,0.4491,0.4491,0.4491,0.4491,0.4491,0.4491,0.4505,0.459,0.4993,0.5143,0.486,0.469,0.4744,0.4842,0.4798,0.4672,0.4794,0.4891,0.4924,0.4755,0.4148,0.3982,0.4317,0.338,0.2177,0.141,0.0572,0.0,0.0,0.0,0.0,0.0639,0.0437,0.0974,0.3045,0.4586,0.5074,0.4956,0.4937,0.5084,0.5272,0.5395,0.4791,0.4084,0.1949,0.0,0.0,0.1025,0.1329,0.0,0.0,0.0,0.0,0.0,0.0,0.0,0.0,0.0,0.0,0.0,0.0,0.0,0.0,0.0,0.0,0.0,0.0,0.0,0.0,0.0,0.0,0.0,0.0,0.0,0.0,0.0,0.0,0.0,0.0,0.0,0.0,0.0,0.0773,0.1408,0.1474,0.2244,0.3631,0.3853,0.4176,0.4607,0.468,0.4631,0.4494,0.4491,0.4484,0.447,0.447,0.4464,0.4481,0.4443,0.4477,0.4429,0.445,0.4447,0.445,0.444,0.4447,0.4443,0.4443,0.445,0.4467,0.4467,0.4477,0.4487,0.4491,0.4491,0.4491,0.4491,0.4491,0.4491,0.4491,0.4549,0.4692,0.4847,0.4965,0.499,0.4493,0.4134,0.4043,0.3921,0.3542,0.3245,0.3418,0.3551,0.3013,0.2978,0.2876,0.2978,0.2143,0.1174,0.0,0.0,0.0,0.0,0.0,0.0,0.0,0.0,0.0437,0.1742,0.3782,0.4284,0.3381,0.3675,0.427,0.4769,0.4942,0.4556,0.1934,0.0,0.0,0.0,0.0207,0.0173,-0.0175,0.0,0.0,0.0,0.0,0.0,0.0,0.0,0.0,0.0,0.0,0.0,0.0,0.0,0.0,0.0,0.0,0.0,0.0,0.0,0.0,0.0,0.0,0.0,0.0,0.0,0.0,0.0,0.0,0.0,0.0,0.0,0.0,0.0,0.0572,0.104,0.1664,0.2397,0.3266,0.3922,0.4203,0.4592,0.4748,0.4602,0.4624,0.4583,0.4501,0.4491,0.4491,0.4491,0.4491,0.4491,0.4491,0.4491,0.4491,0.4491,0.4491,0.4491,0.4491,0.4491,0.4491,0.4491,0.4491,0.4491,0.4491,0.4491,0.4491,0.4491,0.4491,0.4491,0.4491,0.4491,0.4552,0.468,0.483,0.476,0.4382,0.4112,0.3782,0.3347,0.3113,0.2947,0.2746,0.288,0.2947,0.2678,0.2377,0.2312,0.241,0.1442,0.0471,0.0,0.0,0.0,0.0,0.0,0.0,0.0,0.0,0.0,0.1375,0.1712,0.2431,0.3041,0.3191,0.3436,0.3247,0.3643,0.288,0.037,0.0,0.0,0.0,-0.105,-0.0966,-0.121,-0.1495,-0.1518,-0.1742,-0.1538,-0.1619,0.0,0.0,0.0,0.0,0.0,0.0,0.0,0.0,0.0,0.0,0.0,0.0,0.0,0.0,0.0,0.0,0.0,0.0,0.0,0.0,0.0,0.0,0.0,0.0,0.0,0.0,0.0,0.0,0.0,0.0605,0.1073,0.1469,0.2523,0.3326,0.3807,0.436,0.4658,0.4732,0.4718,0.4665,0.4566,0.4539,0.4491,0.4491,0.4491,0.4491,0.4491,0.4491,0.4491,0.4491,0.4491,0.4491,0.4491,0.4491,0.4491,0.4491,0.4491,0.4491,0.4491,0.4491,0.4491,0.4491,0.4491,0.4536,0.4563,0.4543,0.4604,0.4776,0.4513,0.4066,0.3903,0.3486,0.2976,0.2377,0.2143,0.1977,0.191,0.1944,0.191,0.191,0.1477,0.1442,0.1677,0.0,0.0,0.0,0.0,0.0,0.0,0.0,0.0,0.0,0.0,0.0,0.1075,0.0807,0.1042,0.1774,0.2231,0.2089,0.1497,0.1787,0.1897,0.0,0.0,0.0,0.0,-0.1806,-0.1959,-0.2521,-0.2878,-0.2905,-0.2731,-0.2768,-0.3289,0.0,0.0,0.0,0.0,0.0,0.0,0.0,0.0,0.0,0.0,0.0,0.0,0.0,0.0,0.0,0.0,0.0,0.0,0.0,0.0,0.0,0.0,0.0,0.0,0.0,0.0,0.0,0.0,0.0,0.0,0.0471,0.1272,0.1469,0.2272,0.348,0.3813,0.4196,0.4725,0.4756,0.4694,0.4699,0.4573,0.4511,0.4515,0.4491,0.4487,0.4432,0.4463,0.446,0.446,0.4432,0.446,0.446,0.4491,0.4491,0.4491,0.4491,0.4491,0.4491,0.4491,0.4491,0.4491,0.4505,0.4552,0.4668,0.4597,0.4702,0.5029,0.3935,0.3353,0.3556,0.2538,0.1674,0.1474,0.0672,0.0,0.0,0.0,0.0,0.0,0.0,0.0,0.0,0.0067,0.0,0.0,0.0,0.0,0.0,0.0,0.0,0.0,0.0,0.0,0.0,0.0,0.0,0.0638,0.1225,0.1134,0.0541,0.0094,0.0061,-0.0117,0.0,0.0,0.0,-0.2486,-0.2799,-0.3313,-0.3964,-0.4056,-0.3306,-0.3937,-0.4294,0.0,0.0,0.0,0.0,0.0,0.0,0.0,0.0,0.0,0.0,0.0,0.0,0.0,0.0,0.0,0.0,0.0,0.0,0.0,0.0,0.0,0.0,0.0,0.0,0.0,0.0,0.0,0.0,0.0,0.0,0.0135,0.0505,0.104,0.1632,0.2311,0.3359,0.403,0.4239,0.4652,0.4901,0.484,0.4782,0.4755,0.4741,0.4593,0.4267,0.376,0.3763,0.3566,0.3037,0.3486,0.3732,0.379,0.4236,0.4491,0.4491,0.4491,0.4491,0.4491,0.4491,0.4491,0.4498,0.4583,0.4594,0.4687,0.4731,0.4853,0.4907,0.4795,0.432,0.3449,0.2232,0.1307,0.1207,0.0,0.0,0.0,0.0,0.0,0.0,0.0,0.0,0.0,0.0,0.0,0.0,0.0,0.0,0.0,0.0,0.0,0.0,0.0,0.0,0.0,0.0,0.0,0.0,0.03,0.0399,0.0033,-0.0196,-0.0224,-0.1003,-0.1432,-0.2484,-0.3478,-0.3584,-0.3831,-0.3663,-0.4351,-0.4355,-0.3567,-0.4122,-0.4407,0.0,0.0,0.0,0.0,0.0,0.0,0.0,0.0,0.0,0.0,0.0,0.0,0.0,0.0,0.0,0.0,0.0,0.0,0.0,0.0,0.0,0.0,0.0,0.0,0.0,0.0,0.0,0.0,0.0,0.0,0.0,0.0,0.0605,0.104,0.1508,0.2845,0.364,0.3941,0.4673,0.5046,0.4961,0.4911,0.4762,0.4494,0.4302,0.3972,0.3395,0.3002,0.2658,0.233,0.2676,0.2936,0.3022,0.3447,0.3879,0.4048,0.4119,0.4239,0.4432,0.4294,0.4125,0.4104,0.3966,0.3908,0.4012,0.4526,0.4766,0.4785,0.5133,0.499,0.412,0.2744,0.1775,0.1675,0.1041,0.0672,0.0841,0.0,0.0,0.0,0.0,0.0,0.0,0.0,0.0,0.0,0.0,0.0,0.0,0.0,0.0,0.0,0.0,0.0,0.0,0.0,0.0,0.0,0.0,-0.0269,-0.037,-0.0505,-0.0929,-0.1769,-0.2805,-0.4036,-0.4641,-0.4701,-0.4505,-0.4119,-0.4342,-0.4577,-0.4292,-0.4238,-0.4353,0.0,0.0,0.0,0.0,0.0,0.0,0.0,0.0,0.0,0.0,0.0,0.0,0.0,0.0,0.0,0.0,0.0,0.0,0.0,0.0,0.0,0.0,0.0,0.0,0.0,0.0,0.0,0.0,0.0,0.0,0.0,0.0,0.0,0.0505,0.1274,0.2175,0.3111,0.385,0.4593,0.5011,0.5055,0.4895,0.4433,0.374,0.3538,0.347,0.3439,0.2227,0.1737,0.201,0.2138,0.2208,0.2278,0.238,0.2609,0.3179,0.3303,0.3672,0.4203,0.3739,0.3383,0.3327,0.2742,0.2571,0.2952,0.3919,0.4402,0.3957,0.471,0.5326,0.5057,0.3813,0.2778,0.2644,0.2078,0.1945,0.2312,0.2078,0.1309,0.0,0.0,0.0,0.0,0.0,0.0,0.0,0.0,0.0,0.0,0.0,0.0,0.0,0.0,0.0,0.0,0.0,0.0,0.0,0.0,-0.0806,-0.1041,-0.1243,-0.1745,-0.2515,-0.332,-0.448,-0.4662,-0.475,-0.4806,-0.4581,-0.483,-0.4674,-0.4422,-0.4203,-0.4176,0.0,0.0,0.0,0.0,0.0,0.0,0.0,0.0,0.0,0.0,0.0,0.0,0.0,0.0,0.0,0.0,0.0,0.0,0.0,0.0,0.0,0.0,0.0,0.0,0.0,0.0,0.0,0.0,0.0,0.0,0.0,0.0,0.0,0.0,0.0471,0.1275,0.2175,0.3074,0.3914,0.4325,0.4325,0.4322,0.3846,0.3032,0.261,0.2251,0.1986,0.15,0.1072,0.0772,0.117,0.166,0.2086,0.2191,0.2301,0.2509,0.2552,0.2625,0.2833,0.2738,0.2593,0.2578,0.2422,0.2443,0.2508,0.3029,0.3275,0.3143,0.442,0.5395,0.5292,0.4957,0.4184,0.3382,0.2815,0.2713,0.2982,0.1779,0.0538,0.0,0.0,0.0,0.0,0.0,0.0,0.0,0.0,0.0,0.0,0.0,0.0,0.0,0.0,0.0,0.0,0.0,0.0,0.0,0.0,0.0,-0.1208,-0.191,-0.2445,-0.279,-0.3671,-0.4276,-0.451,-0.4627,-0.459,-0.4657,-0.4574,-0.4372,-0.4077,-0.3912,-0.3772,0.0,0.0,0.0,0.0,0.0,0.0,0.0,0.0,0.0,0.0,0.0,0.0,0.0,0.0,0.0,0.0,0.0,0.0,0.0,0.0,0.0,0.0,0.0,0.0,0.0,0.0,0.0,0.0,0.0,0.0,0.0,0.0,0.0,0.0,0.0,0.0873,0.1641,0.2242,0.3045,0.3513,0.3513,0.3513,0.3078,0.2277,0.181,0.1375,0.0904,0.0713,0.0478,0.0159,0.0446,0.0924,0.1335,0.1354,0.1501,0.1747,0.1825,0.1903,0.2119,0.199,0.18,0.1782,0.1673,0.1548,0.1641,0.1963,0.2374,0.2579,0.4184,0.5395,0.5395,0.5395,0.5024,0.4389,0.3984,0.3749,0.3585,0.2449,0.1008,0.0,0.0,0.0303,0.0,0.0,0.0,0.0471,0.0,0.0,0.0,0.0,0.0,0.0,0.0,0.0,0.0,0.0,0.0,0.0,0.0,0.0,-0.084,-0.1909,-0.2674,-0.2126,-0.2523,-0.3391,-0.3728,-0.3893,-0.3953,-0.4097,-0.3971,-0.3777,-0.3399,-0.3278,-0.3102,0.0,0.0,0.0,0.0,0.0,0.0,0.0,0.0,0.0,0.0,0.0,0.0,0.0,0.0,0.0,0.0,0.0,0.0,0.0,0.0,0.0,0.0,0.0,0.0,0.0,0.0,0.0,0.0,0.0,0.0,0.0,0.0,0.0,0.0,0.0,0.084,0.1207,0.1541,0.221,0.2609,0.2609,0.2609,0.2177,0.1307,0.1174,0.0839,0.0269,0.0,0.0,0.0,0.0,0.0,0.0,0.0066,0.0614,0.1192,0.1162,0.1495,0.1828,0.1436,0.1057,0.099,0.0,0.0,0.0,0.1283,0.2045,0.2313,0.4151,0.5395,0.5395,0.5395,0.5359,0.5392,0.5126,0.4821,0.4215,0.3915,0.2815,0.1276,0.1006,0.1006,0.0236,0.0,0.0,0.1108,0.0,0.0,0.0,0.0,0.0,0.0,0.0,0.0,0.0,0.0,0.0,0.0,0.0,0.0,0.0,0.0,0.0,-0.1478,0.0,0.0,-0.2942,-0.3158,-0.2962,-0.2654,-0.2655,-0.2752,-0.2729,-0.2589,-0.2291,0.0,0.0,0.0,0.0,0.0,0.0,0.0,0.0,0.0,0.0,0.0,0.0,0.0,0.0,0.0,0.0,0.0,0.0,0.0,0.0,0.0,0.0,0.0,0.0,0.0,0.0,0.0,0.0,0.0,0.0,0.0,0.0,0.0,0.0,0.0,0.0,0.0671,0.1207,0.1474,0.1675,0.1675,0.1675,0.1208,0.0437,0.0,0.0,0.0,0.0,0.0,0.0,0.0,0.0,0.0,0.0633,0.1092,0.1255,0.1283,0.1309,0.1342,0.082,0.0358,0.0288,0.0,0.0,0.0,0.1123,0.214,0.3084,0.4556,0.5395,0.5395,0.5395,0.5395,0.5395,0.5395,0.5292,0.4954,0.4417,0.3882,0.3885,0.2947,0.1677,0.0874,0.0538,0.1041,0.1309,0.0,0.0,0.0,0.0,0.0,0.0,0.0,0.0,0.0,0.0,0.0,0.0,0.0,0.0,0.0,0.0,0.0,-0.0298,0.0,0.0,0.0,-0.2516,-0.1998,-0.1435,-0.1604,-0.1855,-0.185,-0.1754,-0.1455,0.0,0.0,0.0,0.0,0.0,0.0,0.0,0.0,0.0,0.0,0.0,0.0,0.0,0.0,0.0,0.0,0.0,0.0,0.0,0.0,0.0,0.0,0.0,0.0,0.0,0.0,0.0,0.0,0.0,0.0,0.0,0.0,0.0,0.0,0.0,0.0,0.0,0.0674,0.0773,0.0739,0.0739,0.0773,0.0538,0.0,0.0,0.0,0.0,0.0,0.0,0.0,0.0,0.0572,0.0639,0.1408,0.1876,0.1908,0.1876,0.1741,0.1273,0.0806,0.0401,0.0,0.0,0.0,0.0,0.1287,0.2604,0.3143,0.4553,0.5259,0.5395,0.5395,0.5395,0.5395,0.5395,0.5395,0.5395,0.4921,0.4855,0.4821,0.3882,0.2778,0.2047,0.1476,0.0941,0.084,0.0471,0.0,0.0,0.0,0.0,0.0,0.0,0.0,0.0,0.0,0.0,0.0,0.0,0.0,0.0,0.0,0.0,0.0,0.0,0.0,0.0,0.0,-0.1029,-0.0714,-0.0842,0.0,0.0,0.0,0.0,0.0,0.0,0.0,0.0,0.0,0.0,0.0,0.0,0.0,0.0,0.0,0.0,0.0,0.0,0.0,0.0,0.0,0.0,0.0,0.0,0.0,0.0,0.0,0.0,0.0,0.0,0.0,0.0,0.0,0.0,0.0,0.0,0.0,0.0,0.0,0.0,0.0,0.0,0.0,0.0,0.0,0.0,0.0,0.0,0.0,0.0,0.0,0.0572,0.0705,0.0,0.0906,0.1408,0.1574,0.2344,0.2778,0.2845,0.2809,0.2509,0.1741,0.1508,0.0974,0.0,0.0,0.0,0.0,0.1417,0.2427,0.2774,0.4253,0.5024,0.5395,0.5395,0.5395,0.5395,0.5395,0.5395,0.5395,0.5395,0.5395,0.5326,0.3849,0.3816,0.3449,0.2382,0.0,0.0,0.0,0.0538,0.0706,0.0,0.0,0.0,0.0,0.0,0.0,0.0,0.0,0.0,0.0,0.0,0.0,0.0,0.0,0.0,0.0,0.0,0.0,0.0,0.0,0.0,0.0,0.0,0.0,0.0,0.0,0.0,0.0,0.0,0.0,0.0,0.0,0.0,0.0,0.0,0.0,0.0,0.0,0.0,0.0,0.0,0.0,0.0,0.0,0.0,0.0,0.0,0.0,0.0,0.0,0.0,0.0,0.0,0.0,0.0,0.0,0.0,0.0,0.0,0.0,0.0,0.0,0.0,0.0,0.0,0.0,0.0,0.0,0.0,0.0,0.0,0.0,0.0,0.0202,0.0168,0.0438,0.1476,0.2377,0.2476,0.3213,0.3682,0.3749,0.3713,0.3613,0.3213,0.2175,0.124,0.1039,0.0,0.0,0.0,0.1069,0.2027,0.2611,0.3516,0.4558,0.5259,0.5395,0.5395,0.5395,0.5395,0.5395,0.5395,0.5395,0.5395,0.5156,0.435,0.308,0.1611,0.1677,0.0,0.0,0.0,0.0,0.0,0.0,0.0,0.0,0.0,0.0,0.0,0.0,0.0,0.0,0.0,0.0,0.0,0.0,0.0,0.0,0.0,0.0,0.0,0.0,0.0,0.0,0.0,0.0,0.0,0.0,0.0,0.0,0.0,0.0,0.0,0.0,0.0,0.0,0.0,0.0,0.0,0.0,0.0,0.0,0.0,0.0,0.0,0.0,0.0,0.0,0.0,0.0,0.0,0.0,0.0,0.0,0.0,0.0,0.0,0.0,0.0,0.0,0.0,0.0,0.0,0.0,0.0,0.0,0.0,0.0,0.0,0.0,0.0,0.0,0.0,0.0,0.0,0.0,0.0437,0.084,0.1442,0.2512,0.3111,0.3045,0.3949,0.4586,0.4652,0.4655,0.4384,0.3782,0.3178,0.2444,0.1976,0.1509,0.0,0.141,0.1945,0.2579,0.328,0.4018,0.4794,0.5326,0.5395,0.5395,0.5395,0.5395,0.5395,0.5395,0.5395,0.5395,0.5123,0.4148,0.2379,0.1175,0.0,0.0,0.0,0.0,0.0,0.0,0.0,0.0,0.0,0.0,0.0,0.0,0.0,0.0,0.0,0.0,0.0,0.0,0.0,0.0,0.0,0.0,0.0,0.0,0.0,0.0,0.0,0.0,0.0,0.0,0.0,0.0,0.0,0.0,0.0,0.0,0.0,0.0,0.0,0.0,0.0,0.0,0.0,0.0,0.0,0.0,0.0,0.0,0.0,0.0,0.0,0.0,0.0,0.0,0.0,0.0,0.0,0.0,0.0,0.0,0.0,0.0,0.0,0.0,0.0,0.0,0.0,0.0,0.0,0.0,0.0,0.0,0.0,0.0,0.0,0.0,0.0,0.0,0.0,0.0739,0.1574,0.2477,0.3447,0.3513,0.3547,0.435,0.5395,0.5359,0.5259,0.499,0.445,0.3982,0.3513,0.2913,0.2678,0.2611,0.2679,0.2748,0.3182,0.3984,0.4619,0.5259,0.5395,0.5395,0.5395,0.5395,0.5395,0.5395,0.5395,0.5395,0.5329,0.4824,0.3749,0.2111,0.0,0.0,0.0,0.0,0.0,0.0,0.0,0.0,0.0,0.0,0.0,0.0,0.0,0.0,0.0,0.0,0.0,0.0,0.0,0.0,0.0,0.0,0.0,0.0,0.0,0.0,0.0,0.0,0.0,0.0,0.0,0.0,0.1676,0.0,0.0,0.0,0.0,0.0,0.0,0.0,0.0,0.0,0.0,0.0,0.0,0.0,0.0,0.0,0.0,0.0,0.0,0.0,0.0,0.0,0.0,0.0,0.0,0.0,0.0,0.0,0.0,0.0,0.0,0.0,0.0,0.0,0.0,0.0,0.0,0.0,0.0,0.0,0.0,0.0,0.0,0.0,0.0,0.0,0.0,0.0,0.0806,0.1407,0.1675,0.3145,0.3749,0.4015,0.4858,0.5329,0.5395,0.5395,0.5226,0.499,0.4417,0.4051,0.3649,0.328,0.2878,0.2744,0.2579,0.3247,0.4015,0.4855,0.5395,0.5395,0.5395,0.5395,0.5395,0.5395,0.5395,0.5395,0.5329,0.496,0.4223,0.3149,0.0,0.0,0.0,0.0,0.0,0.0,0.0,0.0,0.0,0.0,0.0,0.0,0.0,0.0,0.0,0.0,0.0,0.0,0.0,0.0,0.0,0.0,0.0,0.0,0.0,0.0,0.0,0.0,0.0,0.0,0.0,0.0,0.1342,0.2011,0.0,0.0,0.0,0.0,0.0,0.0,0.0,0.0,0.0,0.0,0.0,0.0,0.0,0.0,0.0,0.0,0.0,0.0,0.0,0.0,0.0,0.0,0.0,0.0,0.0,0.0,0.0,0.0,0.0,0.0,0.0,0.0,0.0,0.0,0.0,0.0,0.0,0.0,0.0,0.0,0.0,0.0,0.0,0.0,0.0,0.0,0.0,0.0839,0.1541,0.2175,0.3278,0.4118,0.4686,0.5057,0.5395,0.5395,0.5395,0.5395,0.5395,0.4921,0.4755,0.4688,0.4251,0.4115,0.4048,0.4018,0.3918,0.4553,0.4954,0.5395,0.5395,0.5428,0.5395,0.5395,0.5395,0.5395,0.5395,0.5395,0.4725,0.3856,0.3318,0.0,0.0,0.0,0.0,0.0,0.0,0.0,0.0,0.0,0.0,0.0,0.0,0.0,0.0,0.0,0.0,0.0,0.0,0.0,0.0,0.0,0.0,0.0,0.0,0.0,0.0,0.0,0.0,0.0,0.0,0.0,0.0,0.1643,0.2377,0.0,0.0,0.0,0.0,0.0,0.0,0.0,0.0,0.0,0.0,0.0,0.0,0.0,0.0,0.0,0.0,0.0,0.0,0.0,0.0,0.0,0.0,0.0,0.0,0.0,0.0,0.0,0.0,0.0,0.0,0.0,0.0,0.0,0.0,0.0,0.0,0.0,0.0,0.0,0.0,0.0,0.0,0.0,0.0,0.0,0.0,0.0,0.1141,0.1941,0.2744,0.3682,0.4619,0.5226,0.5395,0.5395,0.5395,0.5395,0.5395,0.5395,0.5392,0.5259,0.5226,0.5362,0.5326,0.5292,0.509,0.5359,0.5653,0.5785,0.5815,0.5815,0.5719,0.5591,0.5395,0.5395,0.5395,0.5395,0.5259,0.4758,0.4123,0.3687,0.0,0.0,0.0,0.0,0.0,0.0,0.0,0.0,0.0,0.0,0.0,0.0,0.0,0.0,0.0,0.0,0.0,0.0,0.0,0.0,0.0,0.0,0.0,0.0,0.0,0.0,0.0,0.0,0.0,0.0,0.2379,0.2347,0.2512,0.3078,0.0,0.0,0.0,0.0,0.0,0.0,0.0,0.0,0.0,0.0,0.0,0.0,0.0,0.0,0.0,0.0,0.0,0.0,0.0,0.0,0.0,0.0,0.0,0.0,0.0,0.0,0.0,0.0,0.0,0.0,0.0,0.0,0.0,0.0,0.0,0.0,0.0,0.0,0.0,0.0,0.0,0.0,0.0,0.0,0.0,0.0,0.0,0.1312,0.2376,0.2678,0.4251,0.516,0.5395,0.5395,0.5395,0.5395,0.5395,0.5395,0.5395,0.5395,0.5395,0.5395,0.5395,0.5395,0.5557,0.5557,0.5818,0.685,0.6915,0.6756,0.6593,0.6527,0.6141,0.5686,0.5395,0.5395,0.5395,0.5362,0.4858,0.442,0.3987,0.2582,0.0,0.0,0.0,0.0,0.0,0.0,0.0,0.0,0.0,0.0,0.1209,0.0,0.0,0.0,0.0,0.0,0.0,0.0,0.0,0.0,0.0,0.0,0.0,0.0,0.0,0.0,0.0,0.0,0.0,0.2581,0.3353,0.3618,0.388,-0.0703,0.0,0.0,0.0,0.0,0.0,0.0,0.0,0.0,0.0,0.0,0.0,0.0,0.0,0.0,0.0,0.0,0.0,0.0,0.0,0.0,0.0,0.0,0.0,0.0,0.0,0.0,0.0,0.0,0.0,0.0,0.0,0.0,0.0,0.0,0.0,0.0,0.0,0.0,0.0,0.0,0.0,0.0,0.0,0.0,0.0,0.0,0.1114,0.1877,0.2177,0.3516,0.442,0.4722,0.5057,0.5395,0.5395,0.5395,0.5395,0.5395,0.5395,0.5395,0.5428,0.5458,0.5686,0.6009,0.5914,0.6662,0.893,0.8409,0.7924,0.7372,0.6981,0.6268,0.5716,0.5428,0.5395,0.5395,0.5392,0.516,0.4722,0.4287,0.3249,0.2313,0.1978,0.1745,0.171,0.2011,0.0,0.0,0.0,0.0,0.0,0.2815,0.0,0.0,0.0,0.0,0.0,0.0,0.0,0.0,0.0,0.0941,0.0941,0.0,0.0,0.0,0.0,0.0,0.0,0.0,0.2681,0.3854,0.4489,0.4686,-0.1209,0.0,0.0,0.0,0.0,0.0,0.0,0.0,0.0,0.0,0.0,0.0,0.0,0.0,0.0,0.0,0.0,0.0,0.0,0.0,0.0,0.0,0.0,0.0,0.0,0.0,0.0,0.0,0.0,0.0,0.0,0.0,0.0,0.0,0.0,0.0,0.0,0.0,0.0,0.0,0.0,0.0,0.0,0.0,0.0,0.0,0.0,0.0886,0.1341,0.2043,0.3082,0.4087,0.4586,0.5093,0.5395,0.5395,0.5395,0.5395,0.5395,0.5395,0.5395,0.5458,0.5785,0.6239,0.6981,0.6531,0.6892,0.9716,0.9684,0.8871,0.8091,0.7372,0.6597,0.5914,0.5395,0.5395,0.5402,0.5419,0.5412,0.5123,0.4957,0.509,0.4287,0.3782,0.3447,0.3147,0.3249,0.3449,0.3951,0.4519,0.4722,0.499,0.432,0.2982,0.2746,0.2613,0.318,0.3111,0.2978,0.2546,0.1678,0.1777,0.2379,0.2078,0.1745,0.0,0.0,0.0,0.037,0.2012,0.3349,0.3549,0.432,0.4957,0.5292,-0.1209,0.0,0.0,0.0,0.0,0.0,0.0,0.0,0.0,0.0,0.0,0.0,0.0,0.0,0.0,0.0,0.0,0.0,0.0,0.0,0.0,0.0,0.0,0.0,0.0,0.0,0.0,0.0,0.0,0.0,0.0,0.0,0.0,0.0,0.0,0.0,0.0,0.0,0.0,0.0,0.0,0.0,0.0,0.0,0.0,0.0,0.007,0.0887,0.1675,0.2376,0.3316,0.4154,0.4722,0.5193,0.5392,0.5395,0.5395,0.5395,0.5395,0.5395,0.5428,0.562,0.6108,0.6887,0.7832,0.7892,0.8479,0.9417,0.9748,0.9282,0.8489,0.7744,0.6851,0.5951,0.5395,0.5395,0.5419,0.5474,0.546,0.5412,0.5395,0.5395,0.5395,0.4686,0.435,0.4051,0.3951,0.4154,0.4589,0.509,0.516,0.5292,0.5292,0.4891,0.4957,0.4888,0.4486,0.4115,0.3882,0.3447,0.2813,0.3211,0.368,0.3982,0.3718,0.3049,0.228,0.1611,0.1878,0.4051,0.5123,0.4755,0.4688,0.516,0.5359,-0.1209,0.0,0.0,0.0,0.0,0.0,0.0,0.0,0.0,0.0,0.0,0.0,0.0,0.0,0.0,0.0,0.0,0.0,0.0,0.0,0.0,0.0,0.0,0.0,0.0,0.0,0.0,0.0,0.0,0.0,0.0,0.0,0.0863,0.0,0.0,0.1683,0.1448,0.1019,0.0902,0.0745,0.0,0.0,0.0,0.0,0.0,0.0,0.075,0.1097,0.1821,0.2646,0.3418,0.4087,0.4722,0.5123,0.5359,0.5395,0.5395,0.5395,0.5428,0.5462,0.5624,0.617,0.6593,0.7274,0.8382,0.8355,0.9,0.964,0.964,0.8954,0.8265,0.7626,0.6868,0.5873,0.5402,0.5412,0.5481,0.5569,0.5532,0.5491,0.5433,0.5395,0.5395,0.5326,0.5123,0.4924,0.4855,0.4824,0.516,0.5395,0.5395,0.5395,0.5395,0.5395,0.5395,0.5395,0.5395,0.5057,0.4686,0.4317,0.3915,0.4386,0.4855,0.5326,0.5395,0.4486,0.3516,0.2512,0.308,0.4755,0.5359,0.5292,0.5326,0.5395,0.5395,-0.0857,0.0,0.0,0.0,0.0,0.0,0.0,0.0,0.0,0.0,0.0,0.0,0.0,0.0,0.0,0.0,0.0,0.0,0.0,0.0,0.0,0.0,0.0,0.0,0.0,0.0,0.0,0.0,0.0,0.0,0.0,0.1215,0.1645,0.2112,0.2774,0.3085,0.2735,0.219,0.1645,0.1333,0.0,0.0,0.0,0.0,0.0,0.0,0.1538,0.1936,0.2284,0.2978,0.3582,0.3984,0.4486,0.4954,0.5326,0.5395,0.5395,0.5395,0.5462,0.5752,0.6174,0.6948,0.7111,0.7795,0.8415,0.8721,0.9612,0.9584,0.9101,0.8421,0.7916,0.7349,0.6808,0.5905,0.5583,0.5552,0.5672,0.5757,0.5655,0.5573,0.5494,0.5399,0.5399,0.5399,0.5326,0.5193,0.516,0.5093,0.5226,0.5395,0.5395,0.5395,0.5395,0.5395,0.5395,0.5395,0.5395,0.5359,0.509,0.5193,0.509,0.5395,0.5395,0.5395,0.5395,0.5395,0.4855,0.3915,0.4251,0.5123,0.5392,0.5524,0.5395,0.5395,0.5395,0.0,0.0,0.0,0.0,0.0,0.0,0.0,0.0,0.0,0.0,0.0,0.0,0.0,0.0,0.0,0.0,0.0,0.0,0.0,0.0,0.0,0.0,0.0,0.0,0.0,0.0,0.0,0.0,0.0,0.0,0.0,0.1489,0.1958,0.2464,0.3124,0.3163,0.3124,0.2968,0.2192,0.188,0.145,0.0823,0.098,0.1317,0.142,0.1819,0.2549,0.2926,0.3382,0.414,0.4505,0.4908,0.5352,0.5455,0.5524,0.5395,0.5395,0.5428,0.5557,0.6268,0.7013,0.7632,0.7665,0.7957,0.8382,0.9055,0.9571,0.9135,0.862,0.8277,0.7693,0.7052,0.652,0.5899,0.5538,0.5185,0.5222,0.4989,0.4695,0.4936,0.5297,0.5442,0.5405,0.5402,0.5395,0.5362,0.5395,0.5395,0.5395,0.5395,0.5395,0.5395,0.5395,0.5395,0.5395,0.5395,0.5395,0.5395,0.5395,0.5395,0.5395,0.5395,0.5395,0.5395,0.5462,0.5524,0.5524,0.5355,0.5815,0.6141,0.5716,0.5686,0.5524,0.5395,0.5395,0.0,0.0,0.0,0.0504,0.126,0.131,0.0857,0.0,0.0,0.0,0.0,0.0,0.0,0.0,0.0,0.0,0.0,0.0,0.0,0.0,0.0,0.0,0.0,0.0,0.0,0.0,0.0,0.0,0.0,0.0,0.0,0.1496,0.266,0.3791,0.4336,0.4649,0.5002,0.4256,0.375,0.3361,0.2657,0.2228,0.215,0.2574,0.2461,0.2947,0.3833,0.4193,0.4891,0.5632,0.599,0.6355,0.6301,0.6235,0.5943,0.5591,0.5462,0.6013,0.6695,0.747,0.7637,0.7929,0.7944,0.7917,0.8161,0.8415,0.8557,0.829,0.7729,0.7513,0.748,0.6825,0.6184,0.5153,0.4596,0.4084,0.3869,0.3377,0.315,0.3894,0.4376,0.5259,0.5576,0.5508,0.547,0.5467,0.5474,0.5419,0.5402,0.5395,0.5395,0.5395,0.5395,0.5395,0.5395,0.5395,0.5395,0.5395,0.5395,0.5395,0.5395,0.5395,0.5395,0.5395,0.5557,0.569,0.6178,0.6634,0.699,0.712,0.6826,0.6465,0.6334,0.5914,0.5395,0.0706,0.0756,0.121,0.1862,0.2564,0.2213,0.1707,0.1391,0.1352,0.1328,0.0,0.0,0.0,0.0,0.0,0.0,0.0,0.0,0.0,0.0,0.0,0.0,0.0,0.0,0.0,0.0,0.0,0.0,0.0,0.0,0.0,0.1771,0.3285,0.3984,0.4724,0.5395,0.5867,0.5196,0.4766,0.4219,0.3671,0.3318,0.324,0.3592,0.3953,0.4424,0.5199,0.5913,0.6573,0.7241,0.754,0.7767,0.7274,0.6785,0.6461,0.5976,0.598,0.6629,0.754,0.7897,0.7929,0.7994,0.7789,0.7442,0.7204,0.7051,0.7245,0.7072,0.6675,0.6805,0.7015,0.6374,0.5867,0.4863,0.3969,0.3485,0.3001,0.2594,0.2506,0.3179,0.4024,0.4926,0.5752,0.5627,0.5556,0.5559,0.5559,0.5494,0.5436,0.5433,0.5426,0.5412,0.5402,0.5395,0.5395,0.5395,0.5395,0.5395,0.5395,0.5395,0.5395,0.5395,0.5395,0.5624,0.6243,0.6859,0.7409,0.7832,0.7929,0.8091,0.8151,0.773,0.7274,0.6822,0.6338,0.2012,0.2263,0.3465,0.3915,0.3867,0.3066,0.3089,0.3962,0.3786,0.362,0.3597,0.2264,0.1835,0.1612,0.0718,0.0,0.0,0.0,0.0,0.0,0.0,0.0,0.0,0.0,0.0,0.0,0.0,0.0,0.0,0.0,0.0,0.1812,0.3142,0.3997,0.4896,0.5655,0.6122,0.5837,0.5392,0.4999,0.4647,0.4021,0.437,0.4868,0.5529,0.6174,0.6975,0.775,0.8046,0.8227,0.8204,0.8161,0.7827,0.7242,0.6948,0.6752,0.6752,0.7437,0.78,0.7994,0.7827,0.7694,0.7185,0.6445,0.597,0.5896,0.6162,0.6382,0.6221,0.6291,0.6296,0.606,0.578,0.4745,0.3693,0.3142,0.2639,0.2369,0.2272,0.2814,0.3705,0.4633,0.5613,0.5749,0.5754,0.5657,0.5654,0.5603,0.5545,0.5528,0.5508,0.545,0.5433,0.5399,0.5395,0.5399,0.5395,0.5395,0.5395,0.5395,0.5395,0.5395,0.5395,0.5885,0.7214,0.7929,0.8156,0.8382,0.8576,0.8769,0.9122,0.864,0.8059,0.8312,0.7864,0.2565,0.3466,0.3865,0.4518,0.5475,0.6027,0.6006,0.5363,0.4338,0.3828,0.3757,0.3311,0.3089,0.3037,0.2726,0.2503,0.2503,0.0,0.0,0.228,0.1567,0.1343,0.1031,0.0,0.0,0.0,0.0,0.0,0.0,0.0691,0.1667,0.2701,0.3689,0.4393,0.5053,0.5874,0.6159,0.6242,0.5864,0.5747,0.5744,0.5351,0.5854,0.6499,0.6997,0.7681,0.8432,0.906,0.9276,0.9241,0.9615,0.9664,0.8882,0.8651,0.842,0.7762,0.8059,0.8517,0.8124,0.7994,0.7762,0.7184,0.6531,0.6028,0.5555,0.545,0.5525,0.5796,0.6071,0.6248,0.6282,0.6079,0.533,0.4155,0.307,0.2295,0.0,0.0,0.0,0.2458,0.3362,0.446,0.5427,0.602,0.602,0.5867,0.5793,0.5759,0.5694,0.5682,0.562,0.5562,0.5446,0.5409,0.5402,0.5405,0.5399,0.5395,0.5395,0.5395,0.5395,0.5395,0.5395,0.6305,0.7897,0.8479,0.8613,0.8935,0.9384,0.9773,1.0066,0.9454,0.9037,0.923,0.9422,0.3264,0.4116,0.517,0.6074,0.683,0.7637,0.7484,0.6641,0.5785,0.5356,0.5249,0.468,0.4365,0.4196,0.3794,0.3481,0.3436,0.3349,0.3347,0.317,0.2903,0.2635,0.2147,0.179,0.0,0.1425,0.137,0.0,0.1522,0.1976,0.2895,0.3774,0.4676,0.5018,0.549,0.6038,0.6283,0.6323,0.6257,0.6296,0.6412,0.6683,0.7288,0.7833,0.823,0.9096,0.9601,1.0141,1.0408,1.0271,1.0678,1.0508,0.9777,0.9498,0.885,0.8291,0.8683,0.8581,0.8188,0.7994,0.7502,0.6817,0.6141,0.5769,0.5624,0.5583,0.565,0.5823,0.6102,0.6282,0.6265,0.6014,0.4676,0.3392,0.2357,0.1318,0.0,0.0,0.0,0.0,0.3161,0.4284,0.5145,0.5848,0.6272,0.6105,0.6037,0.6061,0.5925,0.5817,0.5745,0.5674,0.5542,0.5412,0.5423,0.5429,0.5399,0.5395,0.5395,0.5395,0.5395,0.5657,0.5918,0.7186,0.8775,0.916,0.9422,0.9875,1.0326,1.0586,1.0586,1.0136,0.9811,0.9977,1.0199,0.4166,0.4618,0.698,0.7836,0.7988,0.7988,0.7939,0.7975,0.7641,0.7647,0.7211,0.6276,0.5636,0.5416,0.4774,0.4372,0.4417,0.4461,0.4505,0.3881,0.3838,0.3749,0.3705,0.3571,0.2948,0.3303,0.3451,0.3003,0.3478,0.3716,0.4029,0.4942,0.5095,0.5479,0.6015,0.6244,0.6478,0.6732,0.6679,0.6683,0.6795,0.7253,0.7936,0.8461,0.9509,1.0646,1.0803,1.1169,1.1665,1.1256,1.0955,1.0842,1.036,0.9919,0.9102,0.8909,0.9294,0.883,0.8392,0.8048,0.7404,0.6777,0.6159,0.5867,0.5735,0.5818,0.5898,0.5857,0.6057,0.6204,0.6169,0.6091,0.5164,0.3318,0.1811,0.1181,0.0,0.0,0.0,0.3011,0.3885,0.4898,0.5565,0.63,0.63,0.6265,0.6252,0.6242,0.618,0.5996,0.5901,0.5823,0.5736,0.5586,0.5515,0.5504,0.5416,0.5395,0.5395,0.5395,0.5395,0.5918,0.6535,0.8091,0.9646,1.0034,1.0396,1.0586,1.0586,1.0586,1.0586,1.0586,1.0555,1.0491,1.0561,0.522,0.708,0.7736,0.7988,0.7988,0.7988,0.7988,0.7985,0.7958,0.7834,0.7557,0.7158,0.6828,0.6441,0.6201,0.5933,0.6021,0.5755,0.6198,0.5755,0.5356,0.4954,0.4776,0.4328,0.3927,0.3595,0.3692,0.4379,0.4855,0.4953,0.5187,0.6037,0.6144,0.6314,0.643,0.6521,0.6766,0.7223,0.7442,0.7514,0.7706,0.7897,0.8351,0.9475,1.0803,1.1255,1.1479,1.1778,1.1886,1.1672,1.1182,1.0875,1.0588,1.0384,1.0212,1.0079,1.004,0.9421,0.86,0.8042,0.7466,0.6576,0.5964,0.5938,0.5946,0.6088,0.6132,0.6006,0.5976,0.6054,0.6084,0.5985,0.5487,0.3385,0.1549,0.135,0.1179,0.2108,0.3135,0.3878,0.4728,0.5437,0.6066,0.63,0.63,0.6293,0.6289,0.6282,0.6279,0.6184,0.604,0.5966,0.5958,0.5839,0.5706,0.5539,0.5429,0.5395,0.5395,0.5395,0.5395,0.6695,0.7929,0.9192,1.0428,1.0491,1.0491,1.0561,1.0561,1.0295,1.0199,1.0034,1.0263,1.0295,1.046,0.5681,0.7129,0.7789,0.7988,0.7988,0.7988,0.7988,0.7988,0.7988,0.7826,0.7617,0.7499,0.7353,0.7125,0.7095,0.7095,0.7095,0.7095,0.6871,0.6738,0.6561,0.6248,0.5758,0.5354,0.5487,0.524,0.5818,0.6433,0.6619,0.7269,0.7767,0.7765,0.7581,0.7104,0.7018,0.7106,0.7313,0.7787,0.8237,0.8647,0.8945,0.9286,0.9513,1.0671,1.1279,1.1731,1.1957,1.2154,1.2047,1.1792,1.1289,1.1122,1.0922,1.0823,1.0823,1.0863,1.0731,1.0207,0.896,0.8098,0.7471,0.6452,0.5867,0.5891,0.5983,0.6108,0.6132,0.604,0.5888,0.5932,0.5945,0.5875,0.5295,0.3765,0.2945,0.2656,0.2636,0.3062,0.3564,0.3844,0.4732,0.5689,0.618,0.63,0.63,0.63,0.63,0.63,0.63,0.6282,0.6194,0.6085,0.6006,0.5897,0.5716,0.5552,0.5412,0.5395,0.5395,0.5395,0.5657,0.7702,0.9384,0.9907,1.0231,1.0269,1.0301,1.0142,0.9652,0.916,0.9224,0.9352,0.9646,0.9709,0.9256,0.5976,0.6423,0.7537,0.7988,0.7988,0.7988,0.7988,0.7988,0.7985,0.784,0.7655,0.7607,0.7414,0.7224,0.7095,0.7095,0.7095,0.7095,0.7095,0.7095,0.7051,0.683,0.683,0.6915,0.6868,0.7434,0.8194,0.8539,0.884,0.9214,0.9305,0.9575,0.8988,0.8125,0.8017,0.8012,0.8203,0.8689,0.9248,1.004,1.0527,1.0895,1.0858,1.1205,1.1774,1.2231,1.2298,1.2258,1.2131,1.1884,1.1496,1.1329,1.1229,1.1142,1.1189,1.1216,1.091,1.003,0.8974,0.8225,0.727,0.6378,0.6017,0.5922,0.6067,0.6118,0.6142,0.6071,0.5918,0.5803,0.5817,0.5699,0.5086,0.4381,0.3932,0.3682,0.375,0.3965,0.4192,0.425,0.4963,0.5973,0.616,0.6276,0.63,0.63,0.63,0.63,0.6293,0.6265,0.6211,0.6064,0.5934,0.5818,0.5719,0.5552,0.5395,0.5395,0.5395,0.5395,0.6013,0.8124,0.9448,0.9614,0.9875,0.9652,0.9524,0.9332,0.8775,0.8253,0.8248,0.8409,0.8474,0.8377,0.7502,0.6516,0.7637,0.7939,0.7985,0.7982,0.7982,0.7988,0.7988,0.7982,0.7884,0.7863,0.7617,0.7431,0.7143,0.7095,0.7095,0.7095,0.7139,0.7139,0.7095,0.736,0.7228,0.7356,0.7834,0.7881,0.8667,0.9623,1.0135,1.0307,1.02,1.0035,1.0049,0.9534,0.9062,0.9027,0.9122,0.9365,0.9862,1.0445,1.1221,1.1446,1.162,1.1428,1.1731,1.2187,1.2305,1.2305,1.2305,1.2271,1.2131,1.1884,1.163,1.151,1.1395,1.1409,1.1281,1.0994,0.9995,0.9041,0.8117,0.707,0.6368,0.6129,0.6101,0.619,0.6207,0.6245,0.6207,0.6047,0.5806,0.5779,0.5783,0.5341,0.4388,0.3736,0.3853,0.3964,0.4775,0.543,0.5436,0.5656,0.6149,0.6235,0.63,0.63,0.63,0.63,0.63,0.63,0.6262,0.6228,0.605,0.588,0.5839,0.5745,0.5542,0.5399,0.5395,0.5395,0.5395,0.6371,0.8608,0.955,0.8769,0.8737,0.8678,0.8549,0.8452,0.8226,0.7767,0.747,0.74,0.7432,0.7274,0.6629]},{"header":{"parameterUnit":"m.s-1","parameterCategory":1,"la1":31.0,"la2":29.5877,"lo1":-88.7671,"lo2":-86.6584,"dy":0.0162,"dx":0.0185,"nx":115,"ny":88,"refTime":"2026-05-10T00:00:00:Z","depth":0,"parameterNumber":3,"parameterNumberName":"V-component_of_WINDS"},"data":[0.0,0.0,0.0,0.0,0.0,0.0,0.0,0.0,0.0,0.0,0.0,0.0,0.0,0.0,0.0,0.0,0.0,0.0,0.0,0.0,0.0,0.0,0.0,0.0,0.0,0.0,0.0,0.0,0.0,0.0,0.0,0.0,0.0,0.0,0.0,0.0,0.0,0.0,0.0,0.0,0.0,0.0,0.0,0.0,0.0,0.0,0.0,0.0,0.0,0.0,0.0,0.0,0.0,0.0,0.0,0.0,0.0,0.0,0.0,0.0,0.0,0.0,0.0,0.0,0.0,0.0,0.0,0.0,0.0,0.0,0.0,0.0,0.0,0.0,0.0,0.0,0.0,0.0,0.0,0.0,0.0,0.0,0.0,0.0,0.0,0.0,0.0,0.0,0.0,0.0,0.0,0.0,0.0,0.0,0.0,0.0,0.0,0.0,0.0,0.0,0.0,0.0,0.0,0.0,0.0,0.0,0.0,0.0,0.0,0.0,0.0,0.0,0.0,0.0,0.0,0.0,0.0,0.0,0.0,0.0,0.0,0.0,0.0,0.0,0.0,0.0,0.0,0.0,0.0,0.0,0.0,0.0,0.0,0.0,0.0,0.0,0.0,0.0,0.0,0.0,0.0,0.0,0.0,0.0,0.0,0.0,0.0,0.0,0.0,0.0,0.0,0.0,0.0,0.0,0.0,0.0,0.0,0.0,0.0,0.0,0.0,0.0,0.0,0.0,0.0,0.0,0.0,0.0,0.0,0.0,0.0,0.0,0.0,0.0,0.0,0.0,0.0,0.0,0.0,0.0,0.0,0.0,0.0,0.0,0.0,0.0,0.0,0.0,0.0,0.0,0.0,0.0,0.0,0.0,0.0,0.0,0.0,0.0,0.0,0.0,0.0,0.0,0.0,0.0,0.0,0.0,0.0,0.0,0.0,0.0,0.0,0.0,0.0,0.0,0.0,0.0,0.0,0.0,0.0,0.0,0.0,0.0,0.0,0.0,0.0,0.0,0.0,0.0,0.0,0.0,0.0,0.0,0.0,0.0,0.0,0.0,0.0,0.0,0.0,0.0,0.0,0.0,0.0,0.0,0.0,0.0,0.0,0.0,0.0,0.0,0.0,0.0,0.0,0.0,0.0,0.0,0.0,0.0,0.0,0.0,0.0,0.0,0.0,0.0,0.0,0.0,0.0,0.0,0.0,0.0,0.0,0.0,0.0,0.0,0.0,0.0,0.0,0.0,0.0,0.0,0.0,0.0,0.0,0.0,0.0,0.0,0.0,0.0,0.0,0.0,0.0,0.0,0.0,0.0,0.0,0.0,0.0,0.0,0.0,0.0,0.0,0.0,0.0,0.0,0.0,0.0,0.0,0.0,0.0,0.0,0.0,0.0,0.0,0.0,0.0,0.0,0.0,0.0,0.0,0.0,0.0,0.0,0.0,0.0,0.0,0.0,0.0,0.0,0.0,0.0,0.0,0.0,0.0,0.0,0.0,0.0,0.0,0.0,0.0,0.0,0.0,0.0,0.0,0.0,0.0,0.0,0.0,0.0,0.0,0.0,0.0,0.0,0.0,0.0,0.0,0.0,0.0,0.0,0.0,0.0,0.0,0.0,0.0,0.0,0.0,0.0,0.0,0.0,0.0,0.0,0.0,0.0,0.0,0.0,0.0,0.0,0.0,0.0,0.0,0.0,0.0,0.0,0.0,0.0,0.0,0.0,0.0,0.0,0.0,0.0,0.0,0.0,0.0,0.0,0.0,0.0,0.0,0.0,0.0,0.0,0.0,0.0,0.0,0.0,0.0,0.0,0.0,0.0,0.0,0.0,0.0,0.0,0.0,0.0,0.0,0.0,0.0,0.0,0.0,0.0,0.0,0.0,0.0,0.0,0.0,0.0,0.0,0.0,0.0,0.0,0.0,0.0,0.0,0.0,0.0,0.0,0.0,0.0,0.0,0.0,0.0,0.0,0.0,0.0,0.0,0.0,0.0,0.0,0.0,0.0,0.0,0.0,0.0,0.0,0.0,0.0,0.0,0.0,0.0,0.0,0.0,0.0,0.0,0.0,0.0,0.0,0.0,0.0,0.0,0.0,0.0,0.0,0.0,0.0,0.0,0.0,0.0,0.0,0.0,0.0,0.0,0.0,0.0,0.0,0.0,0.0,0.0,0.0,0.0,0.0,0.0,0.0,0.0,0.0,0.0,0.0,0.0,0.0,0.0,0.0,0.0,0.0,0.0,0.0,0.0,0.0,0.0,0.0,0.0,0.0,0.0,0.0,0.0,0.0,0.0,0.0,0.0,0.0,0.0,0.0,0.0,0.0,0.0,0.0,0.0,0.0,0.0,0.0,0.0,0.0,0.0,0.0,0.0,0.0,0.0,0.0,0.0,0.0,0.0,0.0,0.0,0.0,0.0,0.0,0.0,0.0,0.0,0.0,0.0,0.0,0.0,0.0,0.0,0.0,0.0,0.0,0.0,0.0,0.0,0.0,0.0,0.0,0.0,0.0,0.0,0.0,0.0,0.0,0.0,0.0,0.0,0.0,0.0,0.0,0.0,0.0,0.0,0.0,0.0,0.0,0.0,0.0,0.0,0.0,0.0,0.0,0.0,0.0,0.0,0.0,0.0,0.0,0.0,0.0,0.0,0.0,0.0,0.0,0.0,0.0,0.0,0.0,0.0,0.0,0.0,0.0,0.0,0.0,0.0,0.0,0.0,0.0,0.0,0.0,0.0,0.0,0.0,0.0,0.0,0.0,0.0,0.0,0.0,0.0,0.0,0.0,0.0,0.0,0.0,0.0,0.0,0.0,0.0,0.0,0.0,0.0,0.0,0.0,0.0,0.0,0.0,0.0,0.0,0.0,0.0,0.0,0.0,0.0,0.0,0.0,0.0,0.0,0.0,0.0,0.0,0.0,0.0,0.0,0.0,0.0,0.0,0.0,0.0,0.0,0.0,0.0,0.0,0.0,0.0,0.0,0.0,0.0,0.0,0.0,0.0,0.0,0.0,0.0,0.0,0.0,0.0,0.0,0.0,0.0,0.0,0.0,0.0,0.0,0.0,0.0,0.0,0.0,0.0,0.0,0.0,0.0,0.0,0.0,0.0,0.0,0.0,0.0,0.0,0.0,0.0,0.0,0.0,0.0,0.0,0.0,0.0,0.0,0.0,0.0,0.0,0.0,0.0,0.0,0.0,0.0,0.0,0.0,0.0,0.0,0.0,0.0,0.0,0.0,0.0,0.0,0.0,0.0,0.0,0.0,0.0,0.0,0.0,0.0,0.0,0.0,0.0,0.0,0.0,0.0,0.0,0.0,0.0,0.0,0.0,0.0,0.0,0.0,0.0,0.0,0.0,0.0,0.0,0.0,0.0,0.0,0.0,0.0,0.0,0.0,0.0,0.0,0.0,0.0,0.0,0.0,0.0,0.0,0.0,0.0,0.0,0.0,0.0,0.0,0.0,0.0,0.0,0.0,0.0,0.0,0.0,0.0,0.0,0.0,0.0,0.0,0.0,0.0,0.0,0.0,0.0,0.0,0.0,0.0,0.0,0.0,0.0,0.0,0.0,0.0,0.0,0.0,0.0,0.0,0.0,0.0,0.0,0.0,0.0,0.0,0.0,0.0,0.0,0.0,0.0,0.0,0.0,0.0,0.0,0.0,0.0,0.0,0.0,0.0,0.0,0.0,0.0,0.0,0.0,0.0,0.0,0.0,0.0,0.0,0.0,0.0,0.0,0.0,0.0,0.0,0.0,0.0,0.0,0.0,0.0,0.0,0.0,0.0,0.0,0.0,0.0,0.0,0.0,0.0,0.0,0.0,0.0,0.0,0.0,0.0,0.0,0.0,0.0,0.0,0.0,0.0,0.0,0.0,0.0,0.0,0.0,0.0,0.0,0.0,0.0,0.0,0.0,0.0,0.0,0.0,0.0,0.0,0.0,0.0,0.0,0.0,0.0,0.0,0.0,0.0,0.0,0.0,0.0,0.0,0.0,0.0,0.0,0.0,0.0,0.0,0.0,0.0,0.0,0.0,0.0,0.0,0.0,0.0,0.0,0.0,0.0,0.0,0.0,0.0,0.0,0.0,0.0,0.0,0.0,0.0,0.0,0.0,0.0,0.0,0.0,0.0,0.0,0.0,0.0,0.0,0.0,0.0,0.0,0.0,0.0,0.0,0.0,0.0,0.0,0.0,0.0,0.0,0.0,0.0,0.0,0.0,0.0,0.0,0.0,0.0,0.0,0.0,0.0,0.0,0.0,0.0,0.0,0.0,0.0,0.0,0.0,0.0,0.424,0.0,0.0,0.0,0.0,0.0,0.0,0.0,0.0,0.0,0.0,0.0,0.0,0.0,0.0,0.0,0.0,0.0,0.0,0.0,0.0,0.0,0.0,0.0,0.0,0.0,0.0,0.0,0.0,0.0,0.0,0.0,0.0,0.0,0.0,0.0,0.0,0.0,0.0,0.0,0.0,0.0,0.0,0.0,0.0,0.0,0.0,0.0,0.0,0.0,0.0,0.0,0.0,0.0,0.0,0.0,0.0,0.0,0.0,0.0,0.0,0.0,0.0,0.0,0.0,0.0,0.0,0.0,0.0,0.0,0.0,0.0,0.0,0.0,0.0,0.0,0.0,0.0,0.0,0.0,0.0,0.0,0.0,0.0,0.0,0.0,0.0,0.0,0.0,0.0,0.0,0.0,0.0,0.0,0.0,0.0,0.0,0.0,0.0,0.0,0.0,0.0,0.0,0.0,0.0,0.0,0.0,0.0,0.0,0.0,0.0,0.5123,0.4758,0.4721,0.456,0.4303,0.0,0.0,0.0,0.0,0.0,0.0,0.0,0.0,0.0,0.0,0.0,0.0,0.0,0.0,0.0,0.0,0.0,0.0,0.0,0.0,0.0,0.0,0.0,0.0,0.0,0.0,0.0,0.0,0.0,0.0,0.0,0.0,0.0,0.0,0.0,0.0,0.0,0.0,0.0,0.0,0.0,0.0,0.0,0.0,0.0,0.0,0.0,0.0,0.0,0.0,0.0,0.0,0.0,0.0,0.0,0.0,0.0,0.0,0.0,0.0,0.0,0.0,0.0,0.0,0.0,0.0,0.0,0.0,0.0,0.0,0.0,0.0,0.0,0.0,0.0,0.0,0.0,0.0,0.0,0.0,0.0,0.0,0.0,0.0,0.0,0.0,0.0,0.0,0.0,0.0,0.0,0.0,0.0,0.0,0.0,0.0,0.0,0.0,0.0,0.0,0.0,0.0,0.0,0.0,0.0,0.0,0.0,0.0,0.0,0.0,0.0,0.0,0.5231,0.5171,0.5234,0.0,0.0,0.0,0.0,0.0,0.0,0.0,0.0,0.0,0.0,0.0,0.0,0.0,0.0,0.0,0.0,0.0,0.0,0.0,0.0,0.0,0.0,0.0,0.0,0.0,0.0,0.0,0.0,0.0,0.0,0.0,0.0,0.0,0.0,0.0,0.0,0.0,0.0,0.0,0.0,0.0,0.0,0.0,0.0,0.0,0.0,0.0,0.0,0.0,0.0,0.0,0.0,0.0,0.0,0.0,0.0,0.0,0.0,0.0,0.0,0.0,0.0,0.0,0.0,0.0,0.0,0.0,0.0,0.0,0.0,0.0,0.0,0.0,0.0,0.0,0.0,0.0,0.0,0.0,0.0,0.0,0.0,0.0,0.0,0.0,0.0,0.0,0.0,0.0,0.0,0.0,0.0,0.0,0.0,0.0,0.0,0.0,0.0,0.0,0.0,0.0,0.0,0.0,0.0,0.0,0.0,0.0,0.0,0.0,0.0,0.4749,0.587,0.551,0.0,0.771,0.0,0.0,0.0,0.0,0.0,0.0,0.0,0.0,0.0,0.0,0.0,0.0,0.0,0.0,0.0,0.0,0.0,0.0,0.0,0.0,0.0,0.0,0.0,0.0,0.0,0.0,0.0,0.0,0.0,0.0,0.0,0.0,0.0,0.0,0.0,0.0,0.0,0.0,0.0,0.0,0.0,0.0,0.0,0.0,0.0,0.0,0.0,0.0,0.0,0.0,0.0,0.0,0.0,0.0,0.0,0.0,0.0,0.0,0.0,0.0,0.0,0.0,0.0,0.0,0.0,0.0,0.0,0.0,0.0,0.0,0.0,0.0,0.0,0.0,0.0,0.0,0.0,0.0,0.0,0.0,0.0,0.0,0.0,0.0,0.0,0.0,0.0,0.0,0.0,0.0,0.0,0.0,0.0,0.0,0.0,0.0,0.0,0.0,0.0,0.0,0.0,0.0,0.0,0.0,0.0,0.0,0.0,0.0,0.0,0.0,0.4945,0.5456,0.5327,0.5944,0.0,0.0,0.0,0.0,0.0,0.0,0.0,0.0,0.0,0.0,0.0,0.0,0.0,0.0,0.0,0.0,0.0,0.0,0.0,0.0,0.0,0.0,0.0,0.0,0.0,0.0,0.0,0.0,0.0,0.0,0.0,0.0,0.0,0.0,0.0,0.0,0.0,0.0,0.0,0.0,0.0,0.0,0.0,0.0,0.0,0.0,0.0,0.0,0.0,0.0,0.0,0.0,0.0,0.0,0.0,0.0,0.0,0.0,0.0,0.0,0.0,0.0,0.0,0.0,0.0,0.0,0.0,0.0,0.0,0.0,0.0,0.0,0.0,0.0,0.0,0.0,0.0,0.0,0.0,0.0,0.0,0.0,0.0,0.0,0.0,0.0,0.0,0.0,0.0,0.0,0.0,0.0,0.0,0.0,0.0,0.0,0.0,0.0,0.0,0.0,0.0,0.0,0.0,0.0,0.0,0.0,0.0,0.0,0.0,0.0,0.5015,0.0,0.5408,0.5487,0.5988,0.6935,0.0,0.0,0.0,0.0,0.0,0.0,0.0,0.0,0.0,0.0,0.0,0.0,0.0,0.0,0.0,0.0,0.0,0.0,0.0,0.0,0.0,0.0,0.0,0.0,0.0,0.0,0.0,0.0,0.0,0.0,0.0,0.0,0.0,0.0,0.0,0.0,0.0,0.0,0.0,0.0,0.0,0.0,0.0,0.0,0.0,0.0,0.0,0.0,0.0,0.0,0.0,0.0,0.0,0.0,0.0,0.0,0.0,0.0,0.0,0.0,0.0,0.0,0.0,0.0,0.0,0.0,0.0,0.0,0.0,0.0,0.0,0.0,0.0,0.0,0.0,0.0,0.0,0.0,0.0,0.0,0.0,0.0,0.0,0.0,0.0,0.0,0.0,0.0,0.0,0.0,0.0,0.0,0.0,0.0,0.0,0.0,0.0,0.0,0.0,0.0,0.0,0.0,0.0,0.0,0.0,0.0,0.0,0.0,0.0,0.5581,0.5347,0.6209,0.6324,0.6512,0.0,0.0,0.0,0.0,0.0,0.0,0.0,0.0,0.0,0.0,0.0,0.0,0.0,0.0,0.0,0.0,0.0,0.0,0.0,0.0,0.0,0.0,0.0,0.0,0.0,0.0,0.0,0.0,0.0,0.0,0.0,0.0,0.0,0.0,0.0,0.0,0.0,0.0,0.0,0.0,0.0,0.0,0.0,0.0,0.0,0.0,0.0,0.0,0.0,0.0,0.0,0.0,0.0,0.0,0.0,0.0,0.0,0.0,0.0,0.0,0.0,0.0,0.0,0.0,0.0,0.0,0.0,0.0,0.0,0.0,0.0,0.0,0.0,0.0,0.0,0.0,0.0,0.0,0.0,0.0,0.0,0.0,0.0,0.0,0.0,0.0,0.0,0.0,0.0,0.0,0.0,0.0,0.0,0.0,0.0,0.0,0.0,0.0,0.0,0.0,0.0,0.0,0.0,0.0,0.0,0.0,0.0,0.0,0.0,0.4978,0.4921,0.5571,0.6911,0.6126,0.6004,0.0,0.0,0.0,0.0,0.0,0.0,0.0,0.0,0.0,0.0,0.0,0.0,0.0,0.0,0.0,0.0,0.0,0.0,0.0,0.0,0.0,0.0,0.0,0.0,0.0,0.0,0.0,0.0,0.0,0.0,0.0,0.0,0.0,0.0,0.0,0.0,0.0,0.0,0.0,0.0,0.0,0.0,0.0,0.0,0.0,0.0,0.0,0.0,0.0,0.0,0.0,0.0,0.0,0.0,0.0,0.0,0.0,0.0,0.0,0.0,0.0,0.0,0.0,0.0,0.0,0.0,0.0,0.0,0.0,0.0,0.0,0.0,0.0,0.0,0.0,0.0,0.0,0.0,0.0,0.0,0.0,0.0,0.0,0.0,0.0,0.0,0.0,0.0,0.0,0.0,0.0,0.0,0.0,0.0,0.0,0.0,0.0,0.0,0.0,0.0,0.0,0.0,0.0,0.0,0.0,0.0,0.0,0.0,0.0,0.4547,0.0,0.6007,0.0,0.6049,0.5692,0.0,0.0,0.0,0.0,0.0,0.0,0.0,0.0,0.0,0.0,0.0,0.0,0.0,0.0,0.0,0.0,0.0,0.0,0.0,0.0,0.0,0.0,0.0,0.0,0.0,0.0,0.0,0.0,0.0,0.0,0.0,0.0,0.0,0.0,0.0,0.0,0.0,0.0,0.0,0.0,0.0,0.0,0.0,0.0,0.0,0.0,0.0,0.0,0.0,0.0,0.0,0.0,0.0,0.0,0.0,0.0,0.0,0.0,0.0,0.0,0.0,0.0,0.0,0.0,0.0,0.0,0.0,0.0,0.0,0.0,0.0,0.0,0.0,0.0,0.0,0.0,0.0,0.0,0.0,0.0,0.0,0.0,0.0,0.0,0.0,0.0,0.0,0.0,0.0,0.0,0.0,0.0,0.0,0.0,0.0,0.0,0.0,0.0,0.0,0.0,0.0,0.0,0.0,0.0,0.0,0.0,0.0,0.0,0.4581,0.5849,0.6499,0.66,0.6068,0.6231,0.5711,0.0,0.0,0.0,0.0,0.0,0.0,0.0,0.0,0.0,0.0,0.0,0.0,0.0,0.0,0.0,0.0,0.0,0.0,0.0,0.0,0.0,0.0,0.0,0.0,0.0,0.0,0.0,0.0,0.0,0.0,0.0,0.0,0.0,0.0,0.0,0.0,0.0,0.0,0.0,0.0,0.0,0.0,0.0,0.0,0.0,0.0,0.0,0.0,0.0,0.0,0.0,0.0,0.0,0.0,0.0,0.0,0.0,0.0,0.0,0.0,0.0,0.0,0.0,0.0,0.0,0.0,0.0,0.0,0.0,0.0,0.0,0.0,0.0,0.0,0.0,0.0,0.0,0.0,0.0,0.0,0.0,0.0,0.0,0.0,0.0,0.0,0.0,0.0,0.0,0.0,0.0,0.0,0.0,0.0,0.0,0.0,0.0,0.0,0.0,0.0,0.0,0.0,0.0,0.0,0.0,0.0,0.0,0.0,0.0,0.6121,0.64,0.6746,0.7139,0.6735,0.6581,0.0,0.0,0.0,0.0,0.0,0.0,0.0,0.0,0.0,0.0,0.0,0.0,0.0,0.0,0.0,0.0,0.0,0.0,0.0,0.0,0.0,0.0,0.0,0.0,0.0,0.0,0.0,0.0,0.0,0.0,0.0,0.0,0.0,0.0,0.0,0.0,0.0,0.0,0.0,0.0,0.0,0.0,0.0,0.0,0.0,0.0,0.0,0.0,0.0,0.0,0.0,0.0,0.0,0.0,0.0,0.0,0.0,0.0,0.0,0.0,0.0,0.0,0.0,0.0,0.0,0.0,0.0,0.0,0.0,0.0,0.0,0.0,0.0,0.0,0.0,0.0,0.0,0.0,0.0,0.0,0.0,0.0,0.0,0.0,0.0,0.0,0.0,0.0,0.0,0.0,0.0,0.0,0.0,0.0,0.0,0.0,0.0,0.0,0.0,0.0,0.0,0.0,0.0,0.0,0.0,0.0,0.0,0.0,0.0,0.7426,0.7248,0.741,0.7984,0.7311,0.7056,0.7325,0.0,0.0,0.0,0.0,0.0,0.0,0.0,0.0,0.0,0.0,0.0,0.0,0.0,0.0,0.0,0.0,0.0,0.0,0.0,0.0,0.0,0.0,0.0,0.0,0.0,0.0,0.0,0.0,0.0,0.0,0.0,0.0,0.0,0.0,0.0,0.0,0.0,0.0,0.0,0.0,0.0,0.0,0.0,0.0,0.0,0.0,0.0,0.0,0.0,0.0,0.0,0.0,0.0,0.0,0.0,0.0,0.0,0.0,0.0,0.0,0.0,0.0,0.0,0.0,0.0,0.0,0.0,0.0,0.0,0.0,0.0,0.0,0.0,0.0,0.0,0.0,0.0,0.0,0.0,0.0,0.0,0.0,0.0,0.0,0.0,0.0,0.0,0.0,0.0,0.0,0.0,0.0,0.0,0.0,0.0,0.0,0.0,0.0,0.0,0.0,0.0,0.0,0.0,0.0,0.0,0.0,0.0,0.0,0.9606,0.8927,0.8566,0.8571,0.7977,0.7362,0.0,0.0,0.0,0.0,0.0,0.0,0.0,0.0,0.0,0.0,0.0,0.0,0.0,0.0,0.0,0.0,0.0,0.0,0.0,0.0,0.0,0.0,0.0,0.0,0.0,0.0,0.0,0.0,0.0,0.0,0.0,0.0,0.0,0.0,0.0,0.0,0.0,0.0,0.0,0.0,0.0,0.0,0.0,0.0,0.0,0.0,0.0,0.0,0.0,0.0,0.0,0.0,0.0,0.0,0.0,0.0,0.0,0.0,0.0,0.0,0.0,0.0,0.0,0.0,0.0,0.0,0.0,0.0,0.0,0.0,0.0,0.0,0.0,0.0,0.0,0.0,0.0,0.0,0.0,0.0,0.0,0.0,0.0,0.0,0.0,0.0,0.0,0.0,0.0,0.0,0.0,0.0,0.0,0.0,0.0,0.0,0.0,0.0,0.0,0.0,0.0,0.0,0.0,0.0,0.0,0.0,0.0,0.0,0.0,1.0908,1.0596,1.0132,0.9626,0.9444,0.9049,0.0,0.0,0.0,0.0,0.0,0.0,0.0,0.0,0.0,0.0,0.0,0.0,0.0,0.0,0.0,0.0,0.0,0.0,0.0,0.0,0.0,0.0,0.0,0.0,0.0,0.0,0.0,0.0,0.0,0.0,0.0,0.0,0.0,0.0,0.0,0.0,0.0,0.0,0.0,0.0,0.0,0.0,0.0,0.0,0.0,0.0,0.0,0.0,0.0,0.0,0.0,0.0,0.0,0.0,0.0,0.0,0.0,0.0,0.0,0.0,0.0,0.0,0.0,0.0,0.0,0.0,0.0,0.0,0.0,0.0,0.0,0.0,0.0,0.0,0.0,0.0,0.0,0.0,0.0,0.0,0.0,0.0,0.0,0.0,0.0,0.0,0.0,0.0,0.0,0.0,0.0,0.0,0.0,0.0,0.0,0.0,0.0,0.0,0.0,0.0,0.0,0.0,0.0,0.0,0.0,0.0,0.0,0.0,1.0514,1.1686,1.1942,1.1712,1.0988,1.0732,1.0259,0.0,0.0,0.0,0.0,0.0,0.0,0.0,0.0,0.0,0.0,0.0,0.0,0.0,0.0,0.0,0.0,0.0,0.0,0.0,0.0,0.0,0.0,0.0,0.0,0.0,0.0,0.0,0.0,0.0,0.0,0.0,0.0,0.0,0.0,0.0,0.0,0.0,0.0,0.0,0.0,0.0,0.0,0.0,0.0,0.0,0.0,0.0,0.0,0.0,0.0,0.0,0.0,0.0,0.0,0.0,0.0,0.0,0.0,0.0,0.0,0.0,0.0,0.0,0.0,0.0,0.0,0.0,0.0,0.0,0.0,0.0,0.0,0.0,0.0,0.0,0.0,0.0,0.0,0.0,0.0,0.0,0.0,0.0,0.0,0.0,0.0,0.0,0.0,0.0,0.0,0.0,0.0,0.0,0.0,0.0,0.0,0.0,0.0,0.0,0.0,0.0,0.0,0.0,0.0,0.0,0.0,0.0,0.0,1.1114,1.2115,1.295,1.31,1.2454,1.183,1.1119,0.0,0.0,0.0,0.0,0.0,0.0,0.0,0.0,0.0,0.0,0.0,0.0,0.0,0.0,0.0,0.0,0.0,0.0,0.0,0.0,0.0,0.0,0.0,0.0,0.0,0.0,0.0,0.0,0.0,0.0,0.0,0.0,0.0,0.0,0.0,0.0,0.0,0.0,0.0,0.0,0.0,0.0,0.0,0.0,0.0,0.0,0.0,0.0,0.0,0.0,0.0,0.0,0.0,0.0,0.0,0.0,0.0,0.0,0.0,0.0,0.0,0.0,0.0,0.0,0.0,0.0,0.0,0.0,0.0,0.0,0.0,0.0,0.0,0.0,0.0,0.0,0.0,0.0,0.0,0.0,0.0,0.0,0.0,0.0,0.0,0.0,0.0,0.0,0.0,0.0,0.0,0.0,0.0,0.0,0.0,0.0,0.0,0.0,0.0,0.0,0.0,0.0,0.0,0.0,0.0,0.0,0.0,0.0,1.1575,1.305,1.3295,1.3369,1.3332,1.2632,1.166,0.0,0.0,0.0,0.0,0.0,0.0,0.0,0.0,0.0,0.0,0.0,0.0,0.0,0.0,0.0,0.0,0.0,0.0,0.0,0.0,0.0,0.0,0.0,0.0,0.0,0.0,0.0,0.0,0.0,0.0,0.0,0.0,0.0,0.0,0.0,0.0,0.0,0.0,0.0,0.0,0.0,0.0,0.0,0.0,0.0,0.0,0.0,0.0,0.5725,0.0,0.0,0.0,0.0,0.0,0.0,0.0,0.0,0.0,0.0,0.0,0.0,0.0,0.0,0.0,0.0,0.0,0.0,0.0,0.0,0.0,0.0,0.0,0.0,0.0,0.0,0.0,0.0,0.0,0.0,0.0,0.0,0.0,0.0,0.0,0.0,0.0,0.0,0.0,0.0,0.0,0.0,0.0,0.0,0.0,0.0,0.0,0.0,0.0,0.0,0.0,0.0,0.0,0.0,0.0,0.0,0.0,0.0,0.0,1.2063,1.3337,1.3453,1.3524,1.3575,1.3412,1.2598,0.0,0.0,0.0,0.0,0.0,0.0,0.0,0.0,0.0,0.0,0.0,0.0,0.0,0.0,0.0,0.0,0.0,0.0,0.0,0.0,0.0,0.0,0.0,0.0,0.0,0.0,0.0,0.0,0.0,0.0,0.0,0.0,0.0,0.0,0.0,0.0,0.0,0.0,0.0,0.0,0.0,0.0,0.0,0.0,0.0,0.0,0.0,0.0,0.0,0.0,0.0,0.0,0.0,0.0,0.0,0.0,0.0,0.0,0.0,0.0,0.0,0.0,0.0,0.0,0.0,0.0,0.0,0.0,0.0,0.0,0.0,0.0,0.0,0.0,0.0,0.0,0.0,0.0,0.0,0.0,0.0,0.0,0.0,0.0,0.0,0.0,0.0,0.0,0.0,0.0,0.0,0.0,0.0,0.0,0.0,0.0,0.0,0.0,0.0,0.0,0.0,0.0,0.0,0.0,0.0,0.0,0.0,1.1743,1.2442,1.3436,1.3588,1.3653,1.3691,1.4017,1.3467,1.1954,0.0,0.0,0.0,0.0,0.0,0.0,0.0,0.0,0.0,0.0,0.0,0.0,0.0,0.0,0.0,0.0,0.0,0.0,0.0,0.0,0.0,0.0,0.0,0.0,0.0,0.0,0.0,0.0,0.0,0.0,0.0,0.0,0.0,0.0,0.0,0.0,0.0,0.0,0.6177,0.7253,0.0,0.0,0.0,0.0,0.0,0.0,0.0,0.0,0.7462,0.0,0.0,0.0,0.0,0.0,0.0,0.0,0.0,0.0,0.0,0.0,0.0,0.0,0.0,0.0,0.0,0.0,0.0,0.0,0.0,0.0,0.0,0.0,0.0,0.0,0.0,0.0,0.0,0.0,0.0,0.0,0.0,0.0,0.0,0.0,0.0,0.0,0.0,0.0,0.0,0.0,0.0,0.0,0.0,0.0,0.0,0.0,0.0,0.0,0.0,0.0,0.0,0.0,0.0,0.0,0.0,1.2413,1.1935,1.2369,1.3777,1.3842,1.3934,1.4078,1.4162,1.3551,1.223,0.0,0.0,0.0,0.0,0.0,0.0,0.0,0.0,0.0,0.0,0.0,0.0,0.0,0.0,0.0,0.0,0.0,0.0,0.0,0.0,0.0,0.0,0.0,0.0,0.0,0.0,0.0,0.0,0.0,0.0,0.0,0.0,0.0,0.0,0.0,0.0,0.0,0.0,0.0,0.8073,0.8802,0.0,0.0,0.0,0.0,0.0,0.0,0.0,0.0,0.9367,0.0,0.0,0.0,0.0,0.0,0.0,0.0,0.0,0.0,0.0,0.0,0.0,0.0,0.0,0.0,0.0,0.0,0.0,0.0,0.0,0.0,0.0,0.0,0.0,0.0,0.0,0.0,0.0,0.0,0.0,0.0,0.0,0.0,0.0,0.0,0.0,0.0,0.0,0.0,0.0,0.0,0.0,0.0,0.0,0.0,0.0,0.0,0.0,0.0,0.0,0.0,0.0,0.0,0.0,0.0,1.2077,1.2555,1.317,1.3878,1.4004,1.411,1.4195,1.3931,1.3296,0.0,0.0,0.0,0.0,0.0,0.0,0.0,0.0,0.0,0.0,0.0,0.0,0.0,0.0,0.0,0.0,0.0,0.0,0.0,0.0,0.0,0.0,0.0,0.0,0.0,0.0,0.0,0.0,0.0,0.0,0.0,0.0,0.0,0.0,0.0,0.0,0.0,0.0,0.0,0.0,0.8926,0.9573,1.0656,0.0,0.0,0.0,0.0,0.0,0.0,1.0028,1.1035,0.0,0.0,0.0,0.0,0.0,0.0,0.0,0.0,0.0,0.0,0.0,0.0,0.0,0.0,0.0,0.0,0.0,0.0,0.0,0.0,0.0,0.0,0.0,0.0,0.0,0.0,0.0,0.0,0.0,0.0,0.0,0.0,0.0,0.0,0.0,0.0,0.0,0.0,0.0,0.0,0.0,0.0,0.0,0.0,0.0,0.0,0.0,0.0,0.0,0.0,0.0,0.0,0.0,0.0,0.0,1.1728,1.3079,1.385,1.4024,1.4175,1.4264,1.4252,1.3863,1.3212,0.0,0.0,0.0,0.0,0.0,0.0,0.0,0.0,0.0,0.0,0.0,0.0,0.0,0.0,0.0,0.0,0.0,0.0,0.0,0.0,0.0,0.0,0.0,0.0,0.0,0.0,0.0,0.0,0.0,0.0,0.0,0.0,0.0,0.0,0.0,0.0,0.0,0.0,0.0,0.0,0.0,1.0539,1.0948,1.0568,0.0,0.0,0.0,0.0,0.9862,1.1667,0.0,0.0,0.0,0.0,0.0,0.0,0.0,0.0,0.0,0.0,0.0,0.0,0.0,0.0,0.0,0.0,0.0,0.0,0.0,0.0,0.0,0.0,0.0,0.0,0.0,0.0,0.0,0.0,0.0,0.0,0.0,0.0,0.0,0.0,0.0,0.0,0.0,0.0,0.0,0.0,0.0,0.0,0.0,0.0,0.0,0.0,0.0,0.0,0.0,0.0,0.0,0.0,0.0,0.0,0.0,0.0,1.2038,1.2916,1.3715,1.4386,1.444,1.447,1.447,1.4503,1.3836,0.0,0.0,0.0,0.0,0.0,0.0,0.0,0.0,0.0,0.0,0.0,0.0,0.0,0.0,0.0,0.0,0.0,0.0,0.0,0.0,0.0,0.0,0.0,0.0,0.0,0.0,0.0,0.0,0.0,0.0,0.0,0.0,0.0,0.0,0.0,0.0,0.0,0.0,0.0,0.0,0.0,1.1797,1.1177,1.1608,1.1747,0.0,0.0,1.1636,1.1916,1.1824,0.0,0.0,0.0,0.0,0.0,0.0,0.0,0.0,0.0,0.0,0.0,0.0,0.0,0.0,0.0,0.0,0.0,0.0,0.0,0.0,0.0,0.0,0.0,0.0,0.0,0.0,0.0,0.0,0.0,0.0,0.0,0.0,0.0,0.0,0.0,0.0,0.0,0.0,0.0,0.0,0.0,0.0,0.0,0.0,0.0,0.0,0.0,0.0,0.0,0.0,0.0,0.0,0.0,0.0,0.0,1.1741,1.2132,1.3343,1.4169,1.4475,1.4488,1.4539,1.4614,1.4274,1.3568,0.0,0.0,0.0,0.0,0.0,0.0,0.0,0.0,0.0,0.0,0.0,0.0,0.0,0.0,0.0,0.0,0.0,0.0,0.0,0.0,0.0,0.0,0.0,0.0,0.0,0.0,0.0,0.0,0.0,0.0,0.0,0.0,0.0,0.0,0.0,0.0,0.0,0.0,0.0,0.0,0.0,0.0,1.1961,1.1911,0.0,0.0,0.0,1.1235,1.2844,0.0,0.0,0.0,0.0,0.0,0.0,0.0,0.0,0.0,0.0,0.0,0.0,0.0,0.0,0.0,0.0,0.0,0.0,0.0,0.0,0.0,0.0,0.0,0.0,0.0,0.0,0.0,0.0,0.0,0.0,0.0,0.0,0.0,0.0,0.0,0.0,0.0,0.0,0.0,0.0,0.0,0.0,0.0,0.0,0.0,0.0,0.0,0.0,0.0,0.0,0.0,0.0,0.0,0.0,0.0,0.0,0.0,1.2412,1.3778,1.4488,1.4488,1.4488,1.455,1.4632,1.4181,0.0,0.0,0.0,0.0,0.0,0.0,0.0,0.0,0.0,0.0,0.0,0.0,0.0,0.0,0.0,0.0,0.0,0.0,0.0,0.0,0.0,0.0,0.0,0.0,0.0,0.0,0.0,0.4744,0.0,0.0,0.0,0.0,0.0,0.0,0.0,0.0,0.0,0.0,0.0,0.0,0.0,0.0,1.1865,1.2584,1.2318,1.2772,0.0,0.0,1.1656,1.3867,1.4203,1.3665,0.0,0.0,0.0,0.0,0.0,0.0,0.0,0.0,0.0,0.0,0.0,0.0,0.0,0.0,0.0,0.0,0.0,0.0,0.0,0.0,0.0,0.0,0.0,0.0,0.0,0.0,0.0,0.0,0.0,0.0,0.0,0.0,0.0,0.0,0.0,0.0,0.0,0.0,0.0,0.0,0.0,0.0,0.0,0.0,0.0,0.0,0.0,0.0,0.0,0.0,0.0,0.0,0.0,0.0,0.0,1.3225,1.4059,1.4488,1.4488,1.4488,1.4499,1.4511,1.47,1.402,0.0,0.0,0.0,0.0,0.0,0.0,0.0,0.0,0.0,0.0,0.0,0.0,0.0,0.0,0.0,0.0,0.0,0.0,0.0,0.0,0.0,0.0,0.0,0.0,0.0,0.0,0.0,0.0,0.0,0.0,0.0,0.0,0.0,0.0,0.0,0.0,0.0,0.0,0.0,0.0,0.0,1.3065,1.2661,1.3135,1.4292,0.0,0.0,1.4508,1.5408,1.4385,1.3335,1.2955,0.0,0.0,0.0,0.0,0.0,0.0,0.0,0.0,0.0,0.0,0.0,0.0,0.0,0.0,0.0,0.0,0.0,0.0,0.0,0.0,0.0,0.0,0.0,0.0,0.0,0.0,0.0,0.0,0.0,0.0,0.0,0.0,0.0,0.0,0.0,0.0,0.0,0.0,0.0,0.0,0.0,0.0,0.0,0.0,0.0,0.0,0.0,0.0,0.0,0.0,0.0,0.0,0.0,1.2543,1.328,1.4101,1.4488,1.4488,1.4488,1.4521,1.4601,1.4799,1.4103,0.0,0.0,0.0,0.0,0.0,0.0,0.0,0.0,0.0,0.0,0.0,0.0,0.0,0.0,0.0,0.0,0.0,0.0,0.0,0.0,0.0,0.0,0.0,0.0,0.0,0.0,0.0,0.0,0.7699,0.8543,0.8982,0.0,0.0,0.0,0.0,0.0,0.0,0.0,0.0,0.0,0.0,1.3686,1.2751,1.3294,0.0,0.0,1.7027,1.7022,1.5835,1.4774,1.4119,1.4216,1.287,0.0,0.0,0.0,0.0,0.0,0.0,0.0,0.0,0.0,0.0,0.0,0.0,0.0,0.0,0.0,0.0,0.0,0.0,0.0,0.0,0.0,0.0,0.0,0.0,0.0,0.0,0.0,0.0,0.0,0.0,0.0,0.0,0.0,0.0,0.0,0.0,0.0,0.0,0.0,0.0,0.0,0.0,0.0,0.0,0.0,0.0,0.0,0.0,0.0,0.0,0.0,0.0,1.2677,1.366,1.4218,1.4488,1.4488,1.4488,1.4545,1.4635,1.4785,1.4155,0.0,0.0,0.0,0.0,0.0,0.0,0.0,0.0,0.0,0.0,0.0,0.0,0.0,0.0,0.0,0.0,0.0,0.0,0.0,0.0,0.0,0.0,0.0,0.0,0.0,0.0,0.0,0.0,0.8914,0.9191,0.9095,0.0,0.0,0.0,0.0,0.0,0.0,0.0,0.0,0.0,0.0,1.4597,1.3831,1.4255,1.5211,1.6736,1.8308,1.8697,1.6956,1.5479,1.4642,1.5014,0.0,0.0,0.0,0.0,0.0,0.0,0.0,0.0,0.0,0.0,0.0,0.0,0.0,0.0,0.0,0.0,0.0,0.0,0.0,0.0,0.0,0.0,0.0,0.0,0.0,0.0,0.0,1.0692,0.0,0.0,0.9783,0.0,0.0,0.0,0.0,0.0,0.0,0.0,0.0,0.0,0.0,0.0,0.0,0.0,0.0,0.0,0.0,0.0,0.0,0.0,0.0,0.0,0.0,1.2889,1.4438,1.4475,1.4488,1.4488,1.4488,1.4493,1.4505,1.4635,1.4287,1.3388,0.0,0.0,0.0,0.0,0.0,0.0,0.0,0.0,0.0,0.0,0.0,0.0,0.0,0.0,0.0,0.0,0.0,0.0,0.0,0.0,0.0,0.0,0.0,0.0,0.0,0.0,1.0832,1.0497,0.9864,0.0,0.0,0.0,0.0,0.0,0.0,0.0,0.0,0.0,0.0,1.501,1.6039,1.6194,1.6298,1.689,1.8475,1.9061,1.9286,1.9138,1.6566,1.4691,0.0,0.0,0.0,0.0,0.0,0.0,0.0,0.0,0.0,0.0,0.0,0.0,0.0,0.0,0.0,0.0,0.0,0.0,0.0,0.0,0.0,0.0,0.0,0.0,0.0,0.0,0.0,1.4085,1.3458,0.0,0.0,0.0,0.0,0.0,0.0,0.0,0.0,0.0,0.0,0.0,1.6739,1.6528,0.0,0.0,0.0,0.0,0.0,0.0,0.0,0.0,0.0,0.0,0.0,0.0,1.355,1.4444,1.4488,1.4488,1.4488,1.4488,1.4488,1.4493,1.4648,1.4311,1.3495,0.0,0.0,0.0,0.0,0.0,0.0,0.0,0.0,0.0,0.0,0.0,0.0,0.0,0.0,0.0,0.0,0.0,0.0,0.0,0.0,0.0,0.0,0.0,0.0,0.0,1.0271,0.0,0.0,0.0,0.0,0.0,0.0,0.0,0.0,0.0,0.0,0.0,1.5403,1.6765,1.6861,1.7012,1.7542,1.7442,1.7722,0.0,0.0,0.0,0.0,0.0,0.0,0.0,0.0,0.0,0.0,0.0,0.0,0.0,0.0,1.767,1.4296,1.3379,1.3748,1.5786,0.0,0.0,0.0,0.0,0.0,0.0,0.0,0.0,0.0,0.0,0.0,0.0,0.0,0.0,1.6607,0.0,1.5846,0.0,0.0,0.0,0.0,0.0,0.0,0.0,0.0,1.6904,1.7543,1.806,1.7829,1.7696,0.0,1.7468,1.6356,0.0,0.0,0.0,0.0,0.0,0.0,0.0,0.0,1.4282,1.489,1.4915,1.4921,1.4897,1.464,1.4488,1.4493,1.4594,1.4264,1.3453,1.2331,1.1613,0.0,0.0,0.0,0.0,0.0,0.0,0.0,0.0,0.0,0.0,0.0,0.0,0.0,0.0,0.0,0.0,0.0,0.0,0.0,0.0,0.0,0.0,0.0,1.1321,0.0,0.0,0.0,0.0,0.0,0.0,0.0,0.0,0.0,1.5398,1.5938,1.6897,1.8467,1.8155,1.8004,1.8718,0.0,0.0,0.0,0.0,0.0,0.0,0.0,1.8515,1.9573,1.9221,1.881,1.8837,1.7943,1.7902,1.9983,0.0,0.0,1.7692,1.6268,1.6131,1.8268,1.7484,1.6495,1.6484,1.6483,1.6619,0.0,0.0,0.0,0.0,0.0,0.0,0.0,0.0,1.8906,1.8883,0.0,1.7985,0.0,0.0,0.0,0.0,0.0,1.8304,0.0,0.0,1.9104,1.9126,1.9088,1.8315,1.7891,1.793,1.8703,1.8626,1.7638,1.5288,0.0,0.0,0.0,0.0,0.0,0.0,1.511,1.5735,1.5747,1.5735,1.568,1.4958,1.4524,1.4506,1.4488,1.4156,1.3395,1.334,1.2949,1.2173,1.0668,0.0,0.0,0.0,0.0,0.0,0.0,0.0,0.0,0.0,0.0,0.0,0.0,0.0,0.0,0.0,0.0,0.0,0.0,0.0,0.0,1.2975,0.0,0.0,0.0,0.0,0.0,0.0,0.0,0.0,0.0,0.0,1.9055,1.8507,1.8141,1.8851,0.0,0.0,0.0,0.0,1.892,2.139,2.2374,2.2225,2.0392,1.9907,1.9582,1.8997,0.0,0.0,2.0541,2.0566,2.0471,2.042,2.1686,2.2351,2.0888,1.9536,1.9085,1.9982,1.9368,1.8764,1.8728,1.8606,1.8959,2.3214,0.0,0.0,0.0,0.0,2.0383,2.1235,2.2334,2.2503,2.2196,2.1602,2.1371,0.0,0.0,0.0,0.0,0.0,0.0,2.0764,2.0755,2.1387,2.1701,2.1701,2.147,2.1354,2.1335,2.095,2.035,1.9519,1.8196,1.6814,1.5448,0.0,0.0,0.0,0.0,1.6776,1.6778,1.6767,1.6423,1.5717,1.5472,1.5086,1.4506,1.4488,1.4389,1.4169,1.4145,1.3783,1.2986,1.2527,0.0,0.0,0.0,0.0,0.0,0.0,0.0,0.0,0.0,0.0,0.0,0.0,0.0,0.0,0.0,0.0,0.0,0.0,0.0,1.1798,1.2681,1.3184,0.0,0.0,0.0,0.0,0.0,0.0,0.0,0.0,0.0,2.1051,2.06,2.0287,0.0,0.0,1.9418,2.0143,2.145,2.2465,2.2787,2.381,0.0,2.2263,2.0961,2.05,2.1459,2.1929,2.1794,2.0648,2.0468,2.0817,2.1876,2.2466,2.2666,2.2217,2.0946,2.0119,2.0229,2.0027,1.9852,1.9852,1.9852,1.994,2.6833,2.492,2.329,2.2639,2.2717,2.3176,2.3976,2.4908,2.5038,2.4793,2.4317,2.4293,2.3178,2.1269,2.0923,0.0,0.0,0.0,2.1983,2.1976,2.2544,2.2797,2.2797,2.2797,2.2797,2.2778,2.2254,2.1773,2.1273,2.0408,1.9315,1.8023,0.0,0.0,1.6868,1.7647,1.798,1.7761,1.7763,1.7461,1.6872,1.6491,1.603,1.5484,1.5154,1.4976,1.497,1.4658,1.4279,1.3789,1.3458,1.2852,0.0,0.0,0.0,0.0,0.0,0.0,0.0,0.0,0.0,0.0,0.0,0.993,0.9099,0.0,0.0,0.0,1.1989,1.3165,1.3456,1.4211,0.0,0.0,0.0,0.0,0.0,0.0,0.0,1.7743,1.8713,2.0122,2.2238,2.2597,2.2496,2.2126,2.1036,2.0516,2.1189,0.0,2.4463,2.4005,2.4706,2.4788,2.3351,2.2654,2.2635,2.362,2.3229,2.2569,2.1597,2.1357,2.194,2.3328,2.3793,2.3586,2.2913,2.2504,2.233,2.2256,2.1731,2.1235,2.1019,2.1135,2.1119,3.014,2.9187,2.6619,2.5476,2.5388,2.6197,2.6581,2.6712,2.6697,2.6692,2.6717,2.6697,2.5409,2.3182,2.237,0.0,2.3201,2.322,2.324,2.3182,2.3144,2.3105,2.3081,2.3047,2.3009,2.3004,2.2947,2.2893,2.2855,2.2004,2.1212,2.0465,1.8888,1.7968,1.7771,1.8514,1.8855,1.8715,1.8715,1.8666,1.8599,1.7682,1.7126,1.6905,1.6121,1.5692,1.5655,1.4915,1.4488,1.4469,1.3789,1.3382,1.3282,0.0,0.0,0.0,0.0,0.0,0.0,0.0,0.0,0.0,0.0,0.0,0.0,0.0,0.0,0.0,1.3338,0.0,1.5951,1.6728,0.0,0.0,0.0,1.7463,1.7599,1.8808,1.9606,1.9504,0.0,0.0,2.2981,2.4375,2.455,2.2515,2.2123,2.2205,2.2692,2.4213,2.5208,2.4904,2.5122,2.4918,2.4,2.4457,2.5019,2.5077,2.4,2.3129,2.3018,2.3018,2.3663,2.4904,2.5288,2.4846,2.3278,2.4187,2.5288,2.5139,2.4005,2.2812,2.2197,2.237,2.2235,3.2179,3.1948,3.1258,2.9543,2.7262,2.7448,2.7561,2.7582,2.7601,2.7582,2.7582,2.7607,2.7255,2.6664,2.6472,2.6491,2.6683,2.6697,2.6678,2.6645,2.5986,2.5697,2.5659,2.5,2.4712,2.4673,2.4086,2.3798,2.3764,2.2913,2.2393,2.2177,2.1773,2.0611,1.8778,1.9523,1.9856,1.9683,1.9664,1.9314,1.8604,1.7682,1.7186,1.712,1.6196,1.5692,1.5674,1.4934,1.4488,1.4488,1.431,1.3998,1.3467,1.2465,0.0,0.0,0.0,0.0,0.0,0.0,0.0,0.0,0.0,1.2519,1.0977,0.0,1.297,0.0,1.412,1.6808,1.7022,1.7234,0.0,0.0,1.8645,1.9143,2.0872,2.0957,2.096,2.1191,2.1555,2.2542,2.4494,2.5065,2.505,2.436,2.408,2.403,2.4287,2.4828,2.5293,2.5233,2.5239,2.5207,2.4942,2.5096,2.5346,2.5288,2.4962,2.4712,2.4692,2.4712,2.4865,2.5231,2.5308,2.5135,2.4731,2.5058,2.5269,2.5288,2.4962,2.4269,2.2928,2.274,2.2701,3.3256,3.2891,3.2891,3.1814,3.0102,2.9737,2.9602,2.9563,2.9179,2.8794,2.8415,2.8049,2.8107,2.8396,2.8063,2.789,2.789,2.789,2.789,2.7852,2.7005,2.6621,2.6558,2.5712,2.5308,2.5288,2.4851,2.4644,2.4582,2.3778,2.3394,2.3355,2.299,2.2105,2.0773,2.1173,2.1167,2.0684,2.0316,1.9845,1.9228,1.8725,1.8423,1.8331,1.747,1.6988,1.6975,1.6217,1.5631,1.5232,1.5218,1.4895,1.4157,1.329,1.2832,0.0,0.0,0.0,0.0,0.0,0.0,0.0,0.0,0.0,0.0,0.0,1.5312,1.4386,1.7637,1.9616,1.9212,1.9497,2.0115,2.1041,2.0742,2.1155,2.2798,2.2563,2.2508,2.3055,2.3146,2.3978,2.614,2.6467,2.6422,2.6312,2.6149,2.5749,2.4998,2.5091,2.5308,2.5308,2.5308,2.5308,2.5308,2.5962,2.6447,2.6467,2.6447,2.6236,2.5462,2.5308,2.5519,2.6236,2.5846,2.5308,2.5308,2.5308,2.5308,2.5308,2.5308,2.4942,2.412,2.3934,2.3805,3.393,3.3237,3.3237,3.3237,3.3179,3.2352,3.1948,3.1814,3.1058,3.0237,2.9377,2.859,2.8634,2.9236,2.8539,2.8255,2.8236,2.8241,2.8236,2.8178,2.733,2.6915,2.6896,2.5914,2.5481,2.5457,2.5365,2.5308,2.5269,2.4606,2.4259,2.4225,2.349,2.3124,2.3124,2.3105,2.2639,2.1677,2.0885,2.0363,2.0208,2.0074,1.9934,1.9792,1.902,1.858,1.8566,1.7817,1.7051,1.6314,1.6276,1.5955,1.527,1.4421,1.432,0.0,1.4415,0.0,0.0,0.0,0.0,0.0,0.0,0.0,0.0,1.6806,1.7903,1.9988,2.1966,2.2713,2.168,2.222,2.2699,2.2911,2.2796,2.3048,2.3835,2.3948,2.4181,2.4818,2.4988,2.5882,2.7876,2.8102,2.7986,2.7788,2.772,2.7192,2.5774,2.5378,2.5385,2.5558,2.5635,2.5923,2.6288,2.7332,2.8198,2.8217,2.7909,2.7371,2.5962,2.5731,2.6236,2.764,2.7115,2.5981,2.5462,2.5308,2.5303,2.5326,2.5339,2.5315,2.5244,2.5204,2.4888,3.5154,3.5,3.5019,3.5,3.4942,3.4103,3.3314,3.266,3.2506,3.1968,3.1172,3.0361,3.0104,3.0225,3.0137,3.0092,3.0092,3.0092,3.0092,3.0049,2.914,2.8711,2.861,2.7099,2.6351,2.6313,2.5654,2.5308,2.5308,2.5154,2.5077,2.5077,2.4904,2.4827,2.4827,0.0,0.0,0.0,2.1716,2.1242,2.1201,2.0408,1.9998,1.9949,1.9079,0.0,1.8566,1.7822,1.734,1.717,1.7151,0.0,0.0,0.0,0.0,0.0,0.0,0.0,0.0,0.0,0.0,0.0,1.8516,1.7858,1.7483,1.7497,1.8551,2.0948,2.3376,2.4188,2.2698,2.2675,2.2978,2.3523,2.3495,2.3774,2.4666,2.5679,2.6085,2.5294,2.6003,2.742,2.9412,2.9154,2.8409,2.8074,2.7909,2.7981,2.8109,2.6492,2.5895,2.7063,2.7332,2.789,2.9231,2.9615,2.9769,2.9788,2.8717,2.789,2.7505,2.7409,2.7967,2.9538,2.9673,2.8404,2.5923,2.5308,2.535,2.546,2.5465,2.5456,2.5446,2.5425,2.5323,3.5946,3.5605,3.5586,3.5586,0.0,3.5126,3.4705,3.4216,3.3292,3.2709,3.2375,3.1999,3.16,3.1188,3.1232,3.0998,3.0606,3.0606,3.0606,3.0564,2.971,2.9256,2.9167,2.7892,2.7268,2.7236,2.6813,2.6582,2.6582,2.6601,2.637,2.5942,2.5923,2.5731,2.5308,2.5308,2.4692,2.3451,2.2605,2.1947,2.15,2.1011,2.0554,2.0152,1.9701,0.0,0.0,0.0,0.0,0.0,0.0,0.0,0.0,0.0,0.0,1.8308,1.7962,1.8077,1.8907,1.9354,1.9965,2.0831,2.1277,2.0954,1.9677,1.9965,2.0919,2.257,2.4308,2.4962,2.4139,2.4043,2.4341,2.5053,2.473,2.4932,2.6195,2.6751,2.7,2.7058,2.7481,2.8519,3.0173,2.9942,2.9481,2.9236,2.9192,2.9288,2.9447,2.7753,2.6947,2.8739,2.8332,2.8506,3.0,3.0404,3.0404,3.0269,2.9692,2.9212,2.914,2.914,2.9442,3.025,3.0404,2.9575,2.7576,2.6155,2.5335,2.5466,2.5563,2.5595,2.5602,2.5552,2.5503,3.6757,3.6154,3.5979,3.5921,3.5921,3.5781,3.5703,3.558,0.0,0.0,0.0,3.3252,3.2817,3.2172,3.2165,3.168,3.0896,3.0896,3.0799,3.0621,2.9934,2.9588,2.9438,2.8628,2.8225,2.8164,2.801,2.7918,2.7913,2.7913,2.7551,2.6871,2.6673,2.6154,2.5365,2.5308,2.4986,2.4317,2.3471,2.2682,2.1985,2.1812,2.1423,2.075,2.075,2.075,2.0731,2.0731,2.0412,1.9723,1.9684,1.9357,1.8642,1.86,1.9257,2.06,2.0754,2.1043,2.1696,2.2393,2.2562,2.1985,2.3413,2.3644,2.2062,2.2754,2.3605,2.4471,2.5274,2.5769,2.5769,2.575,2.6058,2.6755,2.6269,2.6462,2.7659,2.7788,2.7956,2.8577,2.8846,2.9327,3.0231,3.0394,3.0449,3.0485,3.0384,3.0529,3.0392,2.9052,2.8355,2.9529,2.9066,2.8929,2.9981,3.0404,3.0404,3.0385,3.0365,3.0404,3.0404,3.0404,3.0404,3.0365,3.0221,2.9574,2.8829,2.7205,2.5792,2.5544,2.5625,2.5703,2.5684,2.566,2.5602,3.8026,3.7861,3.7115,3.6803,3.6764,3.5999,3.5703,3.5626,3.469,3.4282,3.426,3.3596,3.3228,3.3093,3.3176,3.2751,3.2009,3.199,3.158,3.0857,3.0623,3.0508,3.0441,2.9615,2.919,2.912,2.8449,2.8042,2.7996,2.8008,2.7898,2.7656,2.6967,2.6173,2.5365,2.5308,2.5231,2.5115,2.4336,2.386,2.3721,2.3009,2.2566,2.2451,2.2412,2.247,2.2451,2.2432,2.2393,2.2278,2.2278,2.222,2.2085,2.2008,2.2201,2.2432,2.2451,2.2509,2.262,2.2759,2.3067,2.3725,2.4601,2.4716,2.3855,2.4485,2.5327,2.6159,2.6967,2.7544,2.7525,2.7453,2.7486,2.7717,2.8019,2.8192,2.8063,2.9077,2.95,2.8885,2.9577,3.0135,3.0339,3.0456,3.0513,3.0564,3.0587,3.0634,3.0624,3.0453,2.9897,2.9499,2.972,3.0086,3.0344,3.0404,3.0404,3.0404,3.0404,3.0404,3.0404,3.0404,3.0404,3.0404,2.9336,2.8562,2.8558,2.8255,2.7059,2.6001,2.5657,2.5703,2.5703,2.5703,2.5664,3.8833,3.8429,3.804,3.759,3.7082,3.6222,3.5871,3.5832,3.5482,3.5293,3.5232,3.4925,3.4506,3.4077,3.4101,3.3652,3.2832,3.2402,3.1973,3.1582,3.1052,3.077,3.0675,3.0305,3.0102,3.0025,2.9641,2.9427,2.9431,2.9408,2.9125,2.855,2.7258,2.6409,2.6,2.5538,2.5308,2.5308,2.4947,2.4524,2.4105,2.3701,2.3278,2.2816,2.2797,2.2797,2.2797,2.2797,2.2797,2.2797,2.2797,2.2797,2.2797,2.2797,2.3009,2.3451,2.3509,2.3682,2.4139,2.4178,2.4332,2.4736,2.5096,2.5154,2.4793,2.5077,2.5457,2.5942,2.7871,2.8659,2.7409,2.7621,2.8063,2.8511,2.8673,2.8846,2.9256,2.9846,3.0173,2.9756,3.0111,3.0436,3.0396,3.0476,3.0584,3.0647,3.0704,3.0762,3.0801,3.0801,3.061,3.0105,3.036,3.0529,3.0477,3.0417,3.039,3.0404,3.0404,3.0404,3.0404,3.0404,3.0404,3.0221,2.851,2.7064,2.7174,2.7717,2.7255,2.6139,2.5662,2.5703,2.5703,2.5703,2.5703,3.9697,3.918,3.8965,3.8281,3.7266,3.6582,3.6191,3.6016,3.5996,3.5973,3.5922,3.5975,3.5625,3.5019,3.5,3.4531,3.3691,3.3047,3.2676,3.2383,3.1582,3.1131,3.1021,3.0862,3.071,3.0674,3.067,3.0665,3.063,3.0611,3.0137,2.9155,2.7841,2.6997,2.6582,2.5942,2.55,2.5308,2.5308,2.5005,2.4394,2.4375,2.4043,2.3428,2.337,2.337,2.3351,2.3351,2.337,2.337,2.337,2.3351,2.337,2.3374,2.3658,2.4298,2.4375,2.462,2.5231,2.5308,2.5308,2.5308,2.5308,2.5308,2.5308,2.5308,2.5385,2.5865,2.8135,2.8981,2.7741,2.8028,2.8732,2.9329,2.9258,2.9496,3.0267,3.0449,3.0444,3.0451,3.0481,3.0503,3.0477,3.0556,3.0645,3.0749,3.0834,3.0898,3.0918,3.0918,3.0859,3.0814,3.0837,3.0785,3.0571,3.0457,3.0321,3.0221,3.0106,3.018,3.0287,3.0404,3.0465,3.0253,2.8312,2.6875,2.6484,2.6836,2.7057,2.625,2.5977,2.5703,2.5703,2.5703,2.5703,4.0996,4.084,4.0098,3.8809,3.7402,3.7207,3.6719,3.6074,3.6016,3.5996,3.5996,3.6016,3.5957,3.5879,3.5859,3.5351,3.4609,3.4512,3.4023,3.3242,3.2461,3.207,3.1934,3.125,3.0879,3.0879,3.0859,3.0791,3.071,3.0687,3.019,2.9307,2.9023,2.8149,2.6814,2.6544,2.6096,2.5327,2.5308,2.5269,2.5192,2.5192,2.5154,2.5091,2.5038,2.5072,2.4962,2.5077,2.5058,2.5077,2.5019,2.5058,2.5038,2.5038,2.5077,2.5173,2.5173,2.5231,2.5288,2.5308,2.5308,2.5308,2.5308,2.5308,2.5308,2.5308,2.5635,2.6442,2.7486,2.8338,2.8849,2.9622,3.0128,3.0199,3.0294,3.0498,3.0551,3.0591,3.0576,3.0594,3.0578,3.0568,3.0578,3.0648,3.0739,3.084,3.0879,3.0918,3.0918,3.0918,3.0898,3.0879,3.0898,3.0817,3.0673,3.0528,3.0245,2.9671,2.94,2.9675,3.0113,3.0342,3.0482,3.0525,2.9277,2.793,2.7519,2.7148,2.6406,2.6777,2.6348,2.5742,2.5703,2.5684,2.5684,4.1191,4.1172,4.082,3.9961,3.8809,3.7754,3.709,3.6738,3.6211,3.6016,3.6016,3.6016,3.6016,3.6016,3.6016,3.5801,3.5449,3.4941,3.4531,3.4043,3.2812,3.2187,3.2109,3.1309,3.0918,3.0918,3.0918,3.0879,3.0815,3.0744,3.0482,3.0041,2.9527,2.8816,2.8125,2.7629,2.6928,2.6101,2.6058,2.5827,2.5365,2.5308,2.5308,2.5308,2.5308,2.5308,2.5308,2.5308,2.5308,2.5308,2.5308,2.5308,2.5308,2.5308,2.5308,2.5308,2.5308,2.5308,2.5308,2.5308,2.5308,2.5308,2.5308,2.5308,2.5308,2.5308,2.5654,2.6544,2.739,2.8254,2.9105,2.9973,3.0528,3.0559,3.0584,3.0601,3.0619,3.0607,3.0601,3.0606,3.063,3.0655,3.0628,3.0728,3.0836,3.0898,3.0918,3.0918,3.0918,3.0918,3.0918,3.0918,3.0918,3.0859,3.0731,3.0734,3.0469,3.0199,3.0046,3.0156,2.9647,3.0211,3.0607,3.0798,2.9277,2.8242,2.8105,2.7499,2.6818,2.7043,2.6853,2.6226,2.5722,2.5598,2.5554,4.1191,4.1191,4.1191,4.0684,3.9785,3.8574,3.7871,3.7559,3.6738,3.6367,3.6328,3.6113,3.6016,3.6016,3.6016,3.6016,3.5918,3.5351,3.5059,3.4883,3.3555,3.2773,3.248,3.166,3.1113,3.0937,3.0918,3.0918,3.0898,3.0814,3.0723,3.059,2.9972,2.9481,2.9167,2.8536,2.7836,2.701,2.6755,2.6288,2.5731,2.5418,2.5308,2.5308,2.5308,2.5308,2.5308,2.5308,2.5308,2.5308,2.5308,2.5308,2.5308,2.5308,2.5308,2.5308,2.5308,2.5308,2.5308,2.5308,2.5308,2.5308,2.5308,2.5399,2.5553,2.5437,2.5942,2.726,2.8097,2.8934,2.9154,3.0013,3.0558,3.063,3.0648,3.0678,3.0683,3.0681,3.0683,3.0683,3.0746,3.0728,3.0716,3.082,3.0898,3.0918,3.0918,3.0918,3.0918,3.0918,3.0918,3.0918,3.0918,3.0859,3.0782,3.081,3.0803,3.0652,3.0465,2.9868,2.918,2.9751,2.9431,2.8691,2.8066,2.7734,2.7461,2.7108,2.7587,2.711,2.6819,2.6521,2.5715,2.5534,2.5413,4.1191,4.1191,4.1191,4.0703,3.9902,3.9766,3.9258,3.8476,3.7617,3.7246,3.707,3.6387,3.6035,3.6016,3.6016,3.6016,3.5996,3.5918,3.5859,3.5781,3.4922,3.4121,3.332,3.2519,3.1699,3.1035,3.0937,3.0918,3.0898,3.0879,3.0817,3.0677,3.059,3.0129,2.9404,2.9205,2.8718,2.7864,2.7145,2.6621,2.6481,2.5769,2.5423,2.5442,2.5308,2.5288,2.5298,2.5313,2.5293,2.5293,2.5298,2.5293,2.5293,2.5308,2.5308,2.5308,2.5308,2.5308,2.5308,2.5308,2.5308,2.5308,2.5385,2.5654,2.6308,2.5904,2.65,2.8703,2.9642,3.0009,2.9493,3.0147,3.0657,3.0687,3.0813,3.0859,3.0879,3.0859,3.0898,3.0879,3.0879,3.0859,3.0879,3.0879,3.0898,3.0918,3.0918,3.0918,3.0918,3.0918,3.0918,3.0918,3.0918,3.0918,3.0898,3.0898,3.0898,3.0775,3.0327,2.9685,2.9175,2.8672,2.7773,2.6836,2.6465,2.6348,2.6406,2.7054,2.8103,2.7988,2.7134,2.6547,2.6218,2.5578,2.5322,4.1191,4.1191,4.1191,4.0996,4.0684,4.0156,3.9707,3.9355,3.8496,3.7793,3.7324,3.6953,3.6523,3.6016,3.6016,3.6016,3.6016,3.6016,3.6016,3.5898,3.5098,3.4531,3.4141,3.2871,3.207,3.1719,3.1172,3.0918,3.0918,3.0918,3.0879,3.0836,3.0744,3.0503,3.0205,3.0067,2.961,2.8791,2.8371,2.7972,2.7448,2.7121,2.6967,2.689,2.5885,2.5327,2.5348,2.5367,2.5376,2.5425,2.5406,2.5352,2.5363,2.5312,2.5308,2.5308,2.5308,2.5308,2.5308,2.5308,2.5308,2.5346,2.5827,2.6222,2.6582,2.6832,2.7525,2.8744,2.9852,3.026,3.0273,3.0485,3.0695,3.0718,3.0801,3.0898,3.0918,3.0918,3.0918,3.0918,3.0918,3.0918,3.0918,3.0918,3.0918,3.0918,3.0918,3.0918,3.0918,3.0918,3.0918,3.0918,3.0918,3.0918,3.0918,3.0918,3.0898,3.084,3.0584,3.0466,3.0117,2.998,2.9315,2.7853,2.6759,2.5799,2.6196,2.6773,2.7922,2.8299,2.747,2.7113,2.709,2.6023,2.5481,4.1191,4.1191,4.1191,4.1191,4.1113,4.0586,4.0332,4.0215,3.9394,3.8691,3.8164,3.7851,3.7226,3.6523,3.6426,3.623,3.6035,3.6016,3.6016,3.5957,3.5391,3.498,3.4551,3.3535,3.2851,3.2559,3.1992,3.1601,3.1348,3.1309,3.1172,3.0898,3.0795,3.0744,3.0705,3.0591,3.0191,2.9681,2.9298,2.88,2.8319,2.803,2.7897,2.7783,2.6786,2.6185,2.6226,2.6097,2.6115,2.6303,2.629,2.6282,2.6272,2.5964,2.5764,2.5738,2.547,2.5331,2.5298,2.5322,2.533,2.5373,2.6146,2.6747,2.7048,2.76,2.8293,2.9181,2.9875,3.0433,3.0524,3.06,3.0671,3.0677,3.0764,3.0813,3.0828,3.082,3.0859,3.0898,3.0918,3.0918,3.0918,3.0918,3.0918,3.0918,3.0918,3.0918,3.0918,3.0918,3.0918,3.0918,3.0918,3.0918,3.0918,3.0918,3.0918,3.0859,3.0781,3.0839,3.0857,3.0836,3.0396,2.893,2.7553,2.6412,2.6154,2.6659,2.7287,2.798,2.7808,2.7354,2.6906,2.6202,2.5669,4.1191,4.1191,4.1191,4.1191,4.1191,4.1113,4.1152,4.0957,4.0254,3.9805,3.9473,3.8945,3.8066,3.7344,3.7148,3.6777,3.6113,3.6016,3.6016,3.5976,3.5937,3.5488,3.4824,3.457,3.3984,3.3301,3.332,3.2891,3.2109,3.2031,3.168,3.1016,3.0898,3.0836,3.0716,3.0626,3.0565,3.0264,2.9626,2.9162,2.9036,2.8489,2.8189,2.8171,2.8059,2.8008,2.8012,2.7527,2.7425,2.7877,2.7946,2.8058,2.7778,2.7201,2.6787,2.6608,2.5963,2.5518,2.5456,2.5588,2.5696,2.5703,2.6362,2.7321,2.7793,2.8107,2.8806,3.0053,3.0379,3.0396,3.0422,3.0505,3.0597,3.0609,3.0672,3.07,3.0655,3.0672,3.0753,3.0879,3.0918,3.0918,3.0918,3.0918,3.0918,3.0918,3.0918,3.0918,3.0918,3.0918,3.0918,3.0918,3.0918,3.0918,3.0918,3.0918,3.0918,3.0898,3.082,3.079,3.0783,3.0776,3.0732,2.9483,2.7043,2.5904,2.6269,2.6769,2.7255,2.7749,2.7568,2.7377,2.6786,2.6168,2.5639,4.1191,4.1191,4.1191,4.1191,4.1191,4.1191,4.1191,4.1191,4.0879,4.0449,3.9922,3.9629,3.8691,3.7559,3.7285,3.6855,3.6035,3.6016,3.6016,3.6035,3.6016,3.5859,3.5527,3.498,3.4238,3.3516,3.3379,3.2988,3.2363,3.2226,3.1758,3.1055,3.0918,3.0879,3.0817,3.0735,3.0626,3.0529,3.0236,3.0061,3.0061,2.9805,2.9713,2.9787,2.9827,2.9857,2.9797,2.8613,2.8065,2.829,2.8198,2.8154,2.8067,2.7844,2.7697,2.764,2.744,2.7257,2.7236,2.7187,2.6926,2.6771,2.7687,2.8274,2.8307,2.912,2.9899,3.0542,3.0482,3.0404,3.0402,3.0439,3.0495,3.0575,3.0633,3.0622,3.0617,3.073,3.0835,3.0898,3.0918,3.0918,3.0918,3.0918,3.0898,3.0898,3.0918,3.0918,3.0918,3.0918,3.0918,3.0918,3.0918,3.0918,3.0918,3.0918,3.0918,3.0918,3.0859,3.0781,3.0757,3.0683,3.0645,2.9654,2.7195,2.6256,2.6593,2.6929,2.7431,2.7459,2.7335,2.7031,2.6682,2.6174,2.5622,4.1191,4.1191,4.1191,4.1191,4.1191,4.1191,4.1191,4.1191,4.1191,4.0898,4.0449,4.0391,3.9629,3.8476,3.8262,3.7773,3.7012,3.6953,3.6797,3.6445,3.6074,3.6016,3.5937,3.5469,3.4941,3.4473,3.4375,3.3926,3.3144,3.2793,3.2226,3.1504,3.1074,3.0918,3.0879,3.0788,3.0679,3.0621,3.0571,3.0541,3.0541,3.0541,3.0568,3.0638,3.0689,3.0731,3.067,2.9718,2.9234,2.9238,2.9215,2.9185,2.911,2.8855,2.8633,2.856,2.832,2.81,2.8104,2.8015,2.793,2.7657,2.8369,2.8943,2.8899,2.9955,3.0592,3.0634,3.0495,3.0404,3.0404,3.0404,3.0428,3.0506,3.0522,3.0532,3.0572,3.0684,3.0804,3.0859,3.0859,3.0858,3.0879,3.0918,3.0859,3.0856,3.0879,3.0918,3.0918,3.0918,3.0918,3.0918,3.0918,3.0918,3.0918,3.0918,3.0918,3.0918,3.0898,3.084,3.0809,3.0663,3.0567,2.9474,2.7462,2.7369,2.7621,2.748,2.7688,2.741,2.7389,2.7752,2.7683,2.6222,2.5732,4.1191,4.1191,4.1191,4.1191,4.1191,4.1191,4.1191,4.1191,4.1191,4.1172,4.1133,4.1074,4.0625,3.9961,3.959,3.9141,3.8633,3.8184,3.7773,3.709,3.6445,3.6016,3.5976,3.5879,3.5781,3.5781,3.5801,3.5391,3.4414,3.3789,3.3027,3.2109,3.1406,3.0957,3.0898,3.0789,3.0718,3.0684,3.0643,3.0592,3.0592,3.0592,3.0645,3.0714,3.0739,3.077,3.0819,3.0703,3.0742,3.0859,3.0684,3.0625,3.0644,3.0078,2.9603,2.9507,2.8785,2.8535,2.8359,2.8597,2.8476,2.8342,2.8594,2.8711,2.9492,3.0148,3.0694,3.0675,3.05,3.0404,3.0404,3.0404,3.039,3.0385,3.0431,3.0441,3.0472,3.0511,3.0633,3.0755,3.0745,3.0745,3.0858,3.0898,3.082,3.0761,3.082,3.0898,3.0918,3.0918,3.0918,3.0918,3.0918,3.0918,3.0918,3.0918,3.0918,3.0918,3.0918,3.0879,3.084,3.0723,3.0605,2.9435,2.8652,2.8613,2.8285,2.7986,2.789,2.7882,2.8215,2.8912,2.8345,2.6887,2.6522,4.1191,4.1191,4.1191,4.1191,4.1191,4.1191,4.1191,4.1191,4.1191,4.1191,4.1191,4.1191,4.0723,3.9941,3.9902,3.9414,3.875,3.8047,3.7578,3.7187,3.6406,3.6035,3.6016,3.6016,3.6016,3.6016,3.5996,3.5547,3.4746,3.4434,3.3613,3.2226,3.2012,3.1523,3.0996,3.0898,3.0774,3.0718,3.0687,3.0677,3.0677,3.0677,3.0738,3.0837,3.084,3.0859,3.0898,3.0918,3.0918,3.0918,3.0918,3.0918,3.0879,3.056,3.0332,3.0247,3.0148,2.9991,2.9989,3.0047,2.9861,2.9374,2.9648,3.0019,2.9609,3.0272,3.0609,3.0626,3.0482,3.0404,3.0404,3.0404,3.0404,3.0404,3.0404,3.0402,3.0419,3.0463,3.0516,3.0535,3.0601,3.0716,3.0808,3.0816,3.0764,3.0753,3.082,3.0898,3.0898,3.0918,3.0918,3.0918,3.0918,3.0918,3.0918,3.0918,3.0918,3.0918,3.0918,3.0918,3.0898,3.084,3.0762,3.0311,2.9922,2.9785,2.8769,2.8051,2.8132,2.8577,2.8803,2.9277,2.871,2.7679,2.7755,4.1191,4.1191,4.1191,4.1191,4.1191,4.1191,4.1191,4.1191,4.1191,4.1191,4.1191,4.1191,4.0918,4.0469,4.0449,4.0195,3.9648,3.916,3.8574,3.7656,3.6582,3.6055,3.6016,3.6016,3.6016,3.6016,3.6016,3.5742,3.5254,3.4902,3.4121,3.3398,3.2871,3.2266,3.1543,3.1445,3.1191,3.0871,3.0791,3.0772,3.0792,3.0791,3.0816,3.0879,3.0918,3.0918,3.0918,3.0859,3.084,3.0859,3.084,3.0815,3.0814,3.071,3.0665,3.0644,3.0665,3.0654,3.0696,3.0771,3.0622,3.0234,3.041,3.0293,3.0117,3.0226,3.0142,3.0542,3.0462,3.0408,3.0404,3.0404,3.0404,3.0404,3.0404,3.0404,3.0404,3.0425,3.0436,3.0441,3.0516,3.0597,3.0713,3.0726,3.0786,3.0809,3.0856,3.0859,3.084,3.0879,3.0918,3.0918,3.0918,3.0918,3.0918,3.0918,3.0918,3.0918,3.0918,3.0918,3.0918,3.0918,3.0859,3.082,3.0879,3.0644,2.9609,2.9023,2.9455,2.9737,2.9675,2.957,2.9277,2.8926,2.9004,4.1191,4.1191,4.1191,4.1191,4.1191,4.1191,4.1191,4.1191,4.1191,4.1191,4.1191,4.1191,4.1152,4.1191,4.1035,4.1133,4.1094,4.0625,3.9648,3.8242,3.6816,3.6016,3.6016,3.6016,3.6016,3.6016,3.6016,3.5976,3.5742,3.5176,3.4824,3.4375,3.3809,3.3125,3.2461,3.2324,3.1914,3.1445,3.123,3.1172,3.1113,3.0996,3.0898,3.0898,3.0918,3.0918,3.0879,3.0815,3.0773,3.0879,3.0768,3.071,3.0682,3.0633,3.0597,3.0591,3.0574,3.06,3.0654,3.0705,3.0766,3.0664,3.0137,3.0039,3.0488,3.0182,3.0,3.0558,3.0506,3.0428,3.0404,3.0404,3.0404,3.0404,3.0404,3.0404,3.0404,3.0404,3.0404,3.0396,3.052,3.0524,3.0568,3.0689,3.0879,3.0859,3.0879,3.0835,3.0832,3.084,3.0879,3.0918,3.0918,3.0918,3.0918,3.0918,3.0918,3.0918,3.0918,3.0918,3.0918,3.0918,3.0918,3.0918,3.0918,3.0918,3.0664,3.0527,3.0644,3.0605,3.0351,3.0566,3.0703,3.0273,3.0137,4.1191,4.1191,4.1191,4.1191,4.1191,4.1191,4.1191,4.1191,4.1191,4.1191,4.1191,4.1191,4.1191,4.1191,4.1191,4.1191,4.1074,4.0469,3.9219,3.7598,3.6543,3.6055,3.6016,3.6016,3.6016,3.6016,3.6016,3.6016,3.5898,3.5742,3.5351,3.4746,3.457,3.4004,3.3262,3.3144,3.3086,3.2754,3.2246,3.1934,3.1758,3.1269,3.0976,3.0918,3.0918,3.0918,3.0898,3.0859,3.0859,3.0856,3.0726,3.063,3.0603,3.0574,3.054,3.0532,3.0517,3.0529,3.0574,3.0626,3.0698,3.0725,3.0625,3.0684,3.0801,3.0606,3.0421,3.0611,3.056,3.0501,3.0408,3.0404,3.0404,3.0404,3.0404,3.0404,3.0404,3.0404,3.0404,3.0406,3.0472,3.0587,3.0739,3.0716,3.084,3.0898,3.0879,3.084,3.082,3.084,3.0859,3.0918,3.0918,3.0918,3.0918,3.0918,3.0918,3.0918,3.0918,3.0918,3.0918,3.0918,3.0918,3.0918,3.0918,3.0918,3.0918,3.0898,3.0781,3.0879,3.0918,3.0918,3.0918,3.0918,3.0879,4.1191,4.1191,4.1191,4.1191,4.1191,4.1191,4.1191,4.1191,4.1191,4.1191,4.1191,4.1191,4.1191,4.1191,4.1191,4.1191,4.0879,3.9844,3.8594,3.7344,3.6445,3.6035,3.6016,3.6016,3.6016,3.6016,3.6016,3.6016,3.6016,3.5976,3.5742,3.5351,3.5293,3.4844,3.4141,3.4004,3.375,3.3359,3.3008,3.2754,3.2637,3.1953,3.123,3.0976,3.0918,3.0918,3.0898,3.0837,3.0809,3.0728,3.0639,3.0565,3.0571,3.0507,3.0457,3.0447,3.0467,3.0467,3.0528,3.0558,3.0625,3.0659,3.0725,3.0742,3.0749,3.07,3.0634,3.0567,3.0518,3.0485,3.0396,3.0404,3.0404,3.0404,3.0404,3.0404,3.0404,3.0404,3.0404,3.0411,3.0481,3.065,3.0759,3.0801,3.082,3.0918,3.0918,3.0879,3.0879,3.0879,3.0898,3.0918,3.0918,3.0918,3.0918,3.0918,3.0918,3.0918,3.0918,3.0918,3.0918,3.0918,3.0918,3.0918,3.0918,3.0918,3.0918,3.0918,3.0918,3.0918,3.0918,3.0918,3.0898,3.084,3.0781,4.1504,4.1387,4.1387,4.1308,4.1211,4.1191,4.1191,4.1191,4.1191,4.1191,4.1191,4.1191,4.1191,4.1191,4.1191,4.1191,4.0781,3.9707,3.8535,3.7637,3.6758,3.625,3.6094,3.6016,3.6016,3.6016,3.6016,3.6016,3.6016,3.6016,3.5957,3.5957,3.5976,3.5547,3.5019,3.4863,3.4648,3.4121,3.3769,3.3437,3.3281,3.2656,3.2012,3.1367,3.0957,3.0918,3.0879,3.0792,3.0682,3.0623,3.0548,3.0541,3.0537,3.0472,3.0404,3.039,3.0408,3.0433,3.0458,3.0503,3.0541,3.0604,3.0606,3.0611,3.0625,3.0639,3.0597,3.0522,3.0452,3.0408,3.0404,3.0404,3.0404,3.0404,3.0404,3.0404,3.0404,3.0404,3.0416,3.046,3.0532,3.067,3.0801,3.0879,3.0898,3.0918,3.0918,3.0918,3.0918,3.0918,3.0918,3.0918,3.0918,3.0918,3.0918,3.0918,3.0918,3.0918,3.0918,3.0918,3.0918,3.0918,3.0918,3.0918,3.0918,3.0918,3.0918,3.0918,3.0918,3.0918,3.0918,3.0918,3.0859,3.0781,3.0696,4.2851,4.2207,4.2187,4.1836,4.125,4.1191,4.1191,4.1191,4.1191,4.1191,4.1191,4.1191,4.1191,4.1191,4.1191,4.1191,4.084,3.9941,3.9101,3.8242,3.7383,3.6738,3.623,3.6035,3.6016,3.6016,3.6016,3.6016,3.6016,3.6016,3.6016,3.6016,3.6016,3.582,3.5762,3.5762,3.5605,3.5195,3.4746,3.4238,3.373,3.3242,3.2695,3.1855,3.125,3.0937,3.0879,3.079,3.069,3.0677,3.0561,3.0532,3.0498,3.0455,3.0416,3.0404,3.0404,3.0414,3.0433,3.0463,3.0513,3.0544,3.0567,3.0587,3.06,3.0634,3.057,3.0498,3.0436,3.0404,3.0404,3.0404,3.0404,3.0404,3.0404,3.0404,3.0404,3.0416,3.0458,3.053,3.06,3.0684,3.082,3.0918,3.0918,3.0918,3.0918,3.0918,3.0918,3.0918,3.0918,3.0918,3.0918,3.0918,3.0918,3.0918,3.0918,3.0918,3.0918,3.0918,3.0918,3.0918,3.0918,3.0918,3.0918,3.0918,3.0918,3.0918,3.0918,3.0918,3.0918,3.0898,3.082,3.0732,3.0676,4.3457,4.3027,4.2578,4.2168,4.1797,4.1348,4.1191,4.1191,4.1191,4.1191,4.1191,4.1191,4.1191,4.1191,4.1191,4.0996,4.0508,4.0156,3.9394,3.8574,3.7715,3.7129,3.6562,3.625,3.6035,3.6016,3.6016,3.6016,3.6016,3.6016,3.6016,3.6016,3.6016,3.6016,3.6016,3.5976,3.6016,3.5879,3.5566,3.5156,3.459,3.3984,3.3008,3.2207,3.1426,3.0957,3.0879,3.077,3.0684,3.0626,3.0547,3.0505,3.0442,3.0422,3.0404,3.0404,3.0404,3.0404,3.0404,3.0425,3.0451,3.0462,3.0486,3.0485,3.0494,3.0518,3.0531,3.0462,3.0419,3.0404,3.0404,3.0398,3.0404,3.0404,3.0404,3.0404,3.0404,3.0404,3.0476,3.0578,3.0602,3.0684,3.0859,3.0918,3.0918,3.0918,3.0918,3.0918,3.0918,3.0918,3.0918,3.0879,3.0879,3.0918,3.0918,3.0918,3.0918,3.0918,3.0918,3.0918,3.0918,3.0918,3.0918,3.0918,3.0918,3.0918,3.0918,3.0918,3.0918,3.0898,3.082,3.0762,3.0762,3.0718,3.063,4.4121,4.3887,4.3223,4.2812,4.2558,4.1992,4.1621,4.1465,4.1465,4.1367,4.1191,4.1191,4.1191,4.1191,4.1133,4.084,4.0176,4.0215,3.9726,3.8906,3.8066,3.7519,3.709,3.6523,3.6016,3.6016,3.6016,3.6016,3.6016,3.6016,3.6016,3.6016,3.6016,3.6016,3.6016,3.6016,3.6016,3.6016,3.6016,3.6016,3.5605,3.4336,3.3125,3.2441,3.1601,3.1152,3.0937,3.074,3.0642,3.06,3.054,3.0452,3.0414,3.0404,3.0404,3.0404,3.0404,3.0404,3.0404,3.0385,3.0408,3.0414,3.041,3.0396,3.0402,3.0417,3.039,3.0317,3.0292,3.0267,3.0267,3.0305,3.0349,3.0404,3.0404,3.0404,3.0404,3.0408,3.0471,3.0543,3.0579,3.0703,3.084,3.0898,3.0898,3.0859,3.0859,3.0918,3.0918,3.0918,3.0898,3.0859,3.0859,3.0898,3.0918,3.0918,3.0918,3.0918,3.0918,3.0918,3.0918,3.0918,3.0918,3.0898,3.0918,3.0918,3.0918,3.0918,3.0918,3.0859,3.0723,3.065,3.0672,3.0639,3.0568,4.5547,4.4844,4.4707,4.4258,4.3574,4.3379,4.293,4.2305,4.2266,4.1836,4.1308,4.123,4.1269,4.1191,4.1191,4.1133,4.1016,4.0879,4.0488,3.9687,3.875,3.7969,3.7305,3.6406,3.6055,3.6016,3.6016,3.6016,3.6016,3.6016,3.6016,3.6016,3.6016,3.6016,3.6016,3.6016,3.6016,3.6016,3.6016,3.6016,3.5742,3.4336,3.3535,3.3105,3.2422,3.168,3.1094,3.0812,3.0611,3.0606,3.0486,3.0425,3.0404,3.0404,3.0404,3.0404,3.0404,3.0404,3.0404,3.0404,3.0404,3.0404,3.0404,3.0404,3.0355,3.0355,3.0286,2.9969,2.9954,3.0011,3.0047,3.0061,3.0182,3.0311,3.0404,3.0404,3.0404,3.041,3.0455,3.0482,3.0542,3.0673,3.082,3.0859,3.0879,3.084,3.0801,3.0859,3.0879,3.084,3.0801,3.0723,3.0777,3.084,3.0859,3.0879,3.084,3.0859,3.0859,3.0879,3.0898,3.0898,3.0879,3.0879,3.0898,3.0918,3.0918,3.0918,3.0918,3.084,3.0723,3.0653,3.0618,3.0568,3.0496,4.601,4.5683,4.5215,4.4785,4.4394,4.3926,4.3496,4.3203,4.3125,4.2656,4.1992,4.1894,4.166,4.1289,4.1191,4.1191,4.1191,4.1191,4.1035,4.0332,3.9297,3.8398,3.7793,3.6719,3.6016,3.6016,3.6016,3.6016,3.6016,3.6016,3.6016,3.6016,3.6016,3.6016,3.6016,3.6016,3.6016,3.6016,3.6016,3.6016,3.5684,3.4863,3.4141,3.4062,3.2871,3.2109,3.1601,3.0937,3.0685,3.0645,3.056,3.0482,3.0456,3.0422,3.0404,3.0404,3.0404,3.0404,3.0404,3.0404,3.0404,3.0398,3.0373,3.0311,3.0209,3.0248,3.0052,2.9437,2.957,2.9703,2.9845,2.9939,3.0136,3.0286,3.0398,3.0404,3.0404,3.0385,3.0425,3.0456,3.0501,3.059,3.0675,3.0698,3.0732,3.0714,3.0676,3.0703,3.0684,3.0625,3.0566,3.0527,3.0633,3.0762,3.0781,3.0801,3.0703,3.0703,3.0723,3.0742,3.084,3.0859,3.0806,3.0806,3.084,3.0859,3.0898,3.0898,3.0898,3.082,3.0742,3.0645,3.0559,3.0492,3.0442,4.6175,4.623,4.5586,4.5332,4.5273,4.4609,4.4238,4.4023,4.4023,4.3418,4.2558,4.2148,4.1699,4.1328,4.1191,4.1191,4.1191,4.1191,4.1191,4.0625,3.9609,3.8691,3.7988,3.6953,3.6016,3.6016,3.6016,3.6016,3.6016,3.6016,3.6016,3.6016,3.6016,3.6016,3.6016,3.6016,3.6016,3.6016,3.6016,3.6016,3.5879,3.5391,3.4922,3.4316,3.3398,3.2422,3.207,3.1218,3.0713,3.0655,3.0607,3.0528,3.0457,3.0436,3.0404,3.0404,3.0404,3.0404,3.0404,3.0404,3.0404,3.0373,3.0292,3.0162,2.9939,3.008,3.0,2.9249,2.9259,2.9475,2.9678,2.9845,3.0066,3.0248,3.0404,3.0404,3.0442,3.0538,3.05,3.0411,3.0439,3.0417,3.0501,3.0528,3.0548,3.0581,3.059,3.0568,3.0527,3.0467,3.0456,3.0433,3.0496,3.0617,3.0619,3.0631,3.0577,3.0565,3.0578,3.0637,3.0735,3.071,3.065,3.0672,3.0732,3.0762,3.0781,3.084,3.0857,3.0696,3.0579,3.0556,3.0496,3.0439,3.0402,4.6175,4.6289,4.6211,4.6172,4.6172,4.6152,4.5625,4.4922,4.4902,4.3965,4.2539,4.168,4.1348,4.1211,4.1191,4.1191,4.1191,4.1191,4.1191,4.0644,3.957,3.875,3.8027,3.707,3.6016,3.6016,3.6016,3.6016,3.6016,3.6016,3.6016,3.6016,3.5976,3.5996,3.5996,3.5957,3.5976,3.5976,3.5996,3.5996,3.5996,3.5781,3.5488,3.4707,3.3828,3.2969,3.2226,3.1257,3.0677,3.0611,3.0582,3.0519,3.0456,3.0419,3.0385,3.0404,3.0404,3.0404,3.0404,3.0404,3.0398,3.0323,3.0189,2.9981,2.9748,2.9712,2.957,2.9531,2.967,2.9778,2.9851,2.9811,3.043,3.026,3.0404,3.0404,3.0538,3.0846,3.0769,3.05,3.0404,3.0404,3.0404,3.0442,3.0472,3.0513,3.0527,3.0519,3.0477,3.0417,3.0425,3.0402,3.0402,3.0449,3.0439,3.043,3.0472,3.0485,3.0516,3.0548,3.0613,3.0554,3.0521,3.0503,3.0556,3.061,3.0677,3.0739,3.0704,3.0513,3.0411,3.0451,3.0462,3.0425,3.039,4.6175,4.6289,4.6289,4.6289,4.6289,4.6289,4.6113,4.584,4.5781,4.4824,4.3066,4.1855,4.1191,4.1191,4.1191,4.1191,4.1191,4.1191,4.1191,4.0625,3.9609,3.875,3.7988,3.7148,3.6016,3.6035,3.6035,3.6016,3.6016,3.6016,3.5976,3.5957,3.5947,3.5879,3.5859,3.5859,3.5869,3.5923,3.5946,3.5949,3.5996,3.5996,3.584,3.5508,3.3984,3.334,3.2726,3.1407,3.0884,3.0628,3.0591,3.0528,3.0456,3.0411,3.039,3.0404,3.0404,3.0404,3.0398,3.0392,3.0343,3.0157,3.0047,2.9869,2.9598,2.9626,2.9905,3.0116,3.069,3.11,3.1674,3.1613,3.1466,3.0753,3.0442,3.05,3.0885,3.1385,3.1173,3.0942,3.0615,3.0404,3.0404,3.0396,3.0411,3.0444,3.0436,3.046,3.0425,3.0404,3.0404,3.0404,3.0404,3.0404,3.0404,3.0404,3.0404,3.0422,3.0442,3.0477,3.0511,3.0487,3.0436,3.0396,3.0404,3.0472,3.056,3.0639,3.0587,3.0451,3.039,3.0402,3.0396,3.0404,3.0404,4.6222,4.6289,4.6289,4.6289,4.6289,4.6289,4.6289,4.625,4.5957,4.4941,4.3242,4.1816,4.1191,4.1191,4.1191,4.1191,4.1191,4.1191,4.1191,4.0664,3.9844,3.9082,3.8476,3.7715,3.6855,3.6484,3.6348,3.6387,3.6016,3.6016,3.5976,3.5917,3.588,3.5817,3.5752,3.5707,3.5755,3.5812,3.588,3.5913,3.5976,3.5996,3.5976,3.5664,3.4258,3.3398,3.2757,3.166,3.0735,3.0578,3.0552,3.0522,3.0472,3.0419,3.0396,3.0404,3.0404,3.0404,3.0392,3.0299,3.0176,2.9947,2.9908,2.9738,2.9588,2.9561,2.9694,3.0748,3.187,3.3005,3.3291,3.248,3.2378,3.186,3.1263,3.1288,3.1962,3.2442,3.1865,3.1404,3.0962,3.0423,3.0423,3.0423,3.0396,3.0419,3.0425,3.0436,3.0414,3.0404,3.0404,3.0404,3.0404,3.0404,3.0404,3.0404,3.0404,3.039,3.0417,3.0419,3.0417,3.0404,3.0404,3.0404,3.0404,3.0404,3.0436,3.0511,3.0486,3.0411,3.0385,3.0361,3.0404,3.0404,3.0404,4.6289,4.6289,4.6289,4.6289,4.6289,4.6289,4.6289,4.6152,4.5351,4.4141,4.2676,4.1641,4.1191,4.1191,4.1191,4.1191,4.1191,4.1191,4.1191,4.0898,4.0156,3.9844,3.9414,3.8691,3.7734,3.7383,3.7226,3.6894,3.6133,3.623,3.6133,3.5907,3.5864,3.5794,3.5703,3.57,3.5703,3.5717,3.5831,3.5869,3.5908,3.5928,3.5924,3.5503,3.4228,3.331,3.285,3.1466,3.0575,3.0423,3.0371,3.0348,3.0352,3.0354,3.0361,3.0404,3.0404,3.0398,3.0355,3.0136,2.9931,2.978,2.9771,2.9695,2.9598,2.9501,2.9789,3.1088,3.3034,3.3665,3.3323,3.2825,3.3154,3.3032,3.2441,3.2281,3.2968,3.3636,3.3146,3.2301,3.1234,3.0475,3.0462,3.0442,3.0404,3.041,3.0404,3.0404,3.0404,3.0404,3.0404,3.0404,3.0404,3.0404,3.0404,3.0404,3.0404,3.0404,3.0404,3.0404,3.0404,3.0404,3.0404,3.0404,3.0392,3.0361,3.0361,3.0371,3.0267,3.0182,3.0286,3.0311,3.0361,3.0404,3.0404,4.6289,4.6289,4.6289,4.6247,4.6174,4.6173,4.6203,4.6035,4.4824,4.3789,4.3047,4.1855,4.1191,4.1191,4.1191,4.1191,4.1191,4.1191,4.1191,4.1094,4.0371,3.998,3.9668,3.9219,3.8516,3.8242,3.8086,3.7695,3.6894,3.6758,3.6348,3.6063,3.58,3.5698,3.5636,3.5616,3.5588,3.5626,3.5682,3.5721,3.5761,3.579,3.5795,3.5688,3.413,3.3268,3.3001,3.1322,3.0449,3.0202,3.0113,3.0058,3.0129,3.0143,3.0222,3.0349,3.0392,3.0228,3.0044,2.9821,2.9799,2.9722,2.9779,2.9806,2.968,2.9588,3.034,3.1768,3.3815,3.4424,3.4451,3.4507,3.4628,3.4224,3.3771,3.3561,3.396,3.468,3.4701,3.3525,3.2421,3.1854,3.1621,3.1038,3.0827,3.0808,3.0846,3.0538,3.0442,3.0404,3.0404,3.0404,3.0404,3.0404,3.0404,3.0404,3.0404,3.0404,3.0404,3.0404,3.0404,3.0404,3.0404,3.0404,3.0355,3.033,3.0195,3.0078,2.9977,2.9946,3.0015,3.0095,3.0122,3.0248,3.0404,4.6225,4.6224,4.6195,4.6115,4.6042,4.608,4.6003,4.5526,4.4237,4.3456,4.2871,4.168,4.1113,4.1152,4.1191,4.1191,4.1191,4.1191,4.1191,4.1133,4.0684,4.0469,4.0195,3.9766,3.9473,3.918,3.8906,3.8496,3.7266,3.7266,3.6738,3.605,3.5748,3.5657,3.5586,3.557,3.5534,3.556,3.56,3.565,3.5671,3.5686,3.5693,3.5286,3.4363,3.3321,3.2596,3.152,3.0271,3.0018,2.9823,2.9765,2.9869,2.9984,3.0075,3.0215,3.0235,3.0059,2.9823,2.9731,2.9722,2.9705,2.9981,3.013,3.0007,2.9943,3.092,3.2401,3.4338,3.5009,3.5266,3.5467,3.5297,3.4877,3.4833,3.461,3.4734,3.5432,3.5282,3.4188,3.3686,3.3211,3.2622,3.191,3.1308,3.1327,3.1327,3.0962,3.0635,3.0615,3.0577,3.05,3.0442,3.0404,3.0404,3.0404,3.0404,3.0404,3.0404,3.0404,3.0404,3.0404,3.0404,3.0343,3.0181,3.0007,2.9856,2.9748,2.9722,2.9678,2.9642,2.9754,2.9869,2.9996,3.0142,4.6089,4.6058,4.5944,4.5907,4.5931,4.6011,4.5599,4.4727,4.3821,4.2992,4.2171,4.1462,4.0994,4.1023,4.1126,4.1152,4.1152,4.1152,4.1133,4.1152,4.0957,4.0996,4.1035,4.0918,4.0391,4.0059,3.9648,3.8887,3.7519,3.7031,3.6543,3.6087,3.5917,3.5773,3.5681,3.5707,3.563,3.5599,3.555,3.5568,3.5596,3.5633,3.5592,3.5192,3.4422,3.3518,3.2642,3.1522,3.056,3.0046,2.9708,2.968,2.9729,2.9877,2.9947,2.9991,2.9991,2.9829,2.9756,2.9705,2.9729,2.9885,3.0814,3.0818,3.0535,3.0331,3.1154,3.2644,3.4403,3.5006,3.5481,3.5502,3.5489,3.5445,3.5512,3.5466,3.5507,3.5546,3.5259,3.4789,3.4528,3.4042,3.3319,3.2602,3.2423,3.2083,3.2064,3.1775,3.1448,3.1154,3.1038,3.0712,3.0615,3.0423,3.0404,3.0423,3.0404,3.0404,3.0404,3.0404,3.0404,3.0404,3.0404,3.0273,2.9904,2.9722,2.9661,2.9598,2.9542,2.9485,2.9378,2.9523,2.9687,2.9597,2.9739,4.6061,4.5963,4.5912,4.5872,4.5826,4.5777,4.5622,4.5309,4.4045,4.321,4.2941,4.1489,4.0958,4.0864,4.0905,4.092,4.092,4.0918,4.0898,4.0933,4.1025,4.1033,4.1081,4.1113,4.0957,4.0664,4.0117,3.9375,3.8144,3.7259,3.6368,3.5816,3.6238,3.6101,3.5955,3.6068,3.5842,3.5629,3.5515,3.5534,3.5515,3.5537,3.5457,3.5067,3.4393,3.3606,3.2901,3.1598,3.0699,3.0343,2.959,2.9307,2.9513,2.9561,2.9607,2.9746,2.9687,2.9579,2.967,2.9705,2.9746,3.0212,3.1398,3.1379,3.0911,3.0712,3.1333,3.2872,3.443,3.5212,3.5404,3.538,3.5402,3.5441,3.5532,3.561,3.5508,3.4961,3.4766,3.5148,3.4917,3.4754,3.4023,3.4141,3.3923,3.3276,3.2852,3.266,3.2295,3.2019,3.1673,3.1346,3.0692,3.0481,3.0442,3.0462,3.0423,3.0404,3.0404,3.0404,3.0404,3.0404,3.0404,3.0148,2.9731,2.957,2.9551,2.9456,2.9316,2.9209,2.913,2.9314,2.9445,2.9385,2.9324,4.5958,4.589,4.5822,4.5751,4.5703,4.5635,4.564,4.5455,4.4311,4.3618,4.3139,4.1888,4.1097,4.0781,4.08,4.0809,4.0813,4.0839,4.082,4.0854,4.0874,4.0892,4.0959,4.0996,4.0976,4.0795,4.0485,3.9863,3.874,3.7702,3.6781,3.6289,3.6754,3.6276,3.5931,3.5843,3.586,3.5635,3.5488,3.5481,3.546,3.541,3.5231,3.4973,3.428,3.3797,3.321,3.1801,3.1221,3.0587,2.9639,2.9368,2.9434,2.9341,2.9522,2.9644,2.9551,2.9561,2.9652,2.9705,2.9813,3.0437,3.1775,3.1904,3.1692,3.1462,3.2045,3.3026,3.4385,3.5404,3.5308,3.5232,3.5218,3.5228,3.5371,3.5522,3.498,3.4316,3.459,3.5156,3.5249,3.5209,3.5212,3.5419,3.5346,3.4622,3.4237,3.4154,3.3603,3.2987,3.2583,3.2179,3.1231,3.05,3.0558,3.0596,3.0423,3.0404,3.0404,3.0404,3.0404,3.0336,3.0267,2.9931,2.9504,2.9387,2.9324,2.9195,2.906,2.8987,2.8987,2.9127,2.9217,2.9181,2.9104,4.5885,4.5862,4.5681,4.5601,4.5594,4.5594,4.5603,4.5518,4.4763,4.3929,4.3092,4.231,4.1415,4.0794,4.0717,4.0743,4.0738,4.0733,4.0728,4.0773,4.0796,4.0805,4.0809,4.0821,4.087,4.0824,4.0458,3.9828,3.926,3.8159,3.7165,3.6917,3.6837,3.6387,3.5708,3.5867,3.5825,3.546,3.5391,3.541,3.5369,3.5258,3.507,3.4907,3.4434,3.3895,3.325,3.2551,3.194,3.0925,3.0099,2.9787,2.9358,2.9222,2.9425,2.9484,2.9365,2.9691,2.9879,3.0034,3.026,3.0886,3.1871,3.2443,3.2526,3.2788,3.3449,3.3218,3.4353,3.4962,3.4988,3.5219,3.5347,3.4862,3.4562,3.4921,3.4961,3.4434,3.4355,3.4851,3.5118,3.5129,3.5385,3.55,3.55,3.5308,3.5231,3.5173,3.4827,3.4007,3.3468,3.3026,3.2327,3.1481,3.1077,3.1019,3.0519,3.0404,3.0404,3.0404,3.0404,3.0267,3.0099,2.9678,2.9251,2.9141,2.9055,2.8987,2.8987,2.8987,2.8987,2.8987,2.8998,2.9021,2.9017,4.5817,4.5665,4.5618,4.5594,4.5594,4.5594,4.5594,4.5575,4.5421,4.4432,4.3132,4.221,4.1354,4.0665,4.0584,4.0604,4.0591,4.0629,4.0564,4.0629,4.0684,4.0715,4.0736,4.0747,4.0788,4.0583,4.0182,3.9583,3.8838,3.794,3.7199,3.6813,3.6716,3.6271,3.5556,3.5837,3.5851,3.5304,3.5198,3.5163,3.5122,3.5079,3.4954,3.4605,3.4132,3.4006,3.3456,3.2917,3.2546,3.1959,3.0723,2.9879,2.909,2.9122,2.9141,2.9167,2.9366,2.9878,3.0368,3.0682,3.0948,3.1967,3.2981,3.3462,3.3936,3.4526,3.4558,3.4064,3.3891,3.4334,3.4725,3.5059,3.514,3.4365,3.3793,3.4348,3.4843,3.4467,3.4114,3.4372,3.4738,3.5069,3.5303,3.55,3.55,3.5462,3.5442,3.5404,3.5385,3.4846,3.4257,3.3833,3.3577,3.2904,3.2154,3.1212,3.0596,3.0404,3.0404,3.0404,3.0404,3.0044,2.9722,2.9377,2.9044,2.9021,2.9021,2.9017,2.9017,2.9071,2.9104,2.9141,2.9082,2.9071,2.9033,4.5447,4.5658,4.5629,4.5594,4.5594,4.5594,4.5594,4.5594,4.5594,4.4671,4.3201,4.2527,4.17,4.0669,4.0496,4.0496,4.0496,4.0496,4.0515,4.0537,4.0566,4.0596,4.0649,4.0665,4.0647,4.0483,4.0127,3.9499,3.8775,3.8062,3.7545,3.6927,3.6646,3.6124,3.5484,3.5726,3.5744,3.5124,3.4981,3.4841,3.4746,3.4656,3.4595,3.4235,3.408,3.3948,3.3766,3.328,3.2986,3.2289,3.1017,3.0558,3.0008,2.9836,2.9836,3.005,3.0304,3.0506,3.1119,3.1455,3.173,3.2809,3.3276,3.341,3.4148,3.4641,3.4776,3.4257,3.3391,3.3641,3.3718,3.3968,3.3668,3.3048,3.3249,3.3743,3.349,3.2924,3.2874,3.3098,3.3673,3.4455,3.4827,3.55,3.55,3.55,3.55,3.55,3.55,3.5404,3.4904,3.4288,3.3846,3.3231,3.2212,3.1288,3.05,3.0404,3.0404,3.0404,3.0336,2.9782,2.9316,2.9185,2.9093,2.91,2.9089,2.9145,2.927,2.9387,2.9367,2.9326,2.9251,2.923,2.9357,4.5015,4.5703,4.5651,4.5594,4.5594,4.5594,4.5594,4.5594,4.5575,4.4748,4.3412,4.3143,4.2047,4.0969,4.0496,4.0496,4.0496,4.0496,4.0496,4.0496,4.0504,4.0542,4.0542,4.0508,4.0496,4.0356,4.0049,3.9957,3.9671,3.8563,3.7495,3.7024,3.6387,3.5728,3.5252,3.5053,3.5009,3.4851,3.4666,3.4445,3.43,3.4164,3.4176,3.4105,3.3954,3.3834,3.3788,3.3678,3.333,3.2651,3.1586,3.1127,3.0852,3.0613,3.0742,3.0919,3.1132,3.157,3.2089,3.1946,3.2457,3.3003,3.307,3.3583,3.441,3.4699,3.4834,3.443,3.3564,3.291,3.2987,3.2948,3.2574,3.2459,3.291,3.2959,3.2283,3.2001,3.2386,3.2556,3.3205,3.409,3.4712,3.5365,3.55,3.55,3.55,3.55,3.5462,3.5308,3.5,3.4173,3.3442,3.2788,3.2231,3.1288,3.0404,3.0404,3.0404,3.0404,3.0228,2.967,2.9295,2.9262,2.9195,2.927,2.9312,2.9373,2.9504,2.9634,2.9615,2.957,2.9551,2.9579,2.9813,4.494,4.5635,4.5603,4.5575,4.5556,4.5556,4.5594,4.5594,4.5556,4.4998,4.403,4.3201,4.2143,4.0508,4.0496,4.0496,4.0496,4.0489,4.0489,4.0496,4.0449,4.0473,4.043,4.03,4.0311,4.0129,3.9891,3.9724,3.9498,3.8233,3.7287,3.702,3.5581,3.5039,3.4906,3.4801,3.4797,3.468,3.457,3.4408,3.421,3.411,3.4031,3.3948,3.3829,3.3807,3.3807,3.3807,3.3715,3.333,3.2651,3.1953,3.1623,3.1415,3.1452,3.1747,3.193,3.244,3.2739,3.286,3.344,3.4356,3.4538,3.4603,3.5103,3.5199,3.5192,3.4981,3.4077,3.2929,3.2776,3.2795,3.2573,3.2774,3.311,3.2251,3.1431,3.268,3.3805,3.3843,3.4025,3.4654,3.5135,3.55,3.55,3.55,3.55,3.55,3.55,3.5288,3.5096,3.4096,3.3135,3.2904,3.2583,3.1231,3.0423,3.0404,3.0404,3.0404,3.0135,2.9533,2.9283,2.9485,2.9495,2.9533,2.957,2.9598,2.9662,2.9765,2.9821,2.9818,2.981,2.9869,3.0059]}]]